[[{"header":{"parameterUnit":"m.s-1","parameterCategory":1,"la1":30.6,"la2":29.2853,"lo1":-89.7004,"lo2":-87.6739,"dy":0.0162,"dx":0.0183,"nx":112,"ny":82,"refTime":"2024-02-28T18:00:00:Z","depth":0,"parameterNumber":2,"parameterNumberName":"U-component_of_WINDS"},"data":[0.0,0.0,0.0,0.0,0.0,0.0,0.0,0.0,0.0,0.0,0.0,0.0,0.0,0.0,0.0,0.0,0.0,0.0,0.0,0.0,0.0,0.0,0.0,0.0,0.0,0.0,0.0,0.0,0.0,0.0,0.0,0.0,0.0,0.0,0.0,0.0,0.0,0.0,0.0,0.0,0.0,0.0,0.0,0.0,0.0,0.0,0.0,0.0,0.0,0.0,0.0,0.0,0.0,0.0,0.0,0.0,0.0,0.0,0.0,0.0,0.0,0.0,0.0,0.0,0.0,0.0,0.0,0.0,0.0,0.0,0.0,0.0,0.0,0.0,0.0,0.0,0.0,0.0,0.0,0.0,0.0,0.0,0.0,0.0,0.0,0.0,0.0,0.0,0.0,0.0,3.2139,3.2315,3.3599,3.4452,3.4452,3.4112,3.2433,2.8989,0.0,0.0,0.0,0.0,0.0,0.0,0.0,0.0,0.0,0.0,0.0,0.0,0.0,0.0,0.0,0.0,0.0,0.0,0.0,0.0,0.0,0.0,0.0,0.0,0.0,0.0,0.0,0.0,0.0,0.0,0.0,0.0,0.0,0.0,0.0,0.0,0.0,0.0,0.0,0.0,0.0,0.0,0.0,0.0,0.0,0.0,0.0,0.0,0.0,0.0,0.0,0.0,0.0,0.0,0.0,0.0,0.0,0.0,0.0,0.0,0.0,0.0,0.0,0.0,0.0,0.0,0.0,0.0,0.0,0.0,0.0,0.0,0.0,0.0,0.0,0.0,0.0,0.0,0.0,0.0,0.0,0.0,0.0,0.0,0.0,0.0,0.0,0.0,0.0,0.0,0.0,0.0,0.0,0.0,0.0,0.0,0.0,0.0,0.0,0.0,0.0,0.0,0.0,0.0,3.1888,3.2864,3.319,3.3341,3.3341,3.1393,2.9624,2.8315,0.0,0.0,0.0,0.0,0.0,0.0,0.0,0.0,0.0,0.0,0.0,0.0,0.0,0.0,0.0,0.0,0.0,0.0,0.0,0.0,0.0,0.0,0.0,0.0,0.0,0.0,0.0,0.0,0.0,0.0,0.0,0.0,0.0,0.0,0.0,0.0,0.0,0.0,0.0,0.0,0.0,0.0,0.0,0.0,0.0,0.0,0.0,0.0,0.0,0.0,0.0,0.0,0.0,0.0,0.0,0.0,0.0,0.0,0.0,0.0,0.0,0.0,0.0,0.0,0.0,0.0,0.0,0.0,0.0,0.0,0.0,0.0,0.0,0.0,0.0,0.0,0.0,0.0,0.0,0.0,0.0,0.0,0.0,0.0,0.0,0.0,0.0,0.0,0.0,0.0,0.0,0.0,0.0,0.0,0.0,0.0,0.0,0.0,0.0,0.0,0.0,0.0,0.0,3.1165,3.1386,3.2491,3.2616,3.2616,3.2616,3.1037,2.9478,2.818,2.748,0.0,0.0,0.0,0.0,0.0,0.0,0.0,0.0,0.0,0.0,0.0,0.0,0.0,0.0,0.0,0.0,0.0,0.0,0.0,0.0,0.0,0.0,0.0,0.0,0.0,0.0,0.0,0.0,0.0,0.0,0.0,0.0,0.0,0.0,0.0,0.0,0.0,0.0,0.0,0.0,0.0,0.0,0.0,0.0,0.0,0.0,0.0,0.0,0.0,0.0,0.0,0.0,0.0,0.0,0.0,0.0,0.0,0.0,0.0,0.0,0.0,0.0,0.0,0.0,0.0,0.0,0.0,0.0,0.0,0.0,0.0,0.0,0.0,0.0,0.0,0.0,0.0,0.0,0.0,0.0,0.0,0.0,0.0,0.0,0.0,0.0,0.0,0.0,0.0,0.0,0.0,0.0,0.0,0.0,0.0,0.0,0.0,0.0,0.0,0.0,0.0,0.0,3.1315,3.124,3.1938,3.2118,3.2144,3.2039,3.0743,2.9368,2.8,2.6194,0.0,0.0,0.0,0.0,0.0,0.0,0.0,0.0,0.0,0.0,0.0,0.0,0.0,0.0,0.0,0.0,0.0,0.0,0.0,0.0,0.0,0.0,0.0,0.0,0.0,0.0,0.0,0.0,0.0,0.0,0.0,0.0,0.0,0.0,0.0,0.0,0.0,0.0,0.0,0.0,0.0,0.0,0.0,0.0,0.0,0.0,0.0,0.0,0.0,0.0,0.0,0.0,0.0,0.0,0.0,0.0,0.0,0.0,0.0,0.0,0.0,0.0,0.0,0.0,0.0,0.0,0.0,0.0,0.0,0.0,0.0,0.0,0.0,0.0,0.0,0.0,0.0,0.0,0.0,0.0,0.0,0.0,0.0,0.0,0.0,0.0,0.0,0.0,0.0,0.0,0.0,0.0,0.0,0.0,0.0,0.0,0.0,0.0,0.0,0.0,0.0,0.0,3.1516,3.1938,3.1486,3.1913,3.2014,3.1486,2.9383,2.7891,2.7396,2.5193,0.0,0.0,0.0,0.0,0.0,0.0,0.0,0.0,0.0,0.0,0.0,0.0,0.0,0.0,0.0,0.0,0.0,0.0,0.0,0.0,0.0,0.0,0.0,0.0,0.0,0.0,0.0,0.0,0.0,0.0,0.0,0.0,0.0,0.0,0.0,0.0,0.0,0.0,0.0,0.0,0.0,0.0,0.0,0.0,0.0,0.0,0.0,0.0,0.0,0.0,0.0,0.0,0.0,0.0,0.0,0.0,0.0,0.0,0.0,0.0,0.0,0.0,0.0,0.0,0.0,0.0,0.0,0.0,0.0,0.0,0.0,0.0,0.0,0.0,0.0,0.0,0.0,0.0,0.0,0.0,0.0,0.0,0.0,0.0,0.0,0.0,0.0,0.0,0.0,0.0,0.0,0.0,0.0,0.0,0.0,0.0,0.0,0.0,0.0,0.0,0.0,0.0,3.0658,3.0758,3.0884,3.1085,3.0826,2.9902,2.8423,2.7166,2.6282,0.0,0.0,0.0,0.0,0.0,0.0,0.0,0.0,0.0,0.0,0.0,0.0,0.0,0.0,0.0,0.0,0.0,0.0,0.0,0.0,0.0,0.0,0.0,0.0,0.0,0.0,0.0,0.0,0.0,0.0,0.0,0.0,0.0,0.0,0.0,0.0,0.0,0.0,0.0,0.0,0.0,0.0,0.0,0.0,0.0,0.0,0.0,0.0,0.0,0.0,0.0,0.0,0.0,0.0,0.0,0.0,0.0,0.0,0.0,0.0,0.0,0.0,0.0,0.0,0.0,0.0,0.0,0.0,0.0,0.0,0.0,0.0,0.0,0.0,0.0,0.0,0.0,0.0,0.0,0.0,0.0,0.0,0.0,0.0,0.0,0.0,0.0,0.0,0.0,0.0,0.0,0.0,0.0,0.0,0.0,0.0,0.0,0.0,0.0,0.0,0.0,0.0,3.0306,3.0181,3.0131,3.0331,3.0487,3.0069,2.8777,2.7665,2.6575,2.5422,0.0,0.0,0.0,0.0,0.0,0.0,0.0,0.0,0.0,0.0,0.0,0.0,0.0,0.0,0.0,0.0,0.0,0.0,0.0,0.0,0.0,0.0,0.0,0.0,0.0,0.0,0.0,0.0,0.0,0.0,0.0,0.0,0.0,0.0,0.0,0.0,0.0,0.0,0.0,0.0,0.0,0.0,0.0,0.0,0.0,0.0,0.0,0.0,0.0,0.0,0.0,0.0,0.0,0.0,0.0,0.0,0.0,0.0,0.0,0.0,0.0,0.0,0.0,0.0,0.0,0.0,0.0,0.0,0.0,0.0,0.0,0.0,0.0,0.0,0.0,0.0,0.0,0.0,0.0,0.0,0.0,0.0,0.0,0.0,0.0,0.0,0.0,0.0,0.0,0.0,0.0,0.0,0.0,0.0,0.0,0.0,0.0,0.0,0.0,0.0,0.0,0.0,2.9804,3.0256,3.0407,2.9854,3.0281,2.9896,2.8211,2.7096,2.6005,0.0,0.0,0.0,0.0,0.0,0.0,0.0,0.0,0.0,0.0,0.0,0.0,0.0,0.0,0.0,0.0,0.0,0.0,0.0,0.0,0.0,0.0,0.0,0.0,0.0,0.0,0.0,0.0,0.0,0.0,0.0,0.0,0.0,0.0,0.0,0.0,0.0,0.0,0.0,0.0,0.0,0.0,0.0,0.0,0.0,0.0,0.0,0.0,0.0,0.0,0.0,0.0,0.0,0.0,0.0,0.0,0.0,0.0,0.0,0.0,0.0,0.0,0.0,0.0,0.0,0.0,0.0,0.0,0.0,0.0,0.0,0.0,0.0,0.0,0.0,0.0,0.0,0.0,0.0,0.0,0.0,0.0,0.0,0.0,0.0,0.0,0.0,0.0,0.0,0.0,0.0,0.0,0.0,0.0,0.0,0.0,0.0,0.0,0.0,0.0,0.0,0.0,0.0,2.9804,2.993,2.998,2.9804,2.993,2.9199,2.7139,2.6689,2.5673,2.3714,0.0,0.0,0.0,0.0,0.0,0.0,0.0,0.0,0.0,0.0,0.0,0.0,0.0,0.0,0.0,0.0,0.0,0.0,0.0,0.0,0.0,0.0,0.0,0.0,0.0,0.0,0.0,0.0,0.0,0.0,0.0,0.0,0.0,0.0,0.0,0.0,0.0,0.0,0.0,0.0,0.0,0.0,0.0,0.0,0.0,0.0,0.0,0.0,0.0,0.0,0.0,0.0,0.0,0.0,0.0,0.0,0.0,0.0,0.0,0.0,0.0,0.0,0.0,0.0,0.0,0.0,0.0,0.0,0.0,0.0,0.0,0.0,0.0,0.0,0.0,0.0,0.0,0.0,0.0,0.0,0.0,0.0,0.0,0.0,0.0,0.0,0.0,0.0,0.0,0.0,0.0,0.0,0.0,0.0,0.0,0.0,0.0,0.0,0.0,0.0,0.0,0.0,2.9804,2.9804,2.9624,2.9165,2.9126,2.8227,2.6005,2.5818,2.4978,2.2977,0.0,0.0,0.0,0.0,0.0,0.0,0.0,0.0,0.0,0.0,0.0,0.0,0.0,0.0,0.0,0.0,0.0,0.0,0.0,0.0,0.0,0.0,0.0,0.0,0.0,0.0,0.0,0.0,0.0,0.0,0.0,0.0,0.0,0.0,0.0,0.0,0.0,0.0,0.0,0.0,0.0,0.0,0.0,0.0,0.0,0.0,0.0,0.0,0.0,0.0,0.0,0.0,0.0,0.0,0.0,0.0,0.0,0.0,0.0,0.0,0.0,0.0,0.0,0.0,0.0,0.0,0.0,0.0,0.0,0.0,0.0,0.0,0.0,0.0,0.0,0.0,0.0,0.0,0.0,0.0,0.0,0.0,0.0,0.0,0.0,0.0,0.0,0.0,0.0,0.0,0.0,0.0,0.0,0.0,0.0,0.0,0.0,0.0,0.0,0.0,0.0,0.0,2.9804,2.9702,2.9268,2.8227,2.8004,2.7116,2.4978,2.4808,2.4174,2.2662,0.0,0.0,0.0,0.0,0.0,0.0,0.0,0.0,0.0,0.0,0.0,0.0,0.0,0.0,0.0,0.0,0.0,0.0,0.0,0.0,0.0,0.0,0.0,0.0,0.0,0.0,0.0,0.0,0.0,0.0,0.0,0.0,0.0,0.0,0.0,0.0,0.0,0.0,0.0,0.0,0.0,0.0,0.0,0.0,0.0,0.0,0.0,0.0,0.0,0.0,0.0,0.0,0.0,0.0,0.0,0.0,0.0,0.0,0.0,0.0,3.0,2.932,0.0,0.0,0.0,0.0,0.0,0.0,0.0,0.0,0.0,0.0,0.0,0.0,0.0,0.0,0.0,0.0,0.0,0.0,0.0,0.0,0.0,0.0,0.0,0.0,0.0,0.0,0.0,0.0,0.0,0.0,0.0,0.0,0.0,0.0,0.0,0.0,0.0,0.0,0.0,0.0,2.9804,2.9028,2.8367,2.8124,2.734,2.6295,2.4914,2.4808,2.4276,2.3051,2.2752,0.0,0.0,0.0,0.0,0.0,0.0,0.0,0.0,0.0,0.0,0.0,0.0,0.0,0.0,0.0,0.0,0.0,0.0,0.0,0.0,0.0,0.0,0.0,0.0,0.0,0.0,0.0,0.0,0.0,0.0,0.0,0.0,0.0,0.0,0.0,0.0,0.0,0.0,0.0,0.0,0.0,0.0,0.0,0.0,0.0,0.0,0.0,0.0,0.0,0.0,0.0,0.0,0.0,0.0,0.0,0.0,0.0,0.0,0.0,2.9514,2.9169,0.0,0.0,0.0,0.0,0.0,0.0,0.0,0.0,0.0,0.0,0.0,0.0,0.0,0.0,0.0,0.0,0.0,0.0,0.0,0.0,0.0,0.0,0.0,0.0,0.0,0.0,0.0,0.0,0.0,0.0,0.0,0.0,0.0,0.0,0.0,0.0,0.0,0.0,0.0,0.0,2.9804,2.8806,2.7904,2.738,2.6337,2.521,2.4082,2.3994,2.3655,2.2852,2.2791,0.0,0.0,0.0,0.0,0.0,0.0,0.0,0.0,0.0,0.0,0.0,0.0,0.0,0.0,0.0,0.0,0.0,0.0,0.0,0.0,0.0,0.0,0.0,0.0,0.0,0.0,0.0,0.0,0.0,0.0,0.0,0.0,0.0,0.0,0.0,0.0,0.0,0.0,0.0,0.0,0.0,0.0,0.0,0.0,0.0,0.0,0.0,0.0,0.0,0.0,0.0,0.0,0.0,3.0558,3.0795,3.0419,3.0485,3.0652,3.0784,2.9177,2.9171,3.015,2.8433,0.0,0.0,0.0,0.0,0.0,0.0,0.0,0.0,0.0,0.0,0.0,0.0,0.0,0.0,0.0,0.0,0.0,0.0,0.0,0.0,0.0,0.0,2.7042,2.7759,2.7932,2.7629,2.6583,0.0,0.0,0.0,0.0,0.0,0.0,0.0,0.0,0.0,0.0,0.0,2.9546,2.853,2.74,2.6316,2.5168,2.4125,2.3169,2.3101,2.2967,2.2615,2.2849,2.2732,0.0,0.0,0.0,0.0,0.0,0.0,0.0,0.0,0.0,0.0,0.0,0.0,0.0,0.0,0.0,0.0,0.0,0.0,0.0,0.0,0.0,0.0,0.0,0.0,0.0,0.0,0.0,0.0,0.0,0.0,0.0,0.0,2.5601,2.5996,0.0,0.0,0.0,0.0,0.0,0.0,0.0,0.0,0.0,0.0,0.0,0.0,0.0,2.8081,2.8694,3.0703,3.0914,2.9396,3.2346,3.2787,3.0906,3.128,3.2061,3.2997,3.0093,0.0,2.9699,2.8476,0.0,0.0,0.0,0.0,0.0,0.0,0.0,0.0,0.0,0.0,0.0,0.0,0.0,0.0,0.0,0.0,0.0,0.0,0.0,0.0,0.0,0.0,2.592,2.604,2.6059,2.602,2.5841,2.6792,2.7304,2.6022,2.7113,2.7356,0.0,0.0,0.0,0.0,0.0,0.0,2.8446,2.738,2.6275,2.5147,2.4016,2.3256,2.3123,2.3101,2.3081,2.3023,2.2752,2.2693,2.2947,2.1873,0.0,0.0,0.0,0.0,0.0,0.0,0.0,0.0,0.0,0.0,0.0,0.0,0.0,0.0,0.0,0.0,0.0,0.0,0.0,0.0,0.0,0.0,0.0,0.0,0.0,0.0,0.0,0.0,0.0,2.5362,2.6127,2.5722,2.5844,2.5568,0.0,0.0,0.0,0.0,0.0,0.0,0.0,0.0,0.0,2.8436,2.8977,2.9775,3.0924,3.1726,3.1705,3.095,3.2432,3.2596,3.1655,3.1566,3.1869,3.2339,3.0716,3.0015,2.9861,2.842,2.7756,2.7545,0.0,0.0,0.0,0.0,2.6706,2.7338,2.7729,2.8537,2.9253,2.847,0.0,0.0,0.0,0.0,0.0,0.0,0.0,2.5538,2.5534,2.582,2.623,2.6699,2.6816,2.6816,2.6816,2.6903,2.6788,2.6243,2.6777,2.6889,2.5572,2.6785,0.0,0.0,0.0,2.7767,2.7258,2.6233,2.5357,2.4851,2.3779,2.3101,2.3101,2.3101,2.3101,2.3101,2.2925,2.281,2.2771,2.2438,2.2107,0.0,0.0,0.0,0.0,0.0,0.0,0.0,0.0,0.0,0.0,0.0,0.0,0.0,0.0,0.0,0.0,0.0,0.0,0.0,0.0,0.0,0.0,0.0,0.0,0.0,0.0,0.0,0.0,2.605,2.679,2.5864,2.6754,2.6745,0.0,0.0,0.0,0.0,0.0,0.0,2.7793,2.8144,2.9111,3.0731,3.0937,3.1681,3.3044,3.2792,3.2687,3.2687,3.2687,3.257,3.2355,3.1992,3.1689,3.1474,3.1074,3.0703,3.0254,2.8797,2.7858,2.7285,2.6615,2.6303,2.6245,2.6602,2.7307,2.8103,2.8407,2.9073,2.9547,2.822,2.7831,2.7502,2.5516,0.0,0.0,0.0,0.0,2.561,2.6348,2.6621,2.692,2.7682,2.7858,2.7819,2.7721,2.7096,2.6517,2.6465,2.6413,2.6343,2.6282,2.6399,0.0,2.6109,2.6318,2.64,2.6088,2.5315,2.4681,2.4403,2.3865,2.343,2.3123,2.3365,2.3408,2.3123,2.3101,2.2986,2.2654,2.2849,2.2557,2.1697,0.0,0.0,0.0,0.0,0.0,0.0,0.0,0.0,0.0,0.0,0.0,0.0,0.0,0.0,0.0,0.0,0.0,0.0,0.0,0.0,0.0,0.0,0.0,0.0,0.0,0.0,0.0,0.0,0.0,2.7604,2.8694,0.0,0.0,0.0,0.0,2.7526,2.7604,2.8347,2.9941,3.005,3.0859,3.2592,3.3039,3.3489,3.4034,3.4009,3.3997,3.3997,3.3997,3.3586,3.2754,3.2734,3.2285,3.1474,3.1074,3.0879,3.0781,2.9891,2.9012,2.8223,2.8184,2.7956,2.7604,2.7624,2.7676,2.7728,2.7747,2.7518,2.7308,2.8042,2.8433,2.8351,2.6779,2.6738,0.0,0.0,2.5996,2.6426,2.6875,2.7285,2.7741,2.8191,2.8262,2.8171,2.778,2.7305,2.6738,2.5908,2.5594,2.5146,2.4148,0.0,2.613,2.5041,2.5797,2.6109,2.502,2.483,2.4403,2.3299,2.4103,2.4275,2.321,2.4082,2.4253,2.3169,2.3101,2.3081,2.3062,2.2732,2.2674,2.2984,2.2285,0.0,0.0,0.0,0.0,0.0,0.0,0.0,0.0,0.0,0.0,0.0,0.0,0.0,0.0,0.0,0.0,0.0,0.0,0.0,0.0,0.0,0.0,0.0,0.0,0.0,0.0,0.0,0.0,2.8894,2.9833,0.0,2.9012,2.9285,2.957,2.9755,3.0537,3.1348,3.2226,3.2781,3.3398,3.4004,3.5,3.5586,3.5776,3.5469,3.5332,3.5312,3.4746,3.4212,3.3645,3.332,3.2734,3.1914,3.1484,3.1133,3.0859,3.0547,3.0059,2.9492,2.9246,2.9051,2.8914,2.8914,2.8914,2.8875,2.8574,2.8359,2.8203,2.7995,2.7765,2.7486,2.6963,2.6937,2.7127,2.7021,2.7115,2.733,2.7734,2.7949,2.8132,2.8262,2.8301,2.8184,2.778,2.7324,2.6836,2.6269,2.5646,2.5076,2.4702,2.4703,2.4617,2.4221,2.4242,2.4425,2.4766,2.4808,2.4638,2.4232,2.4553,2.4339,2.319,2.3474,2.3519,2.3144,2.3101,2.3101,2.3101,2.2945,2.283,2.2713,2.242,2.2285,0.0,0.0,0.0,0.0,0.0,0.0,0.0,0.0,0.0,0.0,0.0,0.0,0.0,0.0,0.0,0.0,0.0,0.0,0.0,0.0,0.0,0.0,0.0,0.0,0.0,2.8418,2.9687,3.0009,3.1201,3.168,3.0937,3.1573,3.209,3.2383,3.3203,3.3926,3.4492,3.5059,3.543,3.5566,3.6562,3.709,3.709,3.6816,3.6547,3.6445,3.5703,3.498,3.431,3.3848,3.3184,3.2394,3.1914,3.1504,3.1094,3.1094,3.084,3.041,3.0146,2.995,2.9813,2.9813,2.9715,2.952,2.8906,2.8809,2.8801,2.8262,2.7793,2.748,2.7591,2.763,2.7715,2.8034,2.8086,2.8171,2.8437,2.8398,2.8301,2.8301,2.8301,2.8184,2.778,2.7467,2.707,2.6504,2.5688,2.5082,2.5082,2.4496,2.4004,2.4004,2.361,2.3736,2.4867,2.4892,2.4808,2.4808,2.5147,2.4766,2.3212,2.3452,2.3517,2.3123,2.3101,2.3101,2.3101,2.3101,2.2964,2.2713,2.2174,2.1883,2.1883,0.0,0.0,0.0,0.0,0.0,0.0,0.0,0.0,0.0,0.0,0.0,0.0,0.0,0.0,0.0,0.0,0.0,0.0,0.0,0.0,0.0,0.0,0.0,2.7936,2.9657,3.0996,3.1055,3.2922,3.3984,3.3555,3.3926,3.4564,3.5391,3.5469,3.584,3.6714,3.6773,3.6968,3.7324,3.7734,3.7913,3.7913,3.7894,3.7715,3.7285,3.691,3.603,3.4707,3.431,3.3633,3.2793,3.2394,3.1964,3.1494,3.1494,3.1269,3.0898,3.0898,3.0605,3.0215,3.0215,2.9989,2.95,2.866,2.8594,2.8918,2.8898,2.8652,2.8398,2.8781,2.8918,2.8918,2.8898,2.8898,2.8879,2.8879,2.8594,2.8301,2.8301,2.8301,2.8184,2.778,2.7702,2.7448,2.6607,2.5727,2.5145,2.5121,2.4727,2.441,2.441,2.4082,0.0,2.5281,2.5059,2.4808,2.4829,2.582,2.5568,2.3297,2.4124,2.4295,2.3169,2.3101,2.3101,2.3101,2.3057,2.3016,2.2972,2.1466,2.0659,2.0659,0.0,0.0,0.0,0.0,0.0,0.0,0.0,0.0,0.0,0.0,0.0,0.0,0.0,0.0,0.0,0.0,0.0,0.0,0.0,0.0,0.0,2.9473,3.0723,3.0488,3.2031,3.3555,3.4492,3.541,3.5932,3.5815,3.6152,3.6523,3.6758,3.7051,3.7461,3.8063,3.834,3.8418,3.8223,3.8633,3.8711,3.8398,3.8086,3.7715,3.7285,3.691,3.6186,3.5176,3.4726,3.4062,3.3191,3.2812,3.2207,3.1494,3.1494,3.1269,3.0898,3.0898,3.082,3.0703,3.0703,3.041,2.9941,2.9442,2.9324,2.9336,2.9023,2.9062,2.9266,2.9355,2.9422,2.9336,2.9004,2.8898,2.882,2.8535,2.8379,2.8301,2.8301,2.8301,2.8184,2.778,2.7702,2.7526,2.6953,2.6406,2.5918,2.5581,2.5176,2.4906,2.4906,2.4512,2.4649,2.5759,2.5518,2.5372,2.5707,2.5719,2.5116,2.3725,2.3883,2.3789,2.3142,2.3101,2.3101,2.3101,2.2252,2.1369,2.0517,2.0053,1.9844,0.0,0.0,0.0,0.0,0.0,0.0,0.0,0.0,0.0,0.0,0.0,0.0,0.0,0.0,0.0,0.0,0.0,0.0,0.0,0.0,0.0,0.0,3.1836,3.3398,3.4069,3.4746,3.5678,3.6934,3.7305,3.7653,3.8024,3.8066,3.8184,3.8379,3.8613,3.8867,3.9121,3.9355,3.9375,3.9141,3.9375,3.9277,3.8848,3.8594,3.8164,3.7559,3.7129,3.6484,3.5644,3.5195,3.4512,3.3691,3.3437,3.2851,3.2031,3.1855,3.1543,3.1133,0.0,0.0,0.0,0.0,3.0547,3.041,2.9813,2.9715,2.9813,2.9531,2.9512,2.9637,2.9813,2.9852,2.9785,2.9531,2.9453,2.9394,2.916,2.8965,2.8855,2.8855,2.8691,2.8496,2.8242,2.8073,2.7819,2.7363,2.709,0.0,2.6323,2.5762,2.5352,2.5352,2.498,2.5086,2.6214,2.5977,2.5788,2.606,2.5851,2.5178,2.3921,2.3789,0.0,0.0,0.0,2.212,2.161,2.0921,0.0,0.0,0.0,1.8972,1.9091,1.871,0.0,0.0,1.942,1.9945,0.0,0.0,0.0,0.0,0.0,0.0,0.0,0.0,0.0,0.0,0.0,0.0,0.0,0.0,0.0,0.0,3.4473,3.6191,3.7874,3.7539,3.7535,3.863,3.8767,3.9043,3.9824,3.9512,3.9473,3.9922,3.9961,3.998,4.0039,4.0039,0.0,0.0,0.0,3.9746,3.9277,3.9238,3.8789,3.7952,3.7578,3.6953,3.6118,3.5684,3.5039,3.431,3.4173,3.3645,3.2832,3.2452,3.2022,3.1543,3.1074,3.0898,3.084,3.043,3.0527,3.0762,2.995,0.0,0.0,3.0215,2.998,2.9813,3.0156,3.0273,3.0273,3.0215,3.0195,3.0176,3.0137,2.9872,2.9598,2.9598,2.9277,2.8957,2.8898,2.8633,2.8242,2.7839,2.7721,2.7565,2.7148,2.6401,2.5854,2.5854,2.5508,2.5575,2.6542,2.6273,2.6005,2.6044,2.6003,0.0,2.4055,2.379,2.3506,2.3036,2.1872,2.0661,1.9428,1.9382,1.9453,1.9597,1.8531,1.813,1.8389,1.7622,1.7259,1.7338,1.8914,1.9926,0.0,0.0,0.0,0.0,0.0,0.0,0.0,0.0,0.0,0.0,0.0,0.0,0.0,0.0,0.0,3.4023,3.5801,3.7539,3.9277,3.9668,3.9746,3.9648,3.9648,3.9707,3.9883,3.9824,3.9941,4.0371,4.0372,4.0566,4.0937,4.0957,4.0762,4.041,4.0372,4.0195,3.9766,3.9394,3.8945,3.8437,3.8008,0.0,3.7031,3.625,3.5801,3.5586,3.4564,3.3769,3.323,3.2851,3.2452,3.2003,3.1191,3.0898,3.0879,3.0801,3.082,3.082,3.0273,3.0371,3.0703,3.0312,3.0391,3.0644,3.0723,3.0762,0.0,3.0293,3.0195,3.0117,2.9813,2.9657,2.9598,2.9598,2.954,2.9383,2.8976,2.882,2.8672,2.8262,2.7917,2.7663,2.7585,2.7109,2.6732,2.6732,2.6406,2.6231,2.6433,2.5789,2.5433,2.5741,2.5488,2.5184,2.4871,2.3819,2.2994,2.2569,2.1296,1.9997,1.8753,1.8704,1.839,1.7739,1.75,1.7498,1.7773,1.7592,1.7622,1.7836,1.7972,1.8121,0.0,0.0,0.0,0.0,0.0,0.0,0.0,0.0,0.0,0.0,0.0,3.0547,3.1651,0.0,3.4726,3.6641,3.7871,3.9062,4.0351,4.0723,4.0762,4.0566,4.0527,4.0527,4.0527,4.0527,4.0625,4.084,4.084,4.0937,4.1211,4.1211,4.1074,4.0859,4.084,4.0644,4.0215,3.998,3.9648,3.9238,3.8574,3.8144,3.791,3.7051,3.6426,3.5942,3.5332,3.4668,3.4004,3.3379,3.2871,3.2452,3.1807,3.1553,3.1504,3.1289,3.1348,3.1494,3.1016,3.1016,3.1133,3.0684,3.0703,3.0898,3.0898,3.0898,3.084,3.0605,3.0547,3.0488,3.0293,3.0263,3.0263,3.0263,3.0087,2.9852,2.9609,2.9394,2.918,2.8992,2.8594,2.8301,2.8301,2.793,2.75,2.709,2.6836,2.6621,2.6426,2.6216,2.6055,2.603,2.6055,2.5667,2.4682,2.2937,2.1479,2.0506,1.9971,1.9143,1.7899,1.7989,1.792,1.7622,1.7595,1.7742,1.8036,1.8183,1.841,1.8719,1.9528,1.9389,0.0,0.0,0.0,0.0,0.0,0.0,0.0,2.8998,2.9531,3.0801,3.1777,3.2832,3.4349,3.5644,3.7129,3.9023,3.9726,4.0312,4.1172,4.1328,4.1367,4.1406,4.1308,4.1211,4.1211,4.1211,4.1211,4.1211,4.1211,4.1211,4.1211,4.1211,4.1211,4.1211,4.1211,4.0996,4.0644,4.0566,4.0351,4.0019,3.9219,3.8828,3.8845,3.8027,3.7246,3.6504,3.625,3.5703,3.4902,3.4121,3.3613,3.3262,3.2765,3.2628,3.2609,3.1894,3.1875,3.2159,3.1758,3.1641,3.1582,3.125,3.1133,3.1162,3.1035,3.1016,3.0996,3.0918,3.0898,3.0898,3.0898,3.0898,3.0898,3.0898,3.0605,3.0312,3.0215,2.995,2.9696,2.9618,2.9219,2.8898,2.8898,2.8574,2.8066,2.7363,2.7187,2.7012,2.668,2.6855,2.6773,2.6147,2.6391,2.5694,2.3582,2.1758,2.0109,1.8582,1.8738,1.8485,1.7486,1.7662,1.7903,1.8155,1.8169,1.8369,1.8744,1.8918,1.9358,2.0088,2.1525,2.1263,2.321,2.2993,2.3326,2.4449,2.5932,2.7759,0.0,3.1438,3.2656,3.3926,3.4902,3.5684,3.6304,3.7457,3.8633,3.9648,4.0176,4.0742,4.1601,4.1738,4.1875,4.2206,4.1621,4.1211,4.1211,4.1211,4.1211,4.1211,4.1211,4.1211,4.1211,4.1211,4.1211,4.1211,4.1211,4.1191,4.1094,4.0723,4.0469,4.0449,3.998,3.9746,3.9726,3.9219,3.873,3.8259,3.7125,3.6328,3.584,3.5371,3.5137,3.5019,3.4212,3.4114,3.4219,3.2707,3.2159,3.2198,3.214,3.212,3.212,3.2081,3.2061,3.1983,3.1562,3.1416,3.1367,3.0996,3.0898,3.0898,3.0898,3.0898,3.0898,3.0898,3.0859,3.0703,3.0293,3.0156,3.0048,2.9676,2.9219,2.8898,2.8898,2.8574,2.8262,2.8164,2.7858,2.7604,2.7545,2.7226,2.6487,2.513,2.5037,2.3922,2.1133,2.0668,1.9949,1.8591,1.8536,1.8495,1.8371,1.837,1.8531,1.8796,1.8796,1.9076,1.9653,1.9455,2.0376,2.2334,2.2257,2.1465,2.2105,2.2602,2.3481,2.4039,2.6837,2.9874,3.1345,3.3223,3.5039,3.6309,3.707,3.7715,3.8418,3.918,3.9902,4.0547,4.0996,4.1387,4.1758,4.2012,4.2109,4.207,4.1758,4.1543,4.1543,4.1348,4.1211,4.1211,4.1406,4.1426,4.123,4.1641,4.168,4.123,4.1406,4.1465,4.1211,4.0996,4.0898,4.0898,4.0469,4.0254,4.0234,3.9805,3.9238,3.8571,3.7734,3.7148,3.6719,3.6035,3.5762,3.5664,3.4785,3.4551,3.459,3.3665,3.3469,3.3574,3.3066,3.2891,3.2812,3.2355,3.2198,3.2159,3.1983,3.1894,3.1816,3.1367,3.1445,3.1553,3.1016,3.1074,3.1191,3.0957,3.0898,3.084,3.0644,3.0605,3.0547,3.04,2.998,2.9668,2.9668,2.9316,2.907,2.907,2.8484,2.7976,2.7721,2.7715,2.7182,2.5719,2.3986,2.2375,2.0981,2.0056,1.9264,1.8559,1.8651,1.8744,1.8744,1.8905,1.908,1.9185,1.9185,1.9386,1.98,2.0637,2.1701,2.2992,2.4737,2.4867,2.1309,2.2229,2.3493,2.4443,2.7579,3.0926,3.2858,3.4715,3.6463,3.8098,3.8809,3.9316,3.9961,4.0508,4.0976,4.1289,4.1797,4.2148,4.2148,4.2519,4.2617,4.2207,4.2051,4.1973,4.1973,4.1484,4.1308,4.1504,4.1699,4.1719,4.1523,4.209,4.2148,4.1543,4.1816,4.1836,4.1523,4.1523,4.1504,4.1348,4.1016,4.082,4.0684,4.0254,3.9726,3.9082,3.8516,3.8105,3.7754,3.6777,3.6367,3.6289,3.541,3.5059,3.5019,3.4726,3.4648,3.459,3.3848,3.3594,3.3476,3.2754,3.2519,3.2531,3.2413,3.2374,3.2276,3.1816,3.1934,3.2022,3.125,3.1387,3.1562,3.1016,3.0976,3.1035,3.0918,3.0898,3.0898,3.0898,3.0508,3.0195,3.0195,2.9872,2.9598,2.9598,2.8666,2.7836,2.7462,2.6906,2.6153,2.5086,2.2723,2.1075,2.0785,1.9815,1.909,1.8758,1.9078,1.9223,1.9143,1.9452,1.9599,1.9599,1.9599,1.9983,2.0715,2.1803,2.2868,2.3946,2.6249,2.6831,2.1422,2.2016,2.3173,2.614,2.7704,2.9766,3.467,3.5917,3.6712,3.9313,4.0176,4.043,4.0469,4.1191,4.1758,4.1777,4.25,4.3087,4.3087,4.3398,4.3516,4.3127,4.2656,4.2362,4.2362,4.166,4.1504,4.2284,4.2031,4.1973,4.2323,4.2382,4.2382,4.2343,4.2402,4.2362,4.2343,4.2343,4.2187,4.1777,4.1758,4.1543,4.1172,4.0703,4.0488,4.0372,3.9531,3.916,3.9043,3.7773,3.7266,3.7168,3.6309,3.5942,3.5942,3.5942,3.543,3.4629,3.4231,3.4095,3.4016,3.3535,3.3347,3.3269,3.2891,3.2773,3.2695,3.2296,3.2179,3.2101,3.1621,3.1816,3.1964,3.1094,3.1211,3.1357,3.0976,3.0898,3.0898,3.0898,3.0508,3.0195,3.0195,2.9872,2.9598,2.9598,2.8173,2.7045,2.6761,2.4077,2.2165,2.2136,2.0986,2.011,1.9859,2.0027,1.9947,1.9401,1.988,2.0037,1.9786,2.0024,2.0184,2.0184,2.0184,2.1124,2.299,2.2797,2.3803,2.5921,2.5678,2.5711,2.4039,2.4218,2.4939,2.9507,3.1324,3.2868,3.6213,3.8265,3.9682,4.0588,4.0625,4.043,4.0156,4.0566,4.1055,4.1328,4.2384,4.3281,4.3867,4.4316,4.4199,4.3244,4.3203,4.2949,4.209,4.1758,4.1816,4.2343,4.2832,4.3008,4.2871,4.3418,4.3457,4.2871,4.2851,4.2715,4.2382,4.2382,4.2207,4.1797,4.1523,4.1348,4.1211,4.1016,4.0801,4.0488,3.9902,3.9492,3.9121,3.8125,3.7715,3.7656,3.709,3.6875,3.6836,3.6562,3.6269,3.5898,3.5195,3.4941,3.4883,3.4414,3.4082,3.3828,3.3723,3.3437,3.3125,3.2695,3.2793,3.2832,3.2129,3.2266,3.2363,3.1504,3.1406,3.1406,3.0976,3.0898,3.0898,3.0898,3.0762,3.0664,3.0664,3.0547,3.0084,2.8984,2.7838,2.7086,2.697,2.5192,2.393,2.393,2.269,2.1378,2.0184,2.0144,2.0117,1.996,2.009,2.0157,2.0064,2.0157,2.0197,2.0197,2.13,2.1744,2.1519,2.3549,2.4503,2.4409,2.5398,2.5883,2.6253,2.723,2.8626,3.3023,3.4203,3.518,3.8328,3.9647,4.0446,4.123,4.082,4.0156,3.9726,4.0137,4.0566,4.0703,4.209,4.3379,4.4277,4.4629,4.4492,4.3652,4.3789,4.3574,4.2578,4.2637,4.2715,4.2656,4.3457,4.3828,4.3574,4.4238,4.4355,4.3789,4.3769,4.3574,4.3125,4.2969,4.2519,4.1797,4.1367,4.1211,4.1211,4.1211,4.1016,4.0723,4.0312,3.9863,3.9375,3.8516,3.8066,3.7855,3.7461,3.7305,3.7266,3.6992,3.6894,3.6792,3.5742,3.5391,3.5312,3.4844,3.4512,3.429,3.4153,3.3887,3.3574,3.3144,3.3203,3.3262,3.2609,3.2695,3.2812,3.1953,3.1855,3.1816,3.125,3.123,3.1309,3.1152,3.0738,3.0398,3.0398,2.989,2.9064,2.789,2.7195,2.6542,2.5758,2.4343,2.3394,2.3394,2.263,2.1643,2.0493,2.045,2.0424,2.021,2.0397,2.0464,2.0401,2.0464,2.0517,2.0517,2.1563,2.1998,2.1748,2.381,2.4406,2.3636,2.4655,2.513,2.8118,3.0718,3.3703,3.6538,3.6375,3.6624,4.0866,4.0191,3.9255,4.1324,4.0646,3.9555,3.916,3.9749,4.0237,4.0019,4.1777,4.3496,4.4433,4.4551,4.4531,4.4473,4.4492,4.4316,4.3789,4.4219,4.416,4.3322,4.4004,4.4492,4.4473,4.4863,4.5035,4.5058,4.4996,4.4824,4.4433,4.3926,4.3047,4.1836,4.1387,4.1211,4.1211,4.1211,4.1211,4.1191,4.0703,4.0293,3.9863,3.9041,3.8379,3.7913,3.7559,3.7383,3.7363,3.7344,3.7324,3.7148,3.5898,3.5449,3.5391,3.4922,3.4746,3.4668,3.429,3.4134,3.4016,3.3574,3.3406,3.3289,3.293,3.3125,3.3223,3.2433,3.2531,3.2578,3.1738,3.1875,3.2051,3.1501,3.0302,2.9381,2.9381,2.7943,2.6659,2.6346,2.6218,2.5449,2.3505,2.1933,2.0943,2.085,2.1074,2.1083,2.0753,2.0949,2.0869,2.0277,2.0815,2.1002,2.0766,2.0989,2.1136,2.1136,2.1172,2.1978,2.3481,2.3574,2.3558,2.351,2.3496,2.3496,3.1066,3.3028,3.5379,3.955,3.9394,3.8924,4.1646,4.1555,4.0912,4.086,3.8766,3.7033,3.7287,3.7473,3.831,4.0511,4.293,4.5058,4.6562,4.6777,4.6426,4.5469,4.5898,4.5742,4.4355,4.5469,4.5937,4.5121,4.5508,4.5683,4.5371,4.5742,4.584,4.5527,4.5195,4.4938,4.4863,4.3789,4.291,4.2266,4.1523,4.1211,4.1211,4.1211,4.1211,4.1191,4.0703,4.043,4.0332,3.9785,3.9297,3.8867,3.875,3.8516,3.8239,3.7891,3.7773,3.7617,3.668,3.6382,3.6304,3.582,3.5469,3.5195,3.5098,3.4622,3.4075,3.3977,3.3672,3.3367,3.325,3.3308,3.325,3.2754,3.2715,3.2656,3.2109,3.212,3.1775,3.0291,2.8688,2.7565,2.7565,2.6168,2.5016,2.4924,2.3896,2.363,2.5098,2.4911,2.4193,2.299,2.2908,2.2438,2.1097,2.1069,2.1042,2.0895,2.1229,2.1435,2.1368,2.1435,2.1475,2.1475,2.2468,2.256,2.1727,2.2983,2.3083,2.2089,2.1868,2.1961,3.412,3.6389,3.854,4.1166,4.1193,4.0782,4.1423,4.1406,4.0879,3.9611,3.7845,3.6493,3.6409,3.7119,3.8386,4.0296,4.2773,4.5117,4.7031,4.7129,4.6894,4.6543,4.6933,4.6777,4.5625,4.6543,4.7012,4.6587,4.6738,4.668,4.625,4.6445,4.6465,4.623,4.5801,4.541,4.4996,4.3906,4.3144,4.2695,4.1855,4.1445,4.1445,4.1289,4.1211,4.1211,4.0918,4.0703,4.0469,4.0273,3.9902,3.9492,3.9277,3.9062,3.8789,3.8359,3.8203,3.8105,3.7441,3.709,3.6836,3.6211,3.5859,3.5625,3.5449,3.4902,3.4336,3.4336,3.4043,3.375,3.3926,3.3984,3.3926,3.3691,3.3633,3.3294,3.2011,3.191,3.129,2.8636,2.7245,2.6292,2.5665,2.5173,2.5128,2.5882,2.5073,2.4916,2.6297,2.5156,2.387,2.2838,2.2825,2.2528,2.1561,2.1496,2.1496,2.1496,2.1689,2.1783,2.1783,2.1783,2.1783,2.1783,2.253,2.2432,2.1496,2.2432,2.253,2.177,2.1577,2.167,3.6901,3.976,4.1953,4.1894,4.1988,4.171,4.0492,3.9913,3.9146,3.7441,3.6674,3.6185,3.5602,3.7126,3.8881,3.9962,4.2148,4.4512,4.6855,4.6816,4.6836,4.7578,4.7715,4.7578,4.7148,4.75,4.7754,4.7754,4.7754,4.7539,4.7051,4.7026,4.7006,4.6889,4.6582,4.5976,4.5117,4.4238,4.3574,4.3144,4.2285,4.1855,4.1797,4.1426,4.1269,4.1211,4.1211,4.0957,4.0567,4.0567,4.0351,3.9941,3.9531,3.9336,3.9238,3.8809,3.8689,3.8594,3.8086,3.7676,3.7246,3.6387,3.604,3.5923,3.5586,3.5156,3.4785,3.4785,3.4492,3.4271,3.4609,3.4523,3.4326,3.4326,3.411,3.3369,3.133,3.106,3.0242,2.7011,2.6037,2.5291,2.4034,2.4622,2.5787,2.7215,2.7192,2.6905,2.6617,2.4083,2.2146,2.1695,2.1863,2.1991,2.1991,2.1991,2.1991,2.1991,2.2017,2.2044,2.2044,2.2044,2.2044,2.2044,2.2004,2.1991,2.1991,2.1991,2.2031,2.2131,2.205,2.2104,3.813,4.0567,4.2773,4.2402,4.1284,4.0005,3.8911,3.6852,3.4697,3.3182,3.2063,3.1652,3.259,3.3939,3.6362,4.0744,4.2734,4.4824,4.8112,4.8144,4.793,4.8086,4.8418,4.8503,4.8027,4.8379,4.8679,4.8679,4.8679,4.8346,4.75,4.7793,4.7656,4.6909,4.6811,4.6406,4.5566,4.4707,4.4043,4.3594,4.2734,4.2129,4.1797,4.1719,4.1504,4.1211,4.1211,4.1133,4.1055,4.1055,4.0801,4.041,4.0332,4.0078,3.9726,3.9258,3.9101,3.8984,3.8203,3.7835,3.7676,3.6836,3.6309,3.5982,3.5937,3.5605,3.5273,3.5273,3.4941,3.4609,3.4687,3.3548,3.2399,3.2399,3.1155,2.9868,2.9461,2.8296,2.715,2.6524,2.5193,2.4091,2.3825,2.3958,2.4194,2.4476,2.4469,2.4317,2.4011,2.3975,2.3461,2.2075,2.1951,2.1991,2.1991,2.1991,2.1991,2.1991,2.2205,2.2338,2.2338,2.2338,2.2338,2.2338,2.2111,2.1991,2.1991,2.1991,2.2265,2.2733,2.2251,2.2512,4.0194,4.1946,4.3242,4.2557,4.0943,3.9037,3.716,3.4786,3.2384,3.0356,3.0583,3.135,3.1982,3.4086,3.6842,4.0276,4.207,4.4082,4.7109,4.7539,4.7793,4.8476,4.8776,4.8815,4.8574,4.8776,4.8913,4.8913,4.8913,4.8718,4.8307,4.8223,4.7812,4.6909,4.7148,4.6855,4.6016,4.5586,4.5058,4.4375,4.3516,4.2871,4.2461,4.2226,4.2012,4.1816,4.1601,4.1504,4.1484,4.1308,4.1093,4.084,4.0605,4.0391,4.0176,3.9726,3.9551,3.9492,3.9082,3.8652,3.8203,3.7793,3.7226,3.6641,3.6426,3.6055,3.5723,3.5723,3.5566,3.5449,3.5664,3.4443,3.3137,3.3102,3.0837,2.8696,2.8696,2.7245,2.591,2.591,2.5153,2.4539,2.4649,2.5198,2.5682,2.5816,2.5547,2.5314,2.5123,2.4517,2.372,2.2767,2.2819,2.2947,2.2947,2.2947,2.2947,2.2947,2.3046,2.3126,2.3126,2.3126,2.3126,2.3126,2.2993,2.2947,2.2947,2.2947,2.3094,2.3362,2.3081,2.3255,4.1337,4.2334,4.2633,4.1284,3.9373,3.7119,3.4561,3.225,2.996,2.7641,2.9344,3.1314,3.1474,3.4368,3.7441,3.9551,4.1016,4.291,4.5879,4.6582,4.7305,4.8737,4.8913,4.8913,4.8913,4.8913,4.8913,4.8913,4.8913,4.8913,4.8913,4.8535,4.7988,4.7182,4.7539,4.7305,4.6445,4.6348,4.5918,4.5156,4.4277,4.3633,4.3203,4.2754,4.2461,4.2226,4.1953,4.1758,4.1641,4.1348,4.1211,4.1172,4.0801,4.0664,4.0605,4.0195,4.0039,4.0019,3.9922,3.9434,3.8884,3.8787,3.8066,3.7226,3.6894,3.6266,3.5617,3.5651,3.5321,3.5067,3.5441,3.4305,3.2914,3.246,3.0013,2.7778,2.7778,2.6596,2.5518,2.5518,2.5331,2.5251,2.5478,2.629,2.6982,2.7221,2.6852,2.6518,2.6518,2.5155,2.4062,2.3785,2.3781,2.383,2.3897,2.3843,2.383,2.3897,2.3843,2.3803,2.3803,2.3803,2.3803,2.3803,2.3803,2.383,2.3897,2.383,2.391,2.4084,2.3964,2.4004,3.9821,3.9954,3.9934,3.7036,3.4692,3.2548,3.0276,2.7873,2.5667,2.4075,2.6329,2.876,2.9512,3.2558,3.6035,3.9355,4.0019,4.1582,4.5723,4.6328,4.6973,4.8698,4.8913,4.8913,4.8913,4.8913,4.8913,4.8913,4.8913,4.8913,4.8913,4.8874,4.8574,4.8105,4.8125,4.7734,4.6831,4.6484,4.6074,4.5648,4.4746,4.4082,4.3633,4.3203,4.2598,4.1855,4.1816,4.1582,4.1269,4.123,4.1211,4.1211,4.1133,4.1152,4.1055,4.0625,4.043,4.041,4.0019,3.9844,3.9707,3.9277,3.8301,3.7285,3.7246,3.5913,3.4378,3.4449,3.31,3.1666,3.1699,3.0314,2.8514,2.6733,2.6025,2.5772,2.5772,2.5619,2.5518,2.5518,2.5491,2.5478,2.5504,2.5579,2.5666,2.5693,2.5653,2.5612,2.5612,2.5471,2.5344,2.5317,2.4382,2.391,2.4142,2.3928,2.3888,2.4142,2.3915,2.3803,2.3803,2.3803,2.3803,2.3803,2.3803,2.3937,2.4168,2.3937,2.4218,2.4981,2.4409,2.4596,3.7536,3.8006,3.8186,3.6448,3.3945,3.1467,2.9621,2.7003,2.4639,2.3519,2.5057,2.7207,2.9316,3.1584,3.3864,3.6122,3.67,3.795,4.0949,4.1567,4.3145,4.6878,4.7324,4.7779,4.8796,4.8913,4.8913,4.8913,4.8913,4.8913,4.8913,4.8913,4.8698,4.8223,4.8457,4.8066,4.6889,4.7031,4.6601,4.5707,4.5332,4.4087,4.2012,4.1844,4.1472,4.0871,4.0611,4.0316,3.9965,3.9704,3.9421,3.9198,3.9198,4.0021,4.1191,4.0976,4.0918,4.0898,4.0723,3.9644,3.8283,3.8116,3.6503,3.4797,3.563,3.5284,3.4304,3.2857,3.2007,3.1593,3.1823,3.0611,2.8793,2.6765,2.6267,2.6346,2.6533,2.6573,2.6573,2.6573,2.6573,2.6573,2.6573,2.6573,2.6573,2.6573,2.6413,2.6267,2.6267,2.5999,2.5824,2.5824,2.5197,2.4863,2.4983,2.489,2.4877,2.4983,2.489,2.4823,2.4823,2.4823,2.4823,2.4823,2.4823,2.4877,2.4997,2.4877,2.4997,2.5331,2.5104,2.5184,3.4876,3.5521,3.5846,3.4533,3.2453,3.0287,2.8637,2.6438,2.4452,2.3492,2.4562,2.633,2.8627,3.0325,3.2046,3.3983,3.4667,3.5958,3.8792,3.956,4.1342,4.5433,4.5377,4.5863,4.8079,4.8679,4.857,4.7791,4.7744,4.74,4.6682,4.7353,4.7934,4.8398,4.8737,4.8301,4.7129,4.671,4.5929,4.4758,4.384,4.2221,4.0025,3.9796,3.9479,3.9109,3.9438,3.9057,3.8112,3.8392,3.8311,3.8018,3.795,3.9256,4.1211,4.1211,4.1211,4.1094,4.0431,3.903,3.7345,3.6591,3.4918,3.327,3.3479,3.3471,3.3051,3.1399,3.0709,3.0515,3.0763,2.9991,2.8753,2.731,2.6947,2.7014,2.7269,2.7309,2.7309,2.7309,2.7309,2.7309,2.7309,2.7309,2.7309,2.7309,2.7094,2.6947,2.6947,2.664,2.6386,2.6386,2.6159,2.5959,2.5785,2.5611,2.5585,2.5758,2.5611,2.5518,2.5518,2.5518,2.5518,2.5518,2.5518,2.5558,2.5638,2.5558,2.5598,2.5772,2.5678,2.5692,3.1925,3.2182,3.2396,3.0134,2.9088,2.8179,2.6439,2.5543,2.4743,2.3532,2.4732,2.6205,2.6883,2.8506,3.0761,3.3965,3.4849,3.6682,4.1132,4.2109,4.3026,4.4782,4.3122,4.3199,4.6595,4.8105,4.7837,4.522,4.5031,4.3927,4.1428,4.3689,4.6242,4.8801,4.8913,4.8483,4.7578,4.5156,4.3506,4.2577,3.9471,3.7948,3.7931,3.7161,3.6632,3.6354,3.8628,3.8042,3.5691,3.7684,3.8433,3.8276,3.8,3.9256,4.1211,4.1211,4.1211,4.088,3.8666,3.7935,3.7467,3.4861,3.4027,3.3506,3.1096,3.0141,2.9987,3.0236,2.8866,2.7336,2.7336,2.7336,2.7309,2.7309,2.7309,2.7309,2.7309,2.7309,2.7309,2.7309,2.7309,2.7309,2.7309,2.7309,2.7309,2.7309,2.7309,2.7309,2.7309,2.7296,2.7296,2.7296,2.7296,2.7055,2.6426,2.5852,2.5758,2.6346,2.5838,2.5518,2.5518,2.5518,2.5518,2.5518,2.5518,2.5651,2.5998,2.5651,2.5812,2.6373,2.6131,2.6145,2.7757,2.8215,2.8551,2.7821,2.7068,2.6293,2.5531,2.4793,2.4111,2.3701,2.3903,2.4827,2.6962,2.8731,2.9998,3.0527,3.1803,3.3024,3.3836,3.6114,3.8217,3.9564,4.2264,4.4397,4.5492,4.602,4.5173,4.2577,4.2386,4.2051,4.1235,4.1955,4.2768,4.3594,4.5332,4.5044,4.2504,4.1699,4.0906,4.013,3.9108,3.7656,3.5849,3.5587,3.5265,3.4881,3.5382,3.5055,3.4105,3.4476,3.4344,3.4007,3.5433,3.7191,3.9119,4.0646,4.0236,3.8843,3.8134,3.5943,3.3333,3.2488,3.1093,2.9567,2.9049,2.9475,2.9901,2.8623,2.7921,2.7509,2.7362,2.7456,2.7562,2.7562,2.7562,2.7657,2.7857,2.7911,2.7911,2.7911,2.7911,2.7911,2.7911,2.7911,2.7911,2.7911,2.7911,2.7911,2.7911,2.7724,2.7562,2.7562,2.7429,2.7229,2.7041,2.6854,2.6787,2.7015,2.6854,2.6707,2.6707,2.6707,2.6707,2.6707,2.6707,2.68,2.6894,2.68,2.6841,2.7028,2.6934,2.6948,2.5211,2.5972,2.652,2.6627,2.6079,2.5438,2.5144,2.4489,2.3928,2.3928,2.3781,2.4205,2.6046,2.7218,2.8053,2.847,2.9628,3.0716,3.1447,3.3694,3.5816,3.7348,4.0652,4.2883,4.3041,4.3379,4.2482,3.9932,3.9739,3.9318,3.8295,3.9221,3.9269,3.8295,4.1716,4.2455,4.0113,3.9174,3.8351,3.762,3.6574,3.5178,3.3478,3.341,3.3206,3.2959,3.3529,3.3234,0.0,3.2732,3.2605,3.2229,3.3385,3.5089,3.6995,3.8286,3.7874,3.6562,3.5742,3.3676,3.1283,3.0468,2.9161,2.7938,2.8125,2.8814,2.9234,2.8002,2.7764,2.7871,2.7684,2.7777,2.7911,2.7911,2.7911,2.7965,2.8138,2.8179,2.8179,2.8179,2.8179,2.8179,2.8179,2.8179,2.8179,2.8179,2.8179,2.8179,2.8179,2.8018,2.7911,2.7911,2.775,2.7643,2.7643,2.7429,2.7349,2.7415,2.7362,2.7309,2.7309,2.7309,2.7309,2.7309,2.7309,2.7309,2.7309,2.7309,2.7309,2.7309,2.7309,2.7309,0.0,2.5064,2.5837,2.6105,2.5745,2.5291,2.5024,2.4556,0.0,2.4168,2.4195,2.4302,2.4572,2.4723,2.5506,2.763,2.8327,2.9709,3.2715,3.401,3.5463,3.7843,3.869,3.9203,3.9541,4.0386,3.9836,3.7233,3.7036,3.5981,3.35,3.5684,3.5932,3.3464,3.8084,4.0298,3.955,3.7296,3.5744,3.4998,3.2481,3.1263,3.1249,3.0982,3.0849,3.0974,3.2777,3.2363,3.0523,3.2061,3.2598,3.2438,3.1985,3.3083,3.4859,3.4743,3.4611,3.4164,3.2093,3.1324,3.0827,2.8838,2.8179,2.8179,2.8179,2.8179,2.8179,2.8179,2.8179,2.8179,2.8179,2.8179,2.8179,2.8179,2.8179,2.8179,2.8179,2.8179,2.8179,2.8179,2.8179,2.8179,2.8179,2.8179,2.8179,2.8179,2.8179,2.8179,2.8179,2.8179,2.8179,2.8179,2.8179,2.8179,2.8179,2.7684,2.7483,2.7709,2.7523,2.7362,2.7362,2.7362,2.7362,2.7362,2.7362,2.7362,2.7362,2.7362,2.7362,2.7362,2.7362,2.7362,2.2211,0.0,2.3643,2.371,2.3768,2.3785,0.0,2.3808,2.391,2.391,2.4048,2.4356,2.4877,2.5976,2.6762,2.6516,2.7956,2.9003,2.8821,3.0522,3.3807,3.938,3.8687,3.7704,3.7588,3.7954,3.7134,3.4521,3.4336,3.4037,3.3414,3.3987,3.4037,3.3414,3.4399,3.4779,3.4397,3.3768,3.3188,3.2536,3.1867,3.157,3.1557,3.1537,3.151,3.1483,3.1503,3.118,3.0667,3.0431,3.0296,3.0359,3.1391,3.2137,3.2745,3.4172,3.3635,3.2093,3.1557,3.0343,2.888,2.8347,2.8179,2.8179,2.8179,2.8179,2.8179,2.8179,2.8179,2.8179,2.8179,2.8179,2.8179,2.8179,2.8179,2.8179,2.8179,2.8179,2.8179,2.8179,2.8179,2.8179,2.8179,2.8179,2.8179,2.8179,2.8179,2.8179,2.8179,2.8179,2.8179,2.8179,2.8179,2.8179,2.8179,2.8058,2.8005,2.8072,2.8018,2.7978,2.7978,2.7978,2.7978,2.7978,2.7978,2.7978,2.7978,2.7978,2.7978,2.7978,2.7978,2.7978,2.1381,2.2117,2.2893,2.2893,2.31,2.3332,2.35,2.3661,2.3843,2.3977,2.4102,2.4342,2.4796,2.5728,2.6243,2.5844,2.71,2.8211,2.8466,2.982,3.2832,3.8306,3.6807,3.5799,3.6979,3.6126,3.4919,3.3514,3.3414,3.3414,3.3414,3.3414,3.3414,3.3414,3.3133,3.2888,3.2594,3.246,3.2118,3.1711,3.1711,3.1711,3.1711,3.1711,3.1711,3.1684,3.1049,3.0795,3.0728,2.9993,2.9686,2.9766,3.0488,3.0752,3.0823,3.1616,3.1145,3.0098,2.9983,2.916,2.8179,2.8179,2.8179,2.8179,2.8179,2.8179,2.8179,2.8179,2.8179,2.8219,2.8366,2.8393,2.8393,2.8393,2.8393,2.8393,2.8393,2.8393,2.8433,2.8524,2.8551,2.8551,2.8551,2.8551,2.8551,2.8551,2.8444,2.8393,2.8393,2.8272,2.8179,2.8179,2.8179,2.8179,2.8179,2.8179,2.8179,2.8179,2.8179,2.8179,2.8179,2.8179,2.8179,2.8179,2.8179,2.8179,2.8179,2.8179,2.8179,2.8179,2.8179,2.8179,2.1216,2.2131,2.2987,2.2813,2.3033,2.3345,2.3616,2.3736,2.387,2.4088,2.4209,2.4382,2.4733,2.501,2.5277,2.5651,2.6453,2.7787,2.9953,3.0675,3.231,3.5866,3.4366,3.3984,3.6422,3.4692,3.3414,3.3414,3.3414,3.3414,3.3414,3.3414,3.3414,3.3414,3.3133,3.2888,3.2594,3.2251,3.1957,3.1711,3.1711,3.1711,3.1711,3.1711,3.1684,3.157,3.1036,3.0768,3.0675,3.0087,2.9873,2.9887,2.9553,2.9446,2.9419,2.8871,2.8644,2.8564,2.8286,2.8179,2.8179,2.8179,2.8179,2.8179,2.8179,2.8179,2.8192,2.8245,2.8219,2.8259,2.8524,2.8604,2.8617,2.8657,2.8671,2.8671,2.8671,2.8671,2.8751,2.8948,2.9001,2.9001,2.9001,2.9001,2.9001,2.9001,2.8831,2.8671,2.8671,2.8444,2.8326,2.8326,2.8326,2.8326,2.8326,2.8286,2.8259,2.8259,2.8205,2.8179,2.8179,2.8179,2.8179,2.8179,2.8179,2.8179,2.8179,2.8179,2.8179,2.8179,2.8179,2.8179,2.171,2.276,2.3429,2.2412,2.2726,2.3238,2.3081,2.3429,2.3817,2.387,2.4222,2.4773,2.565,2.5585,2.5705,2.6453,2.7589,2.9138,3.1436,3.1837,3.2302,3.347,3.3435,3.3403,3.3647,3.3502,3.3414,3.3414,3.3414,3.3414,3.3414,3.3414,3.3414,3.3414,3.3133,3.2888,3.2594,3.2251,3.1957,3.1711,3.1711,3.1711,3.1711,3.1711,3.153,3.1276,3.0942,3.0648,3.0426,2.9793,2.97,2.986,2.9268,2.9259,2.9446,2.9098,2.8775,2.8564,2.8286,2.8179,2.8179,2.8179,2.8179,2.8179,2.8179,2.8179,2.8232,2.8457,2.8393,2.8259,2.8524,2.8604,2.8671,2.8868,2.8935,2.8935,2.8935,2.8935,2.8948,2.8988,2.9001,2.9001,2.9001,2.9001,2.9001,2.9001,2.8961,2.8935,2.8935,2.8895,2.8855,2.8855,2.8855,2.8855,2.8855,2.8671,2.8537,2.8537,2.8326,2.8179,2.8179,2.8179,2.8179,2.8179,2.8179,2.8179,2.8179,2.8179,2.8179,2.8179,2.8179,2.8179,2.1716,2.2653,2.3434,2.3081,2.3861,2.4716,2.4606,2.4793,2.4941,2.4743,2.4917,2.5331,2.6091,2.6466,2.7188,2.8724,2.9432,3.0274,3.1677,3.1864,3.2144,3.2893,3.3093,3.3187,3.3213,3.3334,3.3414,3.3414,3.3414,3.3414,3.3414,3.3414,3.3414,3.3414,3.2973,3.2808,3.2835,3.2332,3.1957,3.1711,3.1711,3.1711,3.1711,3.1711,3.1503,3.1209,3.0915,3.0621,3.0373,2.99,2.9793,2.9887,2.9575,2.9593,2.9686,2.9392,2.9098,2.8818,2.8671,2.8631,2.8631,2.8631,2.8631,2.8631,2.8631,2.8631,2.8698,2.8991,2.8751,2.854,2.8965,2.9085,2.9112,2.9245,2.9285,2.9285,2.9285,2.9362,2.9522,2.9726,2.9753,2.9753,2.9753,2.9619,2.9468,2.9468,2.9379,2.9285,2.9285,2.9095,2.9001,2.9001,2.9001,2.9001,2.9001,2.8868,2.8698,2.8419,2.8259,2.8179,2.8179,2.8179,2.8179,2.8179,2.8179,2.8179,2.8179,2.8179,2.8179,2.8179,2.8179,2.8179,2.185,2.2672,2.3621,2.4031,2.4807,2.5596,2.5998,2.6051,2.6011,2.6012,2.6079,2.6266,2.676,2.7522,2.8698,3.0501,3.0969,3.133,3.1984,3.2078,3.2332,3.3,3.308,3.316,3.3387,3.3414,3.3414,3.3414,3.3414,3.3414,3.3414,3.3414,3.3414,3.3414,3.2969,3.2768,3.2929,3.2358,3.1984,3.177,3.177,3.1778,3.1711,3.1711,3.1503,3.1209,3.0915,3.0621,3.0386,3.0114,2.998,2.9927,2.9993,2.998,2.9887,2.9593,2.9339,2.9095,2.9028,2.9001,2.9001,2.9001,2.9001,2.9015,2.9081,2.9095,2.9219,2.9579,2.9366,2.9125,2.9566,2.9686,2.9757,2.978,2.974,2.9686,2.9686,2.986,3.0074,3.0266,3.0413,3.0467,3.0319,3.0127,2.9993,2.9927,2.9726,2.9579,2.9579,2.9379,2.9202,2.9202,2.9268,2.9282,2.9202,2.9202,2.8991,2.8433,2.8326,2.8286,2.8286,2.8219,2.8179,2.8179,2.8179,2.8179,2.8179,2.8179,2.8179,2.8179,2.8179,2.8179,2.2653,2.3469,2.4275,2.4836,2.4486,2.4392,2.5985,2.6185,2.6292,2.7321,2.7804,2.8005,2.8045,2.8794,2.9673,3.0635,3.1476,3.2305,3.316,3.328,3.3307,3.3374,3.3374,3.3387,3.3414,3.3414,3.3414,3.3414,3.3414,3.3414,3.3414,3.3414,3.3414,3.3414,3.3106,3.2875,3.2621,3.2265,3.2091,3.2064,3.2064,3.1931,3.1711,3.1711,3.1503,3.1209,3.0915,3.0621,3.04,3.0386,3.0167,2.994,3.0221,3.0154,2.9887,2.9593,2.9472,2.9419,2.9095,2.9001,2.9001,2.9001,2.9001,2.9041,2.9366,2.9446,2.9566,3.0186,3.0306,3.0293,3.0333,3.0346,3.0413,3.0635,3.0533,3.0346,3.0346,3.036,3.0293,2.9993,3.0394,3.0595,3.0047,3.0154,3.0279,2.9953,2.99,2.9887,2.9887,2.986,2.986,2.986,3.01,3.0154,2.9873,2.986,2.9562,2.8961,2.8724,2.8577,2.8577,2.8339,2.8179,2.8179,2.8179,2.8179,2.8179,2.8179,2.8179,2.8179,2.8179,2.8179,2.2472,2.338,2.4302,2.4703,2.497,2.5636,2.7362,2.7682,2.7883,2.8871,2.9312,2.957,2.957,3.01,3.0795,3.149,3.2185,3.2826,3.3334,3.3414,3.3414,3.3414,3.3414,3.3414,3.3414,3.3414,3.3414,3.3414,3.3414,3.3414,3.3414,3.3414,3.3414,3.3414,3.3009,3.2795,3.2862,3.2345,3.2104,3.2104,3.1917,3.1818,3.1711,3.1711,3.1503,3.1176,3.1116,3.0902,3.0635,3.0635,3.0568,3.0474,3.0581,3.0448,3.0181,3.0119,2.9913,2.974,2.9575,2.9535,2.9535,2.9535,2.9535,2.9633,2.994,3.0079,3.0199,3.0728,3.0902,3.0862,3.0675,3.0635,3.0662,3.0768,3.0614,3.0453,3.0595,3.0635,3.0648,3.0715,3.0915,3.0996,3.0768,3.0675,3.0528,3.0234,3.0341,3.0394,3.0221,3.0354,3.0461,3.0461,3.0555,3.0581,3.0474,3.0301,3.01,2.9873,2.9245,2.8828,2.8828,2.8764,2.8698,2.8698,2.8524,2.8524,2.8698,2.8524,2.8524,2.8698,2.8698,2.8698,2.2672,2.35,2.4436,2.4773,2.5438,2.6533,2.8551,2.8951,2.9205,3.0368,3.0474,3.044,3.052,3.0822,3.1276,3.1864,3.2612,3.3187,3.3387,3.3414,3.3414,3.3414,3.3414,3.3414,3.3414,3.3414,3.3414,3.3414,3.3414,3.3414,3.3414,3.3414,3.3374,3.328,3.2848,3.2648,3.2706,3.2211,3.1971,3.1957,3.1805,3.1711,3.1711,3.1711,3.1557,3.1356,3.1263,3.1116,3.0929,3.0929,3.0929,3.0902,3.0621,3.0448,3.04,3.0293,3.0087,2.9913,2.9913,2.9913,2.9927,3.002,3.006,3.0127,3.0515,3.0635,3.0742,3.1223,3.137,3.1316,3.1116,3.1076,3.1076,3.1076,3.0849,3.0688,3.0889,3.0929,3.0969,3.1062,3.1236,3.1303,3.1116,3.0996,3.0835,3.0587,3.0662,3.0715,3.0574,3.0675,3.0822,3.0915,3.0929,3.0929,3.0929,3.0742,3.0641,3.0547,2.9847,2.9379,2.9192,2.9041,2.9001,2.9001,2.8801,2.8801,2.9001,2.8801,2.8801,2.9001,2.9001,2.9001,2.3372,2.3932,2.4733,2.5358,2.5745,2.6707,2.9312,2.9686,2.998,3.1744,3.1183,3.0507,3.0755,3.0808,3.0996,3.1631,3.2652,3.3414,3.3414,3.3414,3.3414,3.3414,3.3414,3.3414,3.3414,3.3414,3.3414,3.3414,3.3414,3.3414,3.3414,3.3414,3.328,3.2986,3.2741,3.2447,3.2104,3.181,3.1711,3.1711,3.1711,3.1711,3.1711,3.1711,3.1711,3.1698,3.1356,3.1176,3.1176,3.1176,3.1176,3.1096,3.0274,3.01,3.0373,3.0034,2.9913,2.9913,2.9913,2.9913,2.9967,3.0306,3.0413,3.052,3.1049,3.1176,3.1289,3.1631,3.1711,3.1711,3.1711,3.1711,3.1711,3.1711,3.1436,3.1223,3.1176,3.1176,3.1142,3.0849,3.1276,3.1537,3.0902,3.1036,3.1129,3.0835,3.0795,3.0795,3.0795,3.0795,3.0915,3.1196,3.1176,3.1176,3.1176,3.1176,3.1102,3.0808,3.0574,3.0145,2.9513,2.9205,2.9001,2.9001,2.9001,2.9001,2.9015,2.9015,2.9001,2.9001,2.9001,2.9001,2.2886,2.3599,2.4693,2.5117,2.652,2.819,2.9593,2.9847,3.0341,3.2318,3.2118,3.161,3.1704,3.1717,3.177,3.1944,3.2612,3.3173,3.3387,3.3414,3.3414,3.3414,3.3414,3.3414,3.3414,3.3414,3.3414,3.3414,3.3414,3.3414,3.3414,3.3414,3.328,3.2986,3.2741,3.2447,3.2104,3.181,3.1711,3.1711,3.1711,3.1711,3.1711,3.1711,3.1711,3.1711,3.157,3.1423,3.1176,3.1176,3.1176,3.1149,3.0942,3.0648,3.04,3.0306,3.01,2.994,3.0154,3.0087,3.0007,3.0501,3.0574,3.052,3.1049,3.1176,3.1289,3.1631,3.1711,3.1711,3.1711,3.1711,3.1711,3.1711,3.1289,3.1036,3.145,3.1209,3.1022,3.139,3.1591,3.1657,3.1436,3.1476,3.1436,3.1142,3.1276,3.141,3.141,3.141,3.1436,3.153,3.153,3.153,3.153,3.1343,3.1196,3.1102,3.0822,3.0547,3.0159,2.982,2.9753,2.9967,2.9766,2.986,3.0274,3.0074,2.9967,2.9967,2.9967,2.986,2.3848,2.4649,2.5626,2.6319,2.7722,2.9272,3.0501,3.0969,3.1517,3.2866,3.2585,3.2171,3.2412,3.2265,3.2185,3.2412,3.2839,3.3213,3.3387,3.3414,3.3414,3.3414,3.3414,3.3414,3.3414,3.3414,3.3414,3.3414,3.3414,3.3414,3.3414,3.3307,3.3106,3.2862,3.2567,3.2225,3.1931,3.1805,3.1711,3.1711,3.1711,3.1711,3.1711,3.1711,3.1711,3.1711,3.1711,3.157,3.1383,3.1156,3.1196,3.1356,3.0889,3.0635,3.056,3.0453,3.0293,3.014,3.0434,3.0421,3.0341,3.0808,3.0849,3.0795,3.1263,3.1396,3.1436,3.1623,3.1711,3.1711,3.1711,3.1711,3.1711,3.1711,3.1396,3.1236,3.1644,3.1396,3.1296,3.1644,3.1711,3.1711,3.1711,3.1711,3.161,3.1423,3.1557,3.1711,3.1711,3.1711,3.1711,3.1711,3.1711,3.1711,3.1711,3.1503,3.1396,3.1396,3.1129,3.0889,3.0715,3.0421,3.0354,3.0528,3.0354,3.0434,3.0795,3.0667,3.0574,3.0574,3.0574,3.0381,2.5596,2.6333,2.7148,2.835,2.9205,3.0181,3.181,3.2612,3.3093,3.332,3.2759,3.2385,3.2919,3.2585,3.2398,3.2933,3.324,3.3414,3.3414,3.3414,3.3414,3.3414,3.3414,3.3414,3.3414,3.3414,3.3414,3.3414,3.3414,3.34,3.3374,3.312,3.2888,3.2567,3.2238,3.1957,3.1724,3.1711,3.1711,3.1711,3.1711,3.1698,3.1671,3.1711,3.1698,3.1623,3.1644,3.1631,3.1591,3.0982,3.1062,3.1497,3.0368,3.0287,3.0715,3.0507,3.0426,3.048,3.0702,3.0795,3.0835,3.1129,3.1176,3.1276,3.1583,3.1711,3.1711,3.1711,3.1711,3.1711,3.1711,3.1711,3.1711,3.1711,3.1698,3.1684,3.1711,3.1698,3.1684,3.1711,3.1711,3.1711,3.1711,3.1738,3.1751,3.1751,3.1738,3.1724,3.1751,3.1738,3.1738,3.1791,3.1764,3.1764,3.1791,3.1764,3.1751,3.1751,3.1423,3.1263,3.1263,3.0969,3.0808,3.0835,3.0835,3.0849,3.0875,3.0875,3.0862,3.0835,3.0835,3.0675,2.4983,2.6026,2.7455,2.8644,3.0434,3.2099,3.2652,3.3066,3.3267,3.3106,3.3106,3.3173,3.3293,3.3213,3.3173,3.3293,3.3374,3.3414,3.3414,3.3414,3.3414,3.3414,3.3414,3.3414,3.3414,3.3414,3.3414,3.3414,3.3414,3.3307,3.308,3.3013,3.2732,3.2211,3.2131,3.1957,3.1724,3.1711,3.1711,3.1711,3.1711,3.1543,3.133,3.1557,3.1543,3.1303,3.1076,3.0982,3.0955,3.0641,3.0574,3.0667,3.0413,3.0386,3.0493,3.0426,3.0547,3.0715,3.0768,3.0795,3.0835,3.1129,3.1176,3.1276,3.1583,3.1711,3.1711,3.1711,3.1711,3.1711,3.1711,3.1711,3.1711,3.1711,3.149,3.1383,3.1623,3.149,3.1383,3.1671,3.1711,3.1711,3.1711,3.1851,3.2011,3.2011,3.181,3.1805,3.1984,3.181,3.1898,3.2353,3.2144,3.2104,3.238,3.2193,3.2011,3.2011,3.173,3.157,3.157,3.1076,3.0902,3.1129,3.1129,3.1249,3.1524,3.1524,3.1356,3.1129,3.1129,3.0982,2.5493,2.6867,2.8537,3.0287,3.1791,3.2875,3.312,3.3307,3.3374,3.3213,3.3307,3.3414,3.3414,3.3414,3.3414,3.3414,3.3414,3.3414,3.3414,3.3414,3.3414,3.3414,3.3293,3.32,3.32,3.308,3.3,3.3,3.3,3.2982,3.2835,3.2639,3.2425,3.2118,3.1971,3.1757,3.1463,3.1597,3.153,3.1249,3.1396,3.1303,3.1022,3.1183,3.1169,3.1009,3.0862,3.0795,3.0768,3.052,3.0493,3.0541,3.0261,3.0279,3.04,3.04,3.0507,3.0654,3.0742,3.0889,3.1022,3.1122,3.1316,3.1463,3.1671,3.1711,3.1711,3.1711,3.1711,3.1711,3.1711,3.1711,3.1711,3.1711,3.1557,3.1476,3.1684,3.1543,3.149,3.1684,3.1711,3.1711,3.1711,3.1845,3.1891,3.1891,3.177,3.1764,3.1877,3.1891,3.1998,3.2353,3.2367,3.242,3.2581,3.2278,3.2104,3.2104,3.1824,3.1711,3.1711,3.1417,3.1289,3.1436,3.1436,3.1517,3.1711,3.1711,3.1583,3.1436,3.1436,3.1276,2.6119,2.7787,2.9713,3.1965,3.2808,3.312,3.336,3.3414,3.3414,3.3414,3.3414,3.3414,3.3414,3.3414,3.3414,3.3414,3.3414,3.3414,3.3414,3.3374,3.3334,3.3334,3.308,3.2955,3.2955,3.2741,3.2594,3.2594,3.2594,3.2567,3.2527,3.2238,3.2051,3.1957,3.1717,3.145,3.1156,3.1396,3.1276,3.0795,3.0982,3.0955,3.0715,3.0662,3.0675,3.0715,3.0715,3.0688,3.0621,3.0426,3.0421,3.0595,3.01,3.01,3.0413,3.0467,3.052,3.0587,3.0782,3.1062,3.1289,3.1203,3.1423,3.1711,3.1711,3.1711,3.1711,3.1711,3.1711,3.1711,3.1711,3.1711,3.1711,3.1711,3.1711,3.1711,3.1711,3.1711,3.1711,3.1711,3.1711,3.1724,3.1778,3.1791,3.1791,3.1791,3.1831,3.1872,3.1872,3.2038,3.2211,3.2318,3.2554,3.2688,3.2741,3.2425,3.2251,3.2251,3.1984,3.1872,3.1872,3.1872,3.1872,3.1872,3.1818,3.1791,3.1791,3.1791,3.1764,3.1711,3.1711,3.153,2.5184,2.7509,3.0181,3.177,3.2759,3.336,3.34,3.3414,3.3414,3.3414,3.3414,3.3414,3.3414,3.3414,3.3414,3.3414,3.3414,3.3414,3.3414,3.32,3.304,3.304,3.2835,3.2648,3.2648,3.2621,3.2594,3.2594,3.2594,3.2487,3.2171,3.2118,3.1864,3.1356,3.1303,3.1142,3.0849,3.0889,3.0875,3.0795,3.0627,3.0493,3.0453,3.0154,3.0181,3.0467,3.0467,3.0274,3.0034,2.9993,2.9993,3.002,2.994,3.01,3.044,3.0635,3.0889,3.1116,3.1156,3.1356,3.157,3.1316,3.1423,3.1711,3.1711,3.1711,3.1711,3.1711,3.1711,3.1711,3.1711,3.1711,3.1711,3.1711,3.1711,3.1711,3.1711,3.1711,3.1711,3.1711,3.1711,3.1744,3.1998,3.2051,3.2051,3.2051,3.2313,3.2474,3.2474,3.2514,3.2728,3.3187,3.3053,3.3026,3.328,3.3026,3.2866,3.2866,3.2634,3.2474,3.2474,3.2474,3.2474,3.2474,3.2171,3.2051,3.2051,3.2051,3.1917,3.1711,3.1711,3.1698,2.6533,2.8217,2.9895,3.2064,3.2759,3.3013,3.3334,3.3414,3.3414,3.3414,3.328,3.3213,3.3387,3.328,3.3227,3.3387,3.3133,3.2986,3.3146,3.2919,3.2728,3.2505,3.2372,3.2286,3.2112,3.2099,3.2032,3.1824,3.181,3.1677,3.1383,3.1517,3.1423,3.0996,3.1142,3.1009,3.06,3.0715,3.0715,3.0541,3.0247,3.0114,3.0114,2.998,2.998,3.0114,3.0114,3.0034,2.9913,2.9913,2.9913,2.9913,2.9913,2.9993,3.0154,3.0448,3.0635,3.0768,3.0929,3.1169,3.1396,3.1263,3.1423,3.1711,3.1711,3.1784,3.1904,3.1904,3.2086,3.2206,3.2206,3.2206,3.2166,3.1957,3.1904,3.1904,3.1904,3.1904,3.1957,3.2179,3.2072,3.2011,3.2353,3.2393,3.2393,3.2393,3.2514,3.2594,3.2594,3.2741,3.2929,3.3146,3.32,3.328,3.34,3.3146,3.2973,3.2973,3.2755,3.2594,3.2594,3.2594,3.2674,3.2835,3.2554,3.2393,3.2393,3.2393,3.2198,3.1904,3.1904,3.1824,2.7041,2.8094,2.9015,3.149,3.226,3.2527,3.3053,3.3253,3.332,3.34,3.3187,3.304,3.3253,3.3066,3.2933,3.316,3.2875,3.2674,3.2888,3.2661,3.2367,3.2024,3.1998,3.1851,3.1537,3.1517,3.1463,3.1203,3.1156,3.1049,3.0915,3.1036,3.0982,3.0688,3.0889,3.0728,3.0186,3.0354,3.0354,3.0186,2.9993,2.9913,2.9913,2.9913,2.9913,2.9913,2.9913,2.9913,2.9913,2.9913,2.9913,2.9913,2.9913,2.9967,3.006,3.0368,3.056,3.0621,3.0915,3.1156,3.1343,3.1343,3.149,3.1711,3.1711,3.1824,3.2011,3.2078,3.2265,3.25,3.2581,3.2594,3.2541,3.2265,3.2211,3.2198,3.2118,3.2158,3.2278,3.2554,3.242,3.2291,3.2554,3.2661,3.2688,3.2607,3.2728,3.2795,3.2714,3.2955,3.3093,3.3093,3.328,3.3414,3.3414,3.3213,3.3093,3.3093,3.2929,3.2808,3.2808,3.2808,3.2915,3.308,3.2929,3.2781,3.2701,3.2701,3.2465,3.2104,3.2185,3.2051,2.517,2.6253,2.7375,2.9205,3.0748,3.1912,3.25,3.2848,3.308,3.336,3.3187,3.2986,3.3,3.2808,3.2621,3.2634,3.2607,3.2594,3.2621,3.2367,3.2011,3.173,3.1738,3.1463,3.0889,3.1089,3.1203,3.1176,3.0969,3.0929,3.1196,3.0955,3.0675,3.044,3.044,3.0172,2.9539,2.9539,2.9539,2.9526,2.9793,2.9913,2.9913,2.9913,2.9913,2.9913,2.9913,2.9913,2.9913,2.9913,2.9913,2.9913,2.9913,3.0087,3.0426,3.0662,3.0942,3.1223,3.1517,3.1684,3.165,3.165,3.1711,3.1711,3.1711,3.1724,3.1744,3.2024,3.2118,3.2185,3.2527,3.2594,3.2594,3.2581,3.2567,3.25,3.2158,3.2367,3.2581,3.2594,3.2581,3.2581,3.2594,3.2822,3.2915,3.2634,3.3013,3.3267,3.2986,3.3213,3.3387,3.3387,3.34,3.3414,3.3414,3.34,3.3387,3.3387,3.3374,3.3374,3.3374,3.3374,3.3374,3.3387,3.3374,3.3227,3.2959,3.2959,3.2666,3.2104,3.2433,3.242,2.4676,2.5413,2.64,2.8219,2.9503,3.0474,3.1296,3.2139,3.2728,3.2585,3.2639,3.2755,3.2755,3.2661,3.2661,3.2848,3.2505,3.2332,3.2567,3.2179,3.1717,3.1423,3.1557,3.1436,3.0849,3.1223,3.1276,3.0715,3.0742,3.0675,3.0394,3.0474,3.0381,3.0087,3.0074,2.9887,2.9486,2.9486,2.9579,2.9766,2.986,2.9913,2.9913,2.9913,2.9913,2.9913,2.9913,2.9913,2.9913,2.9913,2.9913,2.994,3.0127,3.0154,3.0154,3.0822,3.1022,3.1022,3.1503,3.1711,3.1711,3.1711,3.1711,3.1711,3.1711,3.1797,3.2011,3.2353,3.2519,3.2732,3.3026,3.3106,3.3053,3.2915,3.2875,3.2848,3.2692,3.2648,3.2701,3.3026,3.2946,3.2929,3.3066,3.3187,3.3213,3.312,3.328,3.3374,3.3267,3.3347,3.3414,3.3414,3.3414,3.3414,3.3414,3.3414,3.3414,3.3414,3.3414,3.3414,3.3414,3.3414,3.3414,3.3414,3.3414,3.336,3.3253,3.3253,3.3053,3.2666,3.2822,3.2714,2.3821,2.4506,2.5598,2.7202,2.8112,2.8978,3.0461,3.1249,3.1791,3.2038,3.2265,3.2447,3.2447,3.2527,3.2661,3.2848,3.2345,3.2064,3.2407,3.2019,3.1517,3.1129,3.1343,3.1249,3.0568,3.1036,3.1136,3.0453,3.0448,3.0327,2.994,2.9913,2.9833,2.9588,2.9526,2.9379,2.9192,2.9285,2.9432,2.9575,2.982,2.986,2.978,2.9873,2.986,2.9766,2.9766,2.982,2.9913,2.9913,2.9913,2.994,3.014,3.0154,3.0154,3.0835,3.1022,3.1009,3.1503,3.1711,3.1711,3.1711,3.1711,3.1711,3.1711,3.1877,3.2171,3.2514,3.2808,3.3053,3.3334,3.3414,3.336,3.3173,3.312,3.312,3.312,3.2973,3.2946,3.3334,3.3253,3.3187,3.3374,3.3414,3.3414,3.3414,3.3414,3.3414,3.3414,3.3414,3.3414,3.3414,3.3414,3.3414,3.3414,3.3414,3.3414,3.3414,3.3414,3.3414,3.3414,3.3414,3.3414,3.3414,3.3414,3.3414,3.3414,3.3414,3.3267,3.2986,3.308,3.3026,0.0,0.0,0.0,2.6012,2.6533,2.7455,3.006,3.0234,3.0261,3.1717,3.2038,3.2051,3.2091,3.2393,3.2581,3.2594,3.2112,3.1784,3.2064,3.1851,3.1497,3.0875,3.1062,3.0842,3.002,3.0461,3.0675,3.0413,3.0074,2.9913,2.99,2.9308,2.8988,2.8988,2.8751,2.8604,2.8604,2.8841,2.8988,2.9001,2.9575,2.9753,2.9499,2.978,2.9753,2.9486,2.9499,2.9646,2.99,2.99,2.9913,2.9913,2.9927,3.01,3.044,3.0702,3.0982,3.1276,3.157,3.1711,3.1711,3.1711,3.1724,3.1724,3.1724,3.1891,3.2171,3.2527,3.2808,3.3053,3.3334,3.3414,3.3414,3.3414,3.3414,3.3414,3.3414,3.3414,3.3414,3.3414,3.3414,3.3414,3.3414,3.3414,3.3414,3.3414,3.3414,3.3414,3.3414,3.3414,3.3414,3.3414,3.3414,3.3414,3.3414,3.3414,3.3414,3.3414,3.3414,3.3414,3.3414,3.3414,3.3414,3.3414,3.3414,3.3414,3.3414,3.3414,3.3267,3.3,3.328,3.3414,2.2498,0.0,0.0,0.0,0.0,0.0,2.7068,2.7697,2.846,2.99,3.0368,3.0849,3.1904,3.2171,3.234,3.2567,3.2273,3.2011,3.2091,3.1851,3.153,3.1156,3.137,3.1196,3.0373,3.0768,3.0808,3.0087,2.9967,2.982,2.9619,2.9202,2.8895,2.8738,2.8644,2.8604,2.8604,2.8684,2.8831,2.9001,2.9161,2.9352,2.9486,2.9566,2.9566,2.9499,2.9713,2.9726,2.9606,2.9606,2.9726,2.994,3.0154,3.0333,3.0467,3.0929,3.1156,3.1276,3.157,3.1711,3.1711,3.1711,3.181,3.1984,3.1984,3.2185,3.2541,3.2822,3.2919,3.3053,3.3334,3.3414,3.3414,3.3414,3.3414,3.3414,3.3414,3.3414,3.3414,3.3414,3.3414,3.3414,3.3414,3.3414,3.3414,3.3414,3.3414,3.3414,3.3414,3.3414,3.3414,3.3414,3.3414,3.3414,3.3414,3.3414,3.3414,3.3414,3.3414,3.3414,3.3414,3.3414,3.3414,3.3414,3.3414,3.3414,3.3414,3.3414,3.3374,3.3293,3.3374,3.3414,0.0,0.0,0.0,2.3812,0.0,0.0,2.6399,2.6747,2.7282,2.9098,2.9619,3.0034,3.1009,3.1396,3.161,3.1831,3.177,3.1824,3.2064,3.1851,3.1557,3.1263,3.1383,3.1183,3.048,3.0768,3.0675,2.9806,2.974,2.9499,2.8995,2.8764,2.8591,2.846,2.8417,2.8417,2.8417,2.8537,2.8698,2.8815,2.8935,2.9028,2.9125,2.9245,2.9232,2.9125,2.9299,2.9406,2.9472,2.9352,2.9539,2.994,3.0114,3.0181,3.0247,3.0835,3.1049,3.1102,3.1517,3.1711,3.1711,3.1711,3.1831,3.1944,3.2064,3.2305,3.2661,3.2942,3.3066,3.32,3.3374,3.3414,3.3414,3.3414,3.3414,3.3414,3.3414,3.3414,3.3414,3.3414,3.3414,3.3414,3.3414,3.3414,3.3414,3.3414,3.3414,3.3414,3.3414,3.3414,3.3414,3.3414,3.3414,3.3414,3.3414,3.3414,3.3414,3.3414,3.3414,3.3414,3.3414,3.3414,3.3414,3.3414,3.3414,3.3414,3.3414,3.3414,3.3414,3.3414,3.3414,3.3414,0.0,0.0,0.0,0.0,2.4302,0.0,2.676,2.6507,2.6466,2.8591,2.9018,2.9138,2.9593,3.0127,3.0501,3.0501,3.0849,3.1343,3.1971,3.1837,3.1557,3.1263,3.1203,3.1036,3.0467,3.0621,3.0448,2.9593,2.9472,2.9102,2.8232,2.8179,2.8179,2.8179,2.8179,2.8179,2.8179,2.846,2.8564,2.8564,2.8818,2.8775,2.8617,2.8828,2.8815,2.8604,2.8644,2.8938,2.9366,2.9165,2.9375,2.9913,2.9913,2.994,3.0034,3.0595,3.0808,3.0915,3.1524,3.1711,3.1711,3.1711,3.1738,3.177,3.2024,3.2332,3.2701,3.2946,3.3213,3.3414,3.3414,3.3414,3.3414,3.3414,3.3414,3.3414,3.3414,3.3414,3.3414,3.3414,3.3414,3.3414,3.3414,3.3414,3.3414,3.3414,3.3414,3.3414,3.3414,3.3414,3.3414,3.3414,3.3414,3.3414,3.3414,3.3414,3.3414,3.3414,3.3414,3.3414,3.3414,3.3414,3.3414,3.3414,3.3414,3.3414,3.3414,3.3414,3.3414,3.3414,3.3414,3.3414,0.0,0.0,0.0,0.0,0.0,0.0,2.4727,2.4716,2.5157,2.6092,2.6106,2.6386,2.7856,2.846,2.87,2.87,2.9757,3.0868,3.1637,3.1751,3.1557,3.1263,3.1436,3.131,3.048,3.0621,3.0528,2.9887,2.9348,2.8831,2.8219,2.8179,2.8179,2.8179,2.8179,2.8179,2.8179,2.8245,2.8272,2.8272,2.8326,2.846,2.8604,2.8671,2.8657,2.8617,2.8815,2.8885,2.8818,2.9232,2.9606,2.9913,2.9913,3.006,3.036,3.0662,3.0942,3.1196,3.1543,3.1711,3.1711,3.1711,3.1824,3.2024,3.2078,3.2465,3.3009,3.324,3.3374,3.3414,3.3414,3.3414,3.3414,3.3414,3.3414,3.3414,3.3414,3.3414,3.3414,3.3414,3.3414,3.3414,3.3414,3.3414,3.3414,3.3414,3.3414,3.3414,3.3414,3.3414,3.3414,3.3414,3.3414,3.3414,3.3414,3.3414,3.3414,3.3414,3.3414,3.3414,3.3414,3.3414,3.3414,3.3414,3.3414,3.3414,3.3414,3.3414,3.3414,3.3414,3.3414,3.3414,0.0,0.0,0.0,2.489,0.0,0.0,0.0,2.4553,2.4583,2.5892,2.5358,2.509,2.66,2.6988,2.7242,2.767,2.8754,2.974,3.052,3.1256,3.1657,3.1463,3.145,3.1223,3.0635,3.0627,3.0327,2.974,2.9152,2.8684,2.839,2.8272,2.8179,2.8179,2.8179,2.8179,2.8179,2.8179,2.8179,2.8179,2.8179,2.8272,2.8419,2.8419,2.8419,2.8419,2.8524,2.8604,2.8631,2.8925,2.9299,2.9713,2.986,3.0007,3.0181,3.0461,3.0675,3.0862,3.1289,3.145,3.1476,3.1671,3.177,3.1917,3.2064,3.2412,3.2875,3.312,3.32,3.3227,3.3374,3.3414,3.3414,3.3414,3.3414,3.3414,3.3414,3.3414,3.3414,3.3414,3.3414,3.3414,3.3414,3.3414,3.3414,3.3414,3.3414,3.3414,3.3414,3.3414,3.3414,3.3414,3.3414,3.3414,3.3414,3.3414,3.3414,3.3414,3.3414,3.3414,3.3414,3.3414,3.3414,3.3414,3.3414,3.3414,3.3414,3.3414,3.3414,3.3414,3.3414,3.3414,0.0,0.0,0.0,0.0,0.0,2.5331,0.0,0.0,0.0,2.5758,2.493,2.4249,2.5302,2.5489,2.5743,2.6506,2.7442,2.8283,2.8818,3.0145,3.1095,3.1269,3.1089,3.0875,3.0648,3.0261,2.9847,2.9432,2.8791,2.8457,2.8511,2.8326,2.8179,2.8179,2.8179,2.8179,2.8179,2.8179,2.8179,2.8179,2.8179,2.8179,2.8179,2.8179,2.8179,2.8179,2.8179,2.8326,2.8524,2.8644,2.8965,2.9432,2.9713,2.986,2.9967,3.0314,3.0453,3.0493,3.1089,3.1276,3.1276,3.157,3.1711,3.1764,3.2011,3.2265,3.2567,3.2862,3.2942,3.2946,3.3187,3.328,3.3334,3.3334,3.3374,3.3414,3.3414,3.3414,3.3414,3.3414,3.3414,3.3414,3.3414,3.3414,3.3414,3.3414,3.3414,3.3414,3.3414,3.3414,3.3414,3.3414,3.3414,3.3414,3.3414,3.3414,3.3414,3.3414,3.3414,3.3414,3.3414,3.3414,3.3414,3.3414,3.3414,3.3414,3.3414,3.3414,3.3414,3.3414,3.3414,3.3414,0.0,0.0,0.0,0.0,2.664,0.0,0.0,0.0,2.4302,2.3522,0.0,2.3174,2.3554,0.0,0.0,2.4151,2.5382,2.6412,2.6694,2.7817,2.8888,2.9677,2.9927,3.0047,3.002,2.9285,2.8885,2.9028,2.8283,2.7923,2.8219,2.8205,2.8179,2.8179,2.8179,2.8179,2.8179,2.8179,2.8179,2.8179,2.8179,2.8179,2.8179,2.8179,2.8179,2.8179,2.8179,2.8205,2.8272,2.8764,2.8988,2.9081,2.9419,2.9686,2.998,3.0541,3.0581,3.052,3.1376,3.145,3.1276,3.157,3.1711,3.1764,3.2011,3.2131,3.2211,3.2554,3.2648,3.2648,3.2688,3.2888,3.3026,3.3026,3.3227,3.3414,3.3414,3.3414,3.3414,3.3414,3.3414,3.3414,3.3414,3.3414,3.3414,3.3414,3.3414,3.3414,3.3414,3.3414,3.3414,3.3414,3.3414,3.3414,3.3414,3.3414,3.3414,3.3414,3.3414,3.3414,3.3414,3.3414,3.3414,3.3414,3.3414,3.3414,3.3414,3.3414,3.3414,3.3414,3.3414,3.3414,0.0,0.0,0.0,0.0,0.0,0.0,2.4479,0.0,2.3607,0.0,0.0,0.0,0.0,0.0,0.0,0.0,2.4569,2.5291,2.5585,2.6091,2.7055,2.8764,2.8617,2.8444,2.8617,2.8457,2.847,2.8764,2.811,2.7871,2.8165,2.8179,2.8179,2.8179,2.8179,2.8179,2.8179,2.8179,2.8179,2.8179,2.8179,2.8179,2.8179,2.8179,2.8179,2.8192,2.8379,2.8353,2.8232,2.8791,2.9001,2.9028,2.9366,2.9659,2.994,3.0194,3.0314,3.048,3.1015,3.1183,3.1276,3.157,3.1711,3.1738,3.181,3.1851,3.1917,3.2211,3.2291,3.2372,3.2755,3.2942,3.3026,3.3187,3.332,3.3414,3.3414,3.3414,3.3414,3.3414,3.3414,3.3414,3.3414,3.3414,3.3414,3.3414,3.3414,3.3414,3.3414,3.3414,3.3414,3.3414,3.3414,3.3414,3.3414,3.3414,3.3414,3.3414,3.3414,3.3414,3.3414,3.3414,3.3414,3.3414,3.3414,3.3414,3.3414,3.3414,3.3414,3.3414,3.3414,3.3414,2.755,0.0,0.0,0.0,0.0,0.0,0.0,0.0,0.0,0.0,0.0,0.0,0.0,0.0,0.0,0.0,0.0,2.4502,2.4796,2.4703,2.5358,2.7402,2.7348,2.7295,2.7669,2.7724,2.7898,2.8323,2.7655,2.7496,2.8031,2.8058,2.8098,2.8179,2.8179,2.8179,2.8179,2.8179,2.8179,2.8179,2.8179,2.8179,2.8179,2.8179,2.8179,2.8205,2.847,2.843,2.8232,2.8885,2.9068,2.9028,2.9459,2.978,3.0034,3.0034,3.0127,3.0301,3.0755,3.1102,3.1383,3.1597,3.1711,3.1711,3.1711,3.1711,3.1764,3.1931,3.1984,3.2104,3.2612,3.2799,3.2982,3.3227,3.336,3.3414,3.3414,3.3414,3.3414,3.3414,3.3414,3.3414,3.3414,3.3414,3.3414,3.3414,3.3414,3.3414,3.3414,3.3414,3.3414,3.3414,3.3414,3.3414,3.3414,3.3414,3.3414,3.3414,3.3414,3.3414,3.3414,3.3414,3.3414,3.3414,3.3414,3.3414,3.3414,3.3414,3.3414,3.3414,3.3414,3.3414,0.0,0.0,0.0,2.6119,0.0,0.0,0.0,0.0,2.4863,0.0,0.0,0.0,0.0,0.0,0.0,0.0,0.0,0.0,0.0,2.3741,2.3834,2.505,2.6159,2.7068,2.7642,2.6934,2.68,2.7655,2.6707,2.6546,2.7655,2.7709,2.7843,2.8179,2.8179,2.8179,2.8179,2.8179,2.8179,2.8179,2.8179,2.8179,2.8179,2.8179,2.8179,2.8205,2.847,2.843,2.8259,2.9142,2.9299,2.9055,2.9628,3.0087,3.0386,3.0386,3.0167,3.006,3.0915,3.141,3.1711,3.1711,3.1711,3.1711,3.1711,3.1711,3.1724,3.1724,3.1724,3.1805,3.2051,3.2393,3.2688,3.2969,3.32,3.3414,3.3414,3.3414,3.3414,3.3414,3.3414,3.3414,3.3414,3.3414,3.3414,3.3414,3.3414,3.3414,3.3414,3.3414,3.3414,3.3414,3.3414,3.3414,3.3414,3.3414,3.3414,3.3414,3.3414,3.3414,3.3414,3.3414,3.3414,3.3414,3.3414,3.3414,3.3414,3.3414,3.3414,3.3414,3.3414,3.3414,0.0,0.0,2.8575,2.6787,0.0,0.0,0.0,0.0,0.0,0.0,0.0,0.0,0.0,0.0,0.0,0.0,0.0,0.0,0.0,2.2806,2.2726,2.3549,2.4997,2.5879,2.5653,2.5932,2.6265,2.656,2.6225,2.6332,2.7081,2.7482,2.7749,2.7884,2.8085,2.8179,2.8179,2.8179,2.8179,2.8179,2.8179,2.8179,2.8179,2.8179,2.8179,2.8205,2.847,2.8551,2.8511,2.9192,2.9419,2.9366,2.9766,3.01,3.0386,3.014,3.0247,3.0568,3.1049,3.1423,3.1711,3.1711,3.1711,3.1711,3.1711,3.1711,3.1711,3.1711,3.181,3.2024,3.2367,3.2661,3.2906,3.32,3.3334,3.3414,3.3414,3.3414,3.3414,3.3414,3.3414,3.3414,3.3414,3.3414,3.3414,3.3414,3.3414,3.3414,3.3414,3.3414,3.3414,3.3414,3.3414,3.3414,3.3414,3.3414,3.3414,3.3414,3.3414,3.3414,3.3414,3.3414,3.3414,3.3414,3.3414,3.3414,3.3414,3.3414,3.3414,3.3414,3.3414,3.3414,2.8353,2.8591,0.0,2.7295,2.6841,0.0,2.485,0.0,0.0,0.0,0.0,0.0,0.0,0.0,0.0,0.0,0.0,0.0,0.0,2.2439,2.2425,2.2706,2.3995,2.4903,2.4906,2.5184,2.5503,2.581,2.5543,2.5638,2.6319,2.7014,2.7442,2.7535,2.7978,2.8179,2.8179,2.8179,2.8179,2.8179,2.8179,2.8179,2.8179,2.8179,2.8179,2.8205,2.847,2.8537,2.8497,2.9192,2.9419,2.9366,2.9766,3.01,3.0373,3.002,3.0287,3.0835,3.1129,3.1423,3.1711,3.1711,3.1711,3.1711,3.1711,3.1711,3.1738,3.1845,3.1957,3.2198,3.2648,3.2888,3.3053,3.3347,3.3414,3.3414,3.3414,3.3414,3.3414,3.3414,3.3414,3.3414,3.3414,3.3414,3.3414,3.3414,3.3414,3.3414,3.3414,3.3414,3.3414,3.3414,3.3414,3.3414,3.3414,3.3414,3.3414,3.3414,3.3414,3.3414,3.3414,3.3414,3.3614,3.4042,3.3627,3.3627,3.4042,3.3614,3.3414,3.3414,3.3414,3.3414]},{"header":{"parameterUnit":"m.s-1","parameterCategory":1,"la1":30.6,"la2":29.2853,"lo1":-89.7004,"lo2":-87.6739,"dy":0.0162,"dx":0.0183,"nx":112,"ny":82,"refTime":"2024-02-28T18:00:00:Z","depth":0,"parameterNumber":3,"parameterNumberName":"V-component_of_WINDS"},"data":[0.0,0.0,0.0,0.0,0.0,0.0,0.0,0.0,0.0,0.0,0.0,0.0,0.0,0.0,0.0,0.0,0.0,0.0,0.0,0.0,0.0,0.0,0.0,0.0,0.0,0.0,0.0,0.0,0.0,0.0,0.0,0.0,0.0,0.0,0.0,0.0,0.0,0.0,0.0,0.0,0.0,0.0,0.0,0.0,0.0,0.0,0.0,0.0,0.0,0.0,0.0,0.0,0.0,0.0,0.0,0.0,0.0,0.0,0.0,0.0,0.0,0.0,0.0,0.0,0.0,0.0,0.0,0.0,0.0,0.0,0.0,0.0,0.0,0.0,0.0,0.0,0.0,0.0,0.0,0.0,0.0,0.0,0.0,0.0,0.0,0.0,0.0,0.0,0.0,0.0,3.8302,3.8512,4.0086,4.1104,4.1104,4.1336,4.1234,4.0594,0.0,0.0,0.0,0.0,0.0,0.0,0.0,0.0,0.0,0.0,0.0,0.0,0.0,0.0,0.0,0.0,0.0,0.0,0.0,0.0,0.0,0.0,0.0,0.0,0.0,0.0,0.0,0.0,0.0,0.0,0.0,0.0,0.0,0.0,0.0,0.0,0.0,0.0,0.0,0.0,0.0,0.0,0.0,0.0,0.0,0.0,0.0,0.0,0.0,0.0,0.0,0.0,0.0,0.0,0.0,0.0,0.0,0.0,0.0,0.0,0.0,0.0,0.0,0.0,0.0,0.0,0.0,0.0,0.0,0.0,0.0,0.0,0.0,0.0,0.0,0.0,0.0,0.0,0.0,0.0,0.0,0.0,0.0,0.0,0.0,0.0,0.0,0.0,0.0,0.0,0.0,0.0,0.0,0.0,0.0,0.0,0.0,0.0,0.0,0.0,0.0,0.0,0.0,0.0,3.8003,3.9122,3.9511,3.969,3.969,4.1052,4.1341,4.0019,0.0,0.0,0.0,0.0,0.0,0.0,0.0,0.0,0.0,0.0,0.0,0.0,0.0,0.0,0.0,0.0,0.0,0.0,0.0,0.0,0.0,0.0,0.0,0.0,0.0,0.0,0.0,0.0,0.0,0.0,0.0,0.0,0.0,0.0,0.0,0.0,0.0,0.0,0.0,0.0,0.0,0.0,0.0,0.0,0.0,0.0,0.0,0.0,0.0,0.0,0.0,0.0,0.0,0.0,0.0,0.0,0.0,0.0,0.0,0.0,0.0,0.0,0.0,0.0,0.0,0.0,0.0,0.0,0.0,0.0,0.0,0.0,0.0,0.0,0.0,0.0,0.0,0.0,0.0,0.0,0.0,0.0,0.0,0.0,0.0,0.0,0.0,0.0,0.0,0.0,0.0,0.0,0.0,0.0,0.0,0.0,0.0,0.0,0.0,0.0,0.0,0.0,0.0,3.7182,3.7404,3.8721,3.8871,3.8871,3.8871,3.9995,4.0434,3.9828,4.0077,0.0,0.0,0.0,0.0,0.0,0.0,0.0,0.0,0.0,0.0,0.0,0.0,0.0,0.0,0.0,0.0,0.0,0.0,0.0,0.0,0.0,0.0,0.0,0.0,0.0,0.0,0.0,0.0,0.0,0.0,0.0,0.0,0.0,0.0,0.0,0.0,0.0,0.0,0.0,0.0,0.0,0.0,0.0,0.0,0.0,0.0,0.0,0.0,0.0,0.0,0.0,0.0,0.0,0.0,0.0,0.0,0.0,0.0,0.0,0.0,0.0,0.0,0.0,0.0,0.0,0.0,0.0,0.0,0.0,0.0,0.0,0.0,0.0,0.0,0.0,0.0,0.0,0.0,0.0,0.0,0.0,0.0,0.0,0.0,0.0,0.0,0.0,0.0,0.0,0.0,0.0,0.0,0.0,0.0,0.0,0.0,0.0,0.0,0.0,0.0,0.0,0.0,3.7362,3.7272,3.8063,3.832,3.835,3.8182,3.9085,3.9643,3.9573,3.9952,0.0,0.0,0.0,0.0,0.0,0.0,0.0,0.0,0.0,0.0,0.0,0.0,0.0,0.0,0.0,0.0,0.0,0.0,0.0,0.0,0.0,0.0,0.0,0.0,0.0,0.0,0.0,0.0,0.0,0.0,0.0,0.0,0.0,0.0,0.0,0.0,0.0,0.0,0.0,0.0,0.0,0.0,0.0,0.0,0.0,0.0,0.0,0.0,0.0,0.0,0.0,0.0,0.0,0.0,0.0,0.0,0.0,0.0,0.0,0.0,0.0,0.0,0.0,0.0,0.0,0.0,0.0,0.0,0.0,0.0,0.0,0.0,0.0,0.0,0.0,0.0,0.0,0.0,0.0,0.0,0.0,0.0,0.0,0.0,0.0,0.0,0.0,0.0,0.0,0.0,0.0,0.0,0.0,0.0,0.0,0.0,0.0,0.0,0.0,0.0,0.0,0.0,3.7601,3.8063,3.7524,3.8033,3.8153,3.7524,3.8949,3.9602,3.8899,4.0268,0.0,0.0,0.0,0.0,0.0,0.0,0.0,0.0,0.0,0.0,0.0,0.0,0.0,0.0,0.0,0.0,0.0,0.0,0.0,0.0,0.0,0.0,0.0,0.0,0.0,0.0,0.0,0.0,0.0,0.0,0.0,0.0,0.0,0.0,0.0,0.0,0.0,0.0,0.0,0.0,0.0,0.0,0.0,0.0,0.0,0.0,0.0,0.0,0.0,0.0,0.0,0.0,0.0,0.0,0.0,0.0,0.0,0.0,0.0,0.0,0.0,0.0,0.0,0.0,0.0,0.0,0.0,0.0,0.0,0.0,0.0,0.0,0.0,0.0,0.0,0.0,0.0,0.0,0.0,0.0,0.0,0.0,0.0,0.0,0.0,0.0,0.0,0.0,0.0,0.0,0.0,0.0,0.0,0.0,0.0,0.0,0.0,0.0,0.0,0.0,0.0,0.0,3.6537,3.6656,3.6806,3.7045,3.7312,3.7508,3.8544,3.9297,3.9473,0.0,0.0,0.0,0.0,0.0,0.0,0.0,0.0,0.0,0.0,0.0,0.0,0.0,0.0,0.0,0.0,0.0,0.0,0.0,0.0,0.0,0.0,0.0,0.0,0.0,0.0,0.0,0.0,0.0,0.0,0.0,0.0,0.0,0.0,0.0,0.0,0.0,0.0,0.0,0.0,0.0,0.0,0.0,0.0,0.0,0.0,0.0,0.0,0.0,0.0,0.0,0.0,0.0,0.0,0.0,0.0,0.0,0.0,0.0,0.0,0.0,0.0,0.0,0.0,0.0,0.0,0.0,0.0,0.0,0.0,0.0,0.0,0.0,0.0,0.0,0.0,0.0,0.0,0.0,0.0,0.0,0.0,0.0,0.0,0.0,0.0,0.0,0.0,0.0,0.0,0.0,0.0,0.0,0.0,0.0,0.0,0.0,0.0,0.0,0.0,0.0,0.0,3.6118,3.5968,3.5908,3.6148,3.6374,3.6721,3.7249,3.8034,3.8803,3.9522,0.0,0.0,0.0,0.0,0.0,0.0,0.0,0.0,0.0,0.0,0.0,0.0,0.0,0.0,0.0,0.0,0.0,0.0,0.0,0.0,0.0,0.0,0.0,0.0,0.0,0.0,0.0,0.0,0.0,0.0,0.0,0.0,0.0,0.0,0.0,0.0,0.0,0.0,0.0,0.0,0.0,0.0,0.0,0.0,0.0,0.0,0.0,0.0,0.0,0.0,0.0,0.0,0.0,0.0,0.0,0.0,0.0,0.0,0.0,0.0,0.0,0.0,0.0,0.0,0.0,0.0,0.0,0.0,0.0,0.0,0.0,0.0,0.0,0.0,0.0,0.0,0.0,0.0,0.0,0.0,0.0,0.0,0.0,0.0,0.0,0.0,0.0,0.0,0.0,0.0,0.0,0.0,0.0,0.0,0.0,0.0,0.0,0.0,0.0,0.0,0.0,0.0,3.5519,3.6058,3.6237,3.5579,3.6088,3.6509,3.66,3.7337,3.8104,0.0,0.0,0.0,0.0,0.0,0.0,0.0,0.0,0.0,0.0,0.0,0.0,0.0,0.0,0.0,0.0,0.0,0.0,0.0,0.0,0.0,0.0,0.0,0.0,0.0,0.0,0.0,0.0,0.0,0.0,0.0,0.0,0.0,0.0,0.0,0.0,0.0,0.0,0.0,0.0,0.0,0.0,0.0,0.0,0.0,0.0,0.0,0.0,0.0,0.0,0.0,0.0,0.0,0.0,0.0,0.0,0.0,0.0,0.0,0.0,0.0,0.0,0.0,0.0,0.0,0.0,0.0,0.0,0.0,0.0,0.0,0.0,0.0,0.0,0.0,0.0,0.0,0.0,0.0,0.0,0.0,0.0,0.0,0.0,0.0,0.0,0.0,0.0,0.0,0.0,0.0,0.0,0.0,0.0,0.0,0.0,0.0,0.0,0.0,0.0,0.0,0.0,0.0,3.5519,3.5669,3.5729,3.5519,3.5669,3.6219,3.7354,3.7677,3.8376,3.9662,0.0,0.0,0.0,0.0,0.0,0.0,0.0,0.0,0.0,0.0,0.0,0.0,0.0,0.0,0.0,0.0,0.0,0.0,0.0,0.0,0.0,0.0,0.0,0.0,0.0,0.0,0.0,0.0,0.0,0.0,0.0,0.0,0.0,0.0,0.0,0.0,0.0,0.0,0.0,0.0,0.0,0.0,0.0,0.0,0.0,0.0,0.0,0.0,0.0,0.0,0.0,0.0,0.0,0.0,0.0,0.0,0.0,0.0,0.0,0.0,0.0,0.0,0.0,0.0,0.0,0.0,0.0,0.0,0.0,0.0,0.0,0.0,0.0,0.0,0.0,0.0,0.0,0.0,0.0,0.0,0.0,0.0,0.0,0.0,0.0,0.0,0.0,0.0,0.0,0.0,0.0,0.0,0.0,0.0,0.0,0.0,0.0,0.0,0.0,0.0,0.0,0.0,3.5519,3.5519,3.5619,3.5895,3.5927,3.6538,3.8104,3.8232,3.8646,3.9598,0.0,0.0,0.0,0.0,0.0,0.0,0.0,0.0,0.0,0.0,0.0,0.0,0.0,0.0,0.0,0.0,0.0,0.0,0.0,0.0,0.0,0.0,0.0,0.0,0.0,0.0,0.0,0.0,0.0,0.0,0.0,0.0,0.0,0.0,0.0,0.0,0.0,0.0,0.0,0.0,0.0,0.0,0.0,0.0,0.0,0.0,0.0,0.0,0.0,0.0,0.0,0.0,0.0,0.0,0.0,0.0,0.0,0.0,0.0,0.0,0.0,0.0,0.0,0.0,0.0,0.0,0.0,0.0,0.0,0.0,0.0,0.0,0.0,0.0,0.0,0.0,0.0,0.0,0.0,0.0,0.0,0.0,0.0,0.0,0.0,0.0,0.0,0.0,0.0,0.0,0.0,0.0,0.0,0.0,0.0,0.0,0.0,0.0,0.0,0.0,0.0,0.0,3.5519,3.5554,3.5862,3.6538,3.6661,3.7322,3.8786,3.8894,3.897,3.9103,0.0,0.0,0.0,0.0,0.0,0.0,0.0,0.0,0.0,0.0,0.0,0.0,0.0,0.0,0.0,0.0,0.0,0.0,0.0,0.0,0.0,0.0,0.0,0.0,0.0,0.0,0.0,0.0,0.0,0.0,0.0,0.0,0.0,0.0,0.0,0.0,0.0,0.0,0.0,0.0,0.0,0.0,0.0,0.0,0.0,0.0,0.0,0.0,0.0,0.0,0.0,0.0,0.0,0.0,0.0,0.0,0.0,0.0,0.0,0.0,3.763,3.6573,0.0,0.0,0.0,0.0,0.0,0.0,0.0,0.0,0.0,0.0,0.0,0.0,0.0,0.0,0.0,0.0,0.0,0.0,0.0,0.0,0.0,0.0,0.0,0.0,0.0,0.0,0.0,0.0,0.0,0.0,0.0,0.0,0.0,0.0,0.0,0.0,0.0,0.0,0.0,0.0,3.5519,3.6006,3.643,3.6569,3.7159,3.7905,3.8827,3.8894,3.9183,3.9825,3.9457,0.0,0.0,0.0,0.0,0.0,0.0,0.0,0.0,0.0,0.0,0.0,0.0,0.0,0.0,0.0,0.0,0.0,0.0,0.0,0.0,0.0,0.0,0.0,0.0,0.0,0.0,0.0,0.0,0.0,0.0,0.0,0.0,0.0,0.0,0.0,0.0,0.0,0.0,0.0,0.0,0.0,0.0,0.0,0.0,0.0,0.0,0.0,0.0,0.0,0.0,0.0,0.0,0.0,0.0,0.0,0.0,0.0,0.0,0.0,4.0069,3.8621,0.0,0.0,0.0,0.0,0.0,0.0,0.0,0.0,0.0,0.0,0.0,0.0,0.0,0.0,0.0,0.0,0.0,0.0,0.0,0.0,0.0,0.0,0.0,0.0,0.0,0.0,0.0,0.0,0.0,0.0,0.0,0.0,0.0,0.0,0.0,0.0,0.0,0.0,0.0,0.0,3.5519,3.6134,3.6737,3.7129,3.7876,3.8635,3.9394,3.9493,3.9515,3.958,3.9525,0.0,0.0,0.0,0.0,0.0,0.0,0.0,0.0,0.0,0.0,0.0,0.0,0.0,0.0,0.0,0.0,0.0,0.0,0.0,0.0,0.0,0.0,0.0,0.0,0.0,0.0,0.0,0.0,0.0,0.0,0.0,0.0,0.0,0.0,0.0,0.0,0.0,0.0,0.0,0.0,0.0,0.0,0.0,0.0,0.0,0.0,0.0,0.0,0.0,0.0,0.0,0.0,0.0,4.4881,4.5335,4.5258,4.5355,4.5337,4.5106,4.341,4.1757,4.0376,4.0653,0.0,0.0,0.0,0.0,0.0,0.0,0.0,0.0,0.0,0.0,0.0,0.0,0.0,0.0,0.0,0.0,0.0,0.0,0.0,0.0,0.0,0.0,4.0186,4.1398,4.1705,4.1203,3.9365,0.0,0.0,0.0,0.0,0.0,0.0,0.0,0.0,0.0,0.0,0.0,3.5683,3.6352,3.7114,3.789,3.8663,3.9368,4.0028,4.0113,3.9829,3.922,3.9626,3.9423,0.0,0.0,0.0,0.0,0.0,0.0,0.0,0.0,0.0,0.0,0.0,0.0,0.0,0.0,0.0,0.0,0.0,0.0,0.0,0.0,0.0,0.0,0.0,0.0,0.0,0.0,0.0,0.0,0.0,0.0,0.0,0.0,4.4398,4.5026,0.0,0.0,0.0,0.0,0.0,0.0,0.0,0.0,0.0,0.0,0.0,0.0,0.0,4.4451,4.4987,4.568,4.6102,4.6254,4.8011,4.8609,4.8163,4.8805,4.867,4.7898,4.8629,0.0,4.296,4.364,0.0,0.0,0.0,0.0,0.0,0.0,0.0,0.0,0.0,0.0,0.0,0.0,0.0,0.0,0.0,0.0,0.0,0.0,0.0,0.0,0.0,0.0,4.3895,4.4096,4.413,4.4063,4.376,4.1753,3.9914,3.9691,3.8142,3.7437,0.0,0.0,0.0,0.0,0.0,0.0,3.6368,3.7129,3.7919,3.8676,3.948,3.9978,4.01,4.0113,4.0079,3.9977,3.9457,3.9356,3.9795,3.798,0.0,0.0,0.0,0.0,0.0,0.0,0.0,0.0,0.0,0.0,0.0,0.0,0.0,0.0,0.0,0.0,0.0,0.0,0.0,0.0,0.0,0.0,0.0,0.0,0.0,0.0,0.0,0.0,0.0,4.2682,4.359,4.4328,4.344,4.2604,0.0,0.0,0.0,0.0,0.0,0.0,0.0,0.0,0.0,4.6804,4.8166,4.9008,4.9308,5.0834,5.1674,5.1765,5.2602,5.2868,5.2618,5.2535,5.226,5.1879,5.195,5.064,4.8314,4.6951,4.5572,4.4188,0.0,0.0,0.0,0.0,4.3421,4.3119,4.3842,4.332,4.2414,4.2709,0.0,0.0,0.0,0.0,0.0,0.0,0.0,4.2713,4.3894,4.4722,4.5432,4.6244,4.6447,4.6447,4.6447,4.4719,4.2818,4.1593,4.0504,3.9724,3.9472,3.7944,0.0,0.0,0.0,3.689,3.7218,3.7948,3.8539,3.8867,3.9623,4.0113,4.0113,4.0113,4.0113,4.0113,3.9808,3.9559,3.9491,3.8962,3.8386,0.0,0.0,0.0,0.0,0.0,0.0,0.0,0.0,0.0,0.0,0.0,0.0,0.0,0.0,0.0,0.0,0.0,0.0,0.0,0.0,0.0,0.0,0.0,0.0,0.0,0.0,0.0,0.0,4.3408,4.4148,4.4516,4.458,4.4129,0.0,0.0,0.0,0.0,0.0,0.0,4.8139,4.8748,4.9359,5.0026,5.2455,5.3784,5.3923,5.5669,5.6544,5.6544,5.6544,5.6341,5.5969,5.5412,5.4956,5.4583,5.3822,5.3179,5.2401,4.9814,4.8191,4.7259,4.6157,4.5616,4.5514,4.6075,4.5842,4.5359,4.5906,4.558,4.4853,4.4779,4.4378,4.38,4.3317,0.0,0.0,0.0,0.0,4.4302,4.5635,4.6109,4.6568,4.7887,4.8191,4.8124,4.7954,4.6872,4.5356,4.3294,4.227,4.1251,3.9754,3.8545,0.0,3.8033,3.7937,3.7879,3.8048,3.8566,3.8975,3.9196,3.9571,3.9876,4.01,3.9914,3.9889,4.01,4.0113,3.9863,3.9288,3.9626,3.9119,3.7675,0.0,0.0,0.0,0.0,0.0,0.0,0.0,0.0,0.0,0.0,0.0,0.0,0.0,0.0,0.0,0.0,0.0,0.0,0.0,0.0,0.0,0.0,0.0,0.0,0.0,0.0,0.0,0.0,0.0,4.7752,4.9513,0.0,0.0,0.0,0.0,4.7616,4.7752,4.9037,5.186,5.2113,5.345,5.6238,5.7153,5.7931,5.8653,5.8758,5.881,5.881,5.881,5.81,5.6731,5.6697,5.5919,5.4583,5.3822,5.3484,5.3315,5.1708,5.0186,4.8883,4.8815,4.836,4.7752,4.7785,4.7755,4.7725,4.7759,4.7305,4.6885,4.8265,4.7263,4.5481,4.5519,4.4499,0.0,0.0,4.5026,4.5771,4.6549,4.7259,4.7988,4.8766,4.8951,4.8732,4.8056,4.7293,4.6312,4.4761,4.2178,4.039,4.0995,0.0,3.8019,3.8745,3.8246,3.8033,3.8759,3.8881,3.9196,3.9952,3.9381,3.9276,4.0049,3.9394,3.9289,4.0028,4.0113,4.0079,4.0045,3.9423,3.9322,3.991,3.8599,0.0,0.0,0.0,0.0,0.0,0.0,0.0,0.0,0.0,0.0,0.0,0.0,0.0,0.0,0.0,0.0,0.0,0.0,0.0,0.0,0.0,0.0,0.0,0.0,0.0,0.0,0.0,0.0,4.9984,5.1607,0.0,5.0186,5.066,5.1217,5.1472,5.2824,5.4296,5.5818,5.6851,5.7848,5.8896,6.0622,6.1637,6.1888,6.1434,6.1197,6.1163,6.0182,5.9182,5.8201,5.7712,5.6697,5.5277,5.4532,5.3923,5.345,5.2909,5.2063,5.1082,5.0592,5.0254,5.0017,5.0017,5.0017,4.995,4.9492,4.912,4.8849,4.8428,4.7432,4.6372,4.6408,4.6016,4.5767,4.6509,4.6906,4.7278,4.8037,4.8409,4.8665,4.8951,4.9018,4.8815,4.8056,4.7327,4.6481,4.55,4.3648,4.2306,4.2571,4.1164,4.0074,4.036,3.9754,3.9183,3.8921,3.8894,3.9002,3.9302,3.9056,3.9236,4.0016,3.985,3.9778,4.0087,4.0113,4.0113,4.0113,3.9842,3.9592,3.9389,3.8882,3.8599,0.0,0.0,0.0,0.0,0.0,0.0,0.0,0.0,0.0,0.0,0.0,0.0,0.0,0.0,0.0,0.0,0.0,0.0,0.0,0.0,0.0,0.0,0.0,0.0,0.0,4.9221,5.142,5.1911,5.3974,5.4871,5.3585,5.4617,5.5581,5.6089,5.7509,5.8761,5.9742,6.0723,6.1366,6.1603,6.3328,6.4241,6.4241,6.3768,6.3382,6.3125,6.1839,6.0588,5.9351,5.8626,5.7476,5.6037,5.5277,5.4566,5.3856,5.3856,5.3416,5.2672,5.2148,5.181,5.1573,5.1573,5.1404,5.1066,5.0067,4.9898,4.9947,4.8951,4.8139,4.7597,4.7849,4.7917,4.8003,4.8496,4.8646,4.8732,4.9255,4.9187,4.9018,4.9018,4.9018,4.8815,4.8056,4.7515,4.6887,4.5906,4.4437,4.3389,4.3389,4.2374,4.1576,4.1576,4.0946,4.0195,3.9412,3.9073,3.8894,3.8894,3.8676,3.8968,4.0003,3.9863,3.9825,4.01,4.0113,4.0113,4.0113,4.0113,3.9876,3.9389,3.9292,3.9276,3.9276,0.0,0.0,0.0,0.0,0.0,0.0,0.0,0.0,0.0,0.0,0.0,0.0,0.0,0.0,0.0,0.0,0.0,0.0,0.0,0.0,0.0,0.0,0.0,4.8326,5.1302,5.3687,5.3788,5.695,5.8863,5.8118,5.8761,5.9791,6.1298,6.1434,6.2076,6.3511,6.3612,6.3951,6.4647,6.5358,6.5751,6.5751,6.5717,6.5324,6.458,6.3849,6.2327,6.0114,5.9351,5.8254,5.6799,5.6037,5.5293,5.4617,5.4617,5.416,5.3518,5.3518,5.301,5.2334,5.2334,5.1877,5.1032,4.9578,4.9526,5.015,5.0117,4.9627,4.9187,4.9914,5.015,5.015,5.0117,5.0117,5.0083,5.0083,4.9526,4.9018,4.9018,4.9018,4.8815,4.8056,4.7921,4.7481,4.6027,4.4505,4.3443,4.3457,4.2828,4.2333,4.2333,4.1711,0.0,4.0213,3.9429,3.8941,3.8974,3.8325,3.8493,3.9999,3.9414,3.9309,4.0028,4.0113,4.0113,4.0113,4.0138,4.0116,4.0142,3.995,3.9845,3.9845,0.0,0.0,0.0,0.0,0.0,0.0,0.0,0.0,0.0,0.0,0.0,0.0,0.0,0.0,0.0,0.0,0.0,0.0,0.0,0.0,0.0,5.1048,5.3213,5.2807,5.548,5.8118,5.9742,6.1332,6.2158,6.1955,6.2618,6.326,6.3666,6.4174,6.4884,6.5844,6.6406,6.6542,6.6203,6.6914,6.7049,6.6508,6.5967,6.5324,6.458,6.3849,6.2598,6.0926,6.0148,5.8998,5.7561,5.6833,5.5784,5.4617,5.4617,5.416,5.3518,5.3518,5.3382,5.3179,5.3179,5.2672,5.186,5.093,5.0728,5.0811,5.027,5.0338,5.0626,5.0845,5.0897,5.0811,5.0236,5.0117,4.9981,4.9424,4.9154,4.9018,4.9018,4.9018,4.8815,4.8056,4.7921,4.7616,4.6684,4.5737,4.4891,4.4364,4.3606,4.3085,4.3085,4.2455,4.1742,4.0974,4.0249,3.9971,4.0498,3.9888,3.9855,4.0835,4.0697,4.0435,4.0134,4.0113,4.0113,4.0113,4.0456,4.0885,4.1319,4.1286,4.1257,0.0,0.0,0.0,0.0,0.0,0.0,0.0,0.0,0.0,0.0,0.0,0.0,0.0,0.0,0.0,0.0,0.0,0.0,0.0,0.0,0.0,0.0,5.5141,5.7848,5.9084,6.0182,6.1719,6.3971,6.4613,6.5134,6.5777,6.5933,6.6136,6.6474,6.688,6.732,6.776,6.8166,6.8199,6.7793,6.8199,6.803,6.7286,6.6846,6.6102,6.5053,6.4309,6.3193,6.1738,6.096,5.9776,5.8355,5.7915,5.69,5.548,5.5175,5.4634,5.3923,0.0,0.0,0.0,0.0,5.2909,5.2672,5.1573,5.1404,5.1573,5.115,5.1116,5.1269,5.1573,5.1641,5.1589,5.115,5.1014,5.0913,5.0507,5.0168,4.9916,4.9916,4.9695,4.9357,4.8917,4.8563,4.8124,4.7394,4.6921,0.0,4.565,4.4621,4.391,4.391,4.3267,4.2482,4.1749,4.1022,4.0724,4.1154,4.0823,4.0738,4.1173,4.1204,0.0,0.0,0.0,4.0528,4.0803,4.1116,0.0,0.0,0.0,4.2864,4.3196,4.3745,0.0,0.0,4.3049,4.2894,0.0,0.0,0.0,0.0,0.0,0.0,0.0,0.0,0.0,0.0,0.0,0.0,0.0,0.0,0.0,0.0,5.9708,6.2685,6.5683,6.5019,6.4931,6.6825,6.7062,6.7624,6.8977,6.8436,6.8368,6.9147,6.9214,6.9248,6.935,6.935,0.0,0.0,0.0,6.8842,6.803,6.7963,6.7184,6.5818,6.5087,6.4005,6.2637,6.1806,6.0689,5.9351,5.9115,5.8201,5.6867,5.6139,5.5395,5.4634,5.3822,5.3518,5.3416,5.2706,5.2875,5.3281,5.181,0.0,0.0,5.2334,5.1928,5.1573,5.2232,5.2435,5.2435,5.2334,5.23,5.2266,5.2198,5.1674,5.1201,5.1201,5.071,5.0218,5.0117,4.9593,4.8917,4.8157,4.7954,4.7684,4.7022,4.5785,4.4838,4.4838,4.4181,4.3418,4.2788,4.1943,4.1465,4.1579,4.1513,0.0,4.1456,4.1519,4.1231,4.051,4.0973,4.1553,4.2143,4.2165,4.2562,4.344,4.399,4.4663,4.5444,4.6666,4.7259,4.7314,4.4762,4.4363,0.0,0.0,0.0,0.0,0.0,0.0,0.0,0.0,0.0,0.0,0.0,0.0,0.0,0.0,0.0,5.893,6.2009,6.5019,6.803,6.8707,6.8842,6.8673,6.8673,6.8774,6.9079,6.8977,6.918,6.9925,7.0014,7.0263,7.0816,7.085,7.0601,6.9992,7.0014,6.962,6.8876,6.8233,6.7455,6.6576,6.5831,0.0,6.414,6.2787,6.2009,6.1637,5.9791,5.849,5.7629,5.69,5.6139,5.5361,5.4025,5.3518,5.3484,5.3348,5.3382,5.3382,5.2435,5.2604,5.3179,5.2503,5.2638,5.3078,5.3213,5.3281,0.0,5.2469,5.23,5.2164,5.1573,5.1302,5.1201,5.1201,5.11,5.0829,5.0252,4.9981,4.9661,4.8951,4.8293,4.7853,4.7718,4.6955,4.636,4.636,4.5737,4.5206,4.5043,4.3836,4.323,4.3864,4.3378,4.2968,4.297,4.3473,4.3473,4.2726,4.3244,4.3816,4.4448,4.4469,4.5022,4.6287,4.642,4.688,4.7694,4.7928,4.8416,4.9003,4.7829,4.7438,0.0,0.0,0.0,0.0,0.0,0.0,0.0,0.0,0.0,0.0,0.0,5.2909,5.4752,0.0,6.0148,6.3463,6.5595,6.7658,6.9891,7.0534,7.0601,7.0263,7.0195,7.0195,7.0195,7.0195,7.0364,7.0737,7.0737,7.0906,7.1289,7.1289,7.1142,7.077,7.0737,7.0398,6.9654,6.9248,6.8673,6.7963,6.6812,6.6068,6.5662,6.4174,6.3091,6.2333,6.1197,6.0047,5.8896,5.7814,5.6934,5.6139,5.5023,5.4583,5.4566,5.4194,5.4296,5.4481,5.3721,5.3721,5.3923,5.3145,5.3179,5.3518,5.3518,5.3518,5.3416,5.301,5.2909,5.2807,5.2469,5.2351,5.2351,5.2351,5.2046,5.1641,5.1285,5.0913,5.0541,5.0153,4.9526,4.9018,4.9018,4.8376,4.7631,4.6921,4.6481,4.6109,4.5771,4.535,4.5128,4.5142,4.5128,4.508,4.5048,4.4955,4.4718,4.4227,4.4856,4.5513,4.61,4.6484,4.7222,4.8333,4.8343,4.8746,4.9554,4.9958,5.0582,5.1342,5.0956,5.0759,0.0,0.0,0.0,0.0,0.0,0.0,0.0,5.0735,5.115,5.3348,5.504,5.6867,5.9419,6.1738,6.4309,6.759,6.8808,6.9823,7.1312,7.1492,7.156,7.1718,7.1458,7.1289,7.1289,7.1289,7.1289,7.1289,7.1289,7.1289,7.1289,7.1289,7.1289,7.1289,7.1289,7.1007,7.0398,7.0263,6.9891,6.9316,6.7929,6.7252,6.7197,6.5865,6.4512,6.3226,6.2787,6.1839,6.0452,5.9099,5.822,5.7611,5.668,5.6443,5.6409,5.5243,5.5209,5.5631,5.5006,5.4803,5.4702,5.4126,5.3923,5.3906,5.3754,5.3721,5.3687,5.3551,5.3518,5.3518,5.3518,5.3518,5.3518,5.3518,5.301,5.2503,5.2334,5.181,5.137,5.1235,5.0608,5.0117,5.0117,4.9492,4.8612,4.7394,4.709,4.6786,4.621,4.6515,4.6607,4.6155,4.6646,4.7077,4.7299,4.6661,4.6247,4.6208,4.6819,4.7381,4.78,4.8443,4.9187,5.0051,5.0088,5.0555,5.1499,5.1977,5.2648,5.346,5.3277,5.3382,5.0637,5.0092,5.067,5.2431,5.2369,5.2972,0.0,5.6936,5.6562,5.8761,6.0452,6.1806,6.2801,6.4796,6.6914,6.8673,6.9586,7.0567,7.2056,7.2293,7.2529,7.3195,7.209,7.1289,7.1289,7.1289,7.1289,7.1289,7.1289,7.1289,7.1289,7.1289,7.1289,7.1289,7.1289,7.1255,7.1176,7.0534,7.0184,7.006,6.9248,6.8842,6.8808,6.7929,6.7083,6.6183,6.4221,6.2922,6.2076,6.1264,6.0858,6.0655,5.9182,5.9013,5.9268,5.6578,5.5631,5.5699,5.5597,5.5564,5.5564,5.5496,5.5462,5.5327,5.4668,5.4482,5.4329,5.3687,5.3518,5.3518,5.3518,5.3518,5.3518,5.3518,5.345,5.3179,5.2469,5.2232,5.1979,5.1336,5.0608,5.0117,5.0117,4.9492,4.8951,4.8781,4.8191,4.7752,4.765,4.7158,4.6995,4.7513,4.7651,4.8177,4.9336,4.9363,4.9532,5.0141,5.0244,5.0301,5.0388,5.0472,5.0912,5.173,5.173,5.2501,5.3995,5.3361,5.3518,5.4339,5.3568,5.3974,5.5233,5.4398,5.4407,5.5868,5.6661,5.7772,6.0617,6.0635,6.0689,6.2888,6.4208,6.5324,6.6542,6.7861,6.9113,7.0229,7.1007,7.1684,7.2326,7.2766,7.3026,7.2868,7.2326,7.1954,7.1954,7.1526,7.1289,7.1289,7.1718,7.1751,7.1323,7.2124,7.2191,7.1323,7.1718,7.1729,7.1289,7.1007,7.0838,7.0838,7.0094,6.9722,6.9688,6.8944,6.7963,6.6724,6.5358,6.4343,6.3599,6.2415,6.1941,6.1772,6.025,5.9844,5.9911,5.8235,5.7897,5.8152,5.7273,5.6968,5.6833,5.5969,5.5699,5.5631,5.5327,5.5243,5.5108,5.4329,5.4465,5.4583,5.3721,5.3822,5.4025,5.3619,5.3518,5.3416,5.3078,5.301,5.2909,5.2588,5.1928,5.1386,5.1386,5.0777,5.0288,5.0288,4.9273,4.8394,4.7954,4.8003,4.8352,4.9013,4.9798,5.0328,5.0418,5.0835,5.1015,5.0819,5.1242,5.1499,5.1499,5.194,5.2333,5.2711,5.2711,5.3261,5.4399,5.3585,5.388,5.5166,5.389,5.4174,5.8547,5.8288,5.8422,5.9469,6.1223,6.2972,6.3969,6.4271,6.4778,6.6321,6.7218,6.8098,6.9214,7.0161,7.0973,7.1515,7.2394,7.3003,7.3003,7.3646,7.3815,7.3105,7.2834,7.2699,7.2699,7.1853,7.1458,7.1887,7.2225,7.2259,7.1921,7.2902,7.3003,7.1954,7.2428,7.2462,7.1921,7.1921,7.1796,7.1616,7.1041,7.0703,7.0466,6.9722,6.8808,6.7692,6.6711,6.6,6.5392,6.37,6.299,6.2854,6.1332,6.0723,6.0655,6.0148,6.0013,5.9911,5.8626,5.8186,5.7983,5.6731,5.6325,5.6274,5.6071,5.6003,5.5834,5.5108,5.531,5.5395,5.4126,5.4363,5.4668,5.3721,5.3653,5.3754,5.3551,5.3518,5.3518,5.3518,5.2841,5.23,5.23,5.1674,5.1201,5.1201,5.0474,4.9642,4.8912,4.962,5.0373,5.0869,5.2181,5.2742,5.1933,5.2561,5.2538,5.1536,5.2417,5.2905,5.2685,5.3445,5.3849,5.3849,5.3849,5.4166,5.4768,5.3965,5.4286,5.5653,5.4344,5.4408,5.8756,6.0285,6.1773,6.3206,6.6067,6.8457,6.8044,6.863,6.9227,6.9045,6.9586,7.0116,7.0184,7.1345,7.2326,7.236,7.3612,7.4536,7.4536,7.5168,7.5371,7.4603,7.3883,7.3466,7.3466,7.2157,7.1887,7.3331,7.28,7.2699,7.3398,7.35,7.35,7.3432,7.3443,7.3466,7.3432,7.3432,7.3071,7.236,7.2326,7.1954,7.1222,7.05,7.0128,7.0014,6.847,6.7827,6.7624,6.5425,6.4546,6.4377,6.2888,6.2333,6.2333,6.2333,6.1366,5.9979,5.9216,5.8979,5.8844,5.8084,5.7832,5.7697,5.6968,5.6765,5.663,5.5868,5.5665,5.553,5.4769,5.5108,5.5293,5.3856,5.4059,5.438,5.3653,5.3518,5.3518,5.3518,5.2841,5.23,5.23,5.1674,5.1201,5.1201,5.1821,5.2023,5.1202,5.2302,5.3183,5.3195,5.4581,5.5159,5.4378,5.5023,5.4803,5.3214,5.462,5.5144,5.4363,5.5108,5.5548,5.5548,5.5548,5.5574,5.5674,5.4866,5.4906,5.5667,5.4832,5.4903,6.0349,6.3089,6.5825,6.6566,6.8833,7.0788,7.0501,7.0566,7.0676,7.0566,7.0364,7.0026,6.9553,7.0263,7.1109,7.1582,7.3318,7.4965,7.598,7.6758,7.6555,7.4806,7.483,7.439,7.2902,7.2326,7.2428,7.3432,7.4187,7.4492,7.4255,7.5202,7.527,7.4255,7.4221,7.3984,7.35,7.35,7.3105,7.2394,7.1921,7.1526,7.1289,7.1041,7.0669,7.0128,6.9113,6.8402,6.776,6.6034,6.5324,6.5222,6.4241,6.3869,6.3802,6.3328,6.2821,6.2178,6.096,6.052,6.0419,5.9607,5.9032,5.8592,5.8337,5.7915,5.7374,5.663,5.6799,5.6867,5.5649,5.5886,5.6055,5.4566,5.4397,5.4397,5.3653,5.3518,5.3518,5.3518,5.3281,5.3112,5.3112,5.2909,5.2904,5.3381,5.2842,5.231,5.2017,5.2815,5.3356,5.3356,5.4276,5.4974,5.5174,5.5438,5.5365,5.484,5.5291,5.5475,5.5218,5.5475,5.5585,5.5585,5.513,5.5376,5.6426,5.5143,5.5196,5.6474,5.565,5.5426,6.299,6.5841,6.8476,6.8944,7.1108,7.2935,7.2084,7.2081,7.2129,7.1774,7.0703,6.9553,6.8808,6.9519,7.0263,7.05,7.2811,7.5134,7.669,7.7299,7.7063,7.5608,7.5845,7.5473,7.3747,7.3849,7.3984,7.3883,7.527,7.5912,7.5473,7.6623,7.6826,7.5845,7.5811,7.5473,7.4695,7.4424,7.3646,7.2394,7.165,7.1289,7.1289,7.1289,7.1041,7.0534,6.9823,6.9045,6.8199,6.6711,6.5933,6.5649,6.4884,6.4613,6.4546,6.4072,6.3903,6.3646,6.1907,6.1298,6.1163,6.0351,5.9776,5.9317,5.9081,5.8693,5.8152,5.7408,5.7509,5.7611,5.6409,5.663,5.6833,5.5344,5.5175,5.5108,5.4126,5.4093,5.4228,5.3957,5.4329,5.4699,5.4699,5.4978,5.5242,5.5408,5.462,5.3897,5.3627,5.4198,5.4615,5.4615,5.5315,5.5835,5.6018,5.6282,5.6209,5.5622,5.6136,5.6319,5.6051,5.6319,5.6466,5.6466,5.5991,5.6115,5.6841,5.5839,5.5879,5.6887,5.6367,5.6114,6.6444,6.8592,6.9874,7.0377,7.2958,7.4883,7.2879,7.3164,7.3538,7.2485,7.0578,6.8772,6.7827,6.9021,6.9957,6.9316,7.236,7.5337,7.6961,7.7164,7.713,7.7029,7.7063,7.6758,7.5845,7.6589,7.6487,7.4942,7.6217,7.7063,7.7029,7.7705,7.8102,7.8044,7.8034,7.7638,7.6961,7.6082,7.4559,7.2462,7.1684,7.1289,7.1289,7.1289,7.1289,7.1255,7.05,6.9789,6.9045,6.7535,6.6474,6.5751,6.5053,6.4749,6.4715,6.4681,6.4647,6.4343,6.2178,6.14,6.1298,6.0486,6.0182,6.0047,5.9317,5.9047,5.8844,5.8152,5.7934,5.773,5.7036,5.7374,5.7543,5.6105,5.6274,5.6427,5.4972,5.5209,5.5513,5.4838,5.5955,5.6971,5.6971,5.769,5.7994,5.7149,5.7036,5.6742,5.5798,5.6309,5.6768,5.6802,5.751,5.7632,5.6921,5.7556,5.7336,5.5805,5.7189,5.7703,5.6957,5.7666,5.807,5.807,5.7973,5.7631,5.6951,5.6912,5.6961,5.7023,5.6987,5.6987,6.8564,7.0929,7.2839,7.209,7.3508,7.4772,7.3515,7.2983,7.2404,7.104,6.9488,6.759,6.5074,6.7257,6.974,7.061,7.4356,7.8044,8.0648,8.1021,8.0412,7.8754,7.9498,7.9228,7.6826,7.8754,7.9566,7.8053,7.8822,7.9126,7.8585,7.9228,7.9397,7.8855,7.828,7.7933,7.7705,7.5845,7.4322,7.3206,7.1921,7.1289,7.1289,7.1289,7.1289,7.1255,7.05,7.0116,6.9857,6.891,6.8064,6.732,6.7117,6.6711,6.6149,6.5628,6.5425,6.5155,6.3531,6.2936,6.2801,6.2042,6.1434,6.096,6.0791,5.9892,5.8945,5.8776,5.8321,5.7866,5.7663,5.7764,5.7663,5.6731,5.6664,5.6562,5.5615,5.5564,5.5807,5.6227,5.7149,5.7872,5.7872,5.8517,5.8934,5.8718,5.9144,5.8577,5.6043,5.587,5.6227,5.6814,5.7057,5.7328,5.7668,5.7886,5.7813,5.7409,5.8327,5.8792,5.8609,5.8792,5.8902,5.8902,5.7777,5.7364,5.7726,5.7154,5.7492,5.8592,5.8007,5.8348,7.015,7.1902,7.3253,7.2575,7.3367,7.3953,7.2384,7.1718,7.0804,6.8695,6.7318,6.5835,6.3461,6.6112,6.8984,7.0148,7.4086,7.8145,8.146,8.1629,8.1224,8.0615,8.1291,8.1021,7.9025,8.0615,8.1426,8.0589,8.0953,8.0851,8.0107,8.0445,8.0479,8.0073,7.9329,7.8653,7.8034,7.6048,7.4728,7.395,7.2496,7.1785,7.1785,7.1424,7.1289,7.1289,7.0872,7.05,7.0184,6.9755,6.9113,6.8402,6.803,6.7658,6.7184,6.644,6.617,6.6,6.485,6.4241,6.3802,6.2719,6.211,6.1704,6.14,6.0452,5.9471,5.9471,5.8964,5.8457,5.8761,5.8863,5.8761,5.8355,5.8254,5.8178,5.7824,5.8014,5.8616,5.9785,6.0131,6.0469,6.1204,6.0774,6.02,5.988,5.9885,5.9146,5.7043,5.7342,5.7804,5.7884,5.8225,5.8592,5.9038,5.9061,5.9061,5.9061,5.949,5.9747,5.9747,5.9747,5.9747,5.9747,5.8884,5.8628,5.9061,5.8628,5.8884,5.971,5.9281,5.9538,7.1553,7.2286,7.2665,7.2563,7.3186,7.3255,7.1026,7.0456,6.9544,6.6514,6.5153,6.4038,6.2528,6.5121,6.7942,6.9304,7.3003,7.7096,8.1156,8.1088,8.1122,8.2408,8.2644,8.2408,8.1663,8.2272,8.2712,8.2712,8.2712,8.234,8.1494,8.1554,8.152,8.1317,8.0682,7.9634,7.8145,7.6623,7.5473,7.4728,7.324,7.2496,7.2394,7.1751,7.1391,7.1289,7.1289,7.0939,7.0353,7.0353,6.9891,6.918,6.847,6.8132,6.7963,6.7218,6.6927,6.6846,6.5967,6.5256,6.4512,6.3024,6.2502,6.2299,6.1637,6.0892,6.025,6.025,5.9742,5.9284,5.9945,6.0175,6.0287,6.0287,6.0365,6.051,6.0669,6.129,6.2263,6.3731,6.3544,6.3593,6.5037,6.352,6.1873,6.1215,6.0541,5.9813,5.9001,5.97,6.0029,5.9404,5.9967,6.0419,6.0419,6.0419,6.0419,6.0419,6.0493,6.0566,6.0566,6.0566,6.0566,6.0566,6.0456,6.0419,6.0419,6.0419,6.0529,6.0701,6.0481,6.0627,7.3248,7.3849,7.4086,7.3443,7.4479,7.5041,7.2703,7.1841,7.065,6.7565,6.5286,6.3397,6.1862,6.3579,6.671,7.1107,7.4018,7.7638,8.3227,8.3389,8.3016,8.3287,8.3862,8.3903,8.3186,8.3795,8.4208,8.4208,8.4208,8.3633,8.2272,8.278,8.2543,8.1351,8.1181,8.0378,7.8923,7.7435,7.6284,7.5506,7.4018,7.2969,7.2394,7.2259,7.1887,7.1289,7.1289,7.1244,7.1109,7.1109,7.0669,6.9992,6.9857,6.9417,6.8808,6.7996,6.7726,6.7523,6.617,6.5615,6.5256,6.3802,6.2888,6.24,6.2245,6.167,6.1095,6.1095,6.052,5.9945,6.008,6.0679,6.1256,6.1256,6.1811,6.2356,6.2377,6.2999,6.3672,6.3935,6.4471,6.4974,6.5238,6.494,6.4602,6.4496,6.4373,6.3972,6.3168,6.0963,5.9654,6.0139,6.0309,6.0419,6.0419,6.0419,6.0419,6.0419,6.1006,6.1374,6.1374,6.1374,6.1374,6.1374,6.075,6.0419,6.0419,6.0419,6.1068,6.2352,6.1031,6.1851,7.3741,7.4423,7.4897,7.3804,7.4534,7.4493,7.0537,6.9866,6.8859,6.4546,6.3053,6.2281,6.1519,6.3189,6.5954,7.0024,7.2868,7.6352,8.1596,8.234,8.278,8.3964,8.4377,8.4444,8.4133,8.4377,8.4614,8.4614,8.4614,8.4275,8.3565,8.3524,8.2813,8.1351,8.1663,8.1156,7.9701,7.8957,7.8044,7.686,7.5371,7.4255,7.3544,7.3138,7.2766,7.2428,7.2056,7.1887,7.1853,7.1458,7.1086,7.0737,7.0331,6.9958,6.9586,6.8808,6.8504,6.8402,6.7692,6.6948,6.617,6.5459,6.4478,6.3463,6.3091,6.2448,6.1873,6.1873,6.1603,6.14,6.1772,6.2862,6.3825,6.3843,6.4924,6.5898,6.5898,6.6595,6.7168,6.7168,6.7163,6.7307,6.7724,6.6729,6.6041,6.6492,6.58,6.5095,6.4708,6.3351,6.2402,6.234,6.2695,6.2939,6.2939,6.2939,6.2939,6.2939,6.3319,6.3539,6.3539,6.3539,6.3539,6.3539,6.3172,6.2939,6.2939,6.2939,6.3343,6.4077,6.3306,6.3783,7.4003,7.4921,7.5739,7.4479,7.4934,7.4246,6.8755,6.8187,6.739,6.2265,6.1178,6.1292,6.1605,6.2725,6.485,6.8504,7.1041,7.4322,7.9464,8.0682,8.1934,8.4309,8.4614,8.4614,8.4614,8.4614,8.4614,8.4614,8.4614,8.4614,8.4614,8.4065,8.3118,8.1824,8.234,8.1934,8.0445,8.0276,7.9532,7.8213,7.669,7.5574,7.483,7.4052,7.3544,7.3229,7.2665,7.2326,7.2124,7.1526,7.1289,7.1222,7.0669,7.0432,7.0331,6.962,6.935,6.9316,6.9147,6.8301,6.7265,6.7096,6.5933,6.4478,6.3903,6.3453,6.3193,6.3174,6.3314,6.3589,6.4185,6.5462,6.6652,6.6831,6.8008,6.9077,6.9077,6.9624,7.011,7.011,6.9596,6.9376,7.0,6.8487,6.7418,6.8122,6.7092,6.6257,6.6257,6.6286,6.6109,6.5461,6.5338,6.5362,6.5545,6.5398,6.5362,6.5545,6.5398,6.5288,6.5288,6.5288,6.5288,6.5288,6.5288,6.5362,6.5545,6.5362,6.5582,6.6059,6.5729,6.5839,7.4697,7.6041,7.702,7.6463,7.7127,7.6445,7.0789,6.9754,6.8764,6.4605,6.2026,6.0894,6.2223,6.1393,6.2415,6.8166,6.9316,7.2022,7.9194,8.0242,8.1359,8.4242,8.4614,8.4614,8.4614,8.4614,8.4614,8.4614,8.4614,8.4614,8.4614,8.4546,8.4133,8.3321,8.3355,8.2678,8.1215,8.0513,7.9803,7.8966,7.7502,7.6352,7.5574,7.483,7.3781,7.2496,7.2428,7.2022,7.1391,7.1323,7.1289,7.1289,7.1244,7.1188,7.1109,7.0364,7.0116,6.9992,6.9316,6.9011,6.8774,6.803,6.6339,6.458,6.4512,6.504,6.5689,6.5651,6.6298,6.6952,6.7022,6.7788,6.8734,6.953,6.984,6.9975,6.9975,7.0031,7.011,7.011,7.0036,7.0,7.0073,6.9921,6.9806,6.9879,6.9769,6.9659,6.9659,6.9628,6.9633,6.9559,6.699,6.5582,6.6329,6.5742,6.5632,6.6329,6.5705,6.5288,6.5288,6.5288,6.5288,6.5288,6.5288,6.5655,6.6402,6.5655,6.6426,6.8518,6.7063,6.7577,7.6219,7.7816,7.8728,7.761,7.7032,7.5502,7.0854,6.9216,6.7811,6.4727,6.2508,6.156,6.3049,6.1987,6.2288,6.6529,6.7593,6.9715,7.4931,7.6062,7.7735,8.1503,8.1968,8.2652,8.4411,8.4614,8.4614,8.4614,8.4614,8.4614,8.4614,8.4614,8.4242,8.3524,8.393,8.3253,8.1317,8.146,8.0716,7.9067,7.8517,7.7924,7.7377,7.7068,7.6381,7.5374,7.4893,7.4253,7.351,7.303,7.2605,7.2193,7.2193,7.183,7.1255,7.0973,7.0872,7.0838,7.0534,7.0519,7.0601,7.0292,6.9381,6.811,6.6572,6.6359,6.6695,6.6811,6.7482,6.8236,6.8733,6.9878,7.1153,7.2065,7.229,7.2386,7.2899,7.301,7.301,7.301,7.301,7.301,7.301,7.301,7.301,7.301,7.2569,7.229,7.229,7.1431,7.083,7.083,6.9229,6.8311,6.8641,6.8385,6.8348,6.8641,6.8385,6.8201,6.8201,6.8201,6.8201,6.8201,6.8201,6.8348,6.8678,6.8348,6.8678,6.9596,6.8972,6.9192,7.6529,7.851,7.9692,7.8949,7.763,7.5436,7.1215,6.9099,6.7297,6.4653,6.2956,6.2407,6.3921,6.3047,6.2979,6.5542,6.6595,6.8344,7.2102,7.3241,7.5161,7.909,7.9797,8.0959,8.3381,8.4208,8.4766,8.5118,8.5144,8.5292,8.5643,8.5318,8.4723,8.3828,8.4309,8.3659,8.1629,8.2454,8.1908,7.9922,7.9806,7.9615,7.93,7.8846,7.8219,7.7486,7.6573,7.5935,7.5408,7.4344,7.3594,7.313,7.2901,7.2206,7.1289,7.1289,7.1289,7.1356,7.1644,7.1884,7.2027,7.2106,7.189,7.1247,6.9506,6.8815,6.8714,6.9099,6.9792,7.0601,7.1175,7.2181,7.3229,7.3904,7.4037,7.4221,7.4793,7.4903,7.4903,7.4903,7.4903,7.4903,7.4903,7.4903,7.4903,7.4903,7.4441,7.4037,7.4037,7.3068,7.2371,7.2371,7.1872,7.1321,7.0844,7.0367,7.0293,7.077,7.0367,7.011,7.011,7.011,7.011,7.011,7.011,7.022,7.044,7.022,7.033,7.0807,7.055,7.0587,7.5097,7.7574,7.9682,8.0731,7.9784,7.7289,7.2393,7.0059,6.7981,6.4763,6.3393,6.3264,6.4801,6.4403,6.4311,6.5683,6.65,6.8269,7.1875,7.3026,7.4617,7.7662,7.8907,7.9977,8.1216,8.3321,8.5092,8.6291,8.639,8.6913,8.8088,8.7032,8.5836,8.4633,8.4614,8.387,8.2408,8.3493,8.3352,8.1898,8.1491,8.1264,8.1228,7.9691,7.8558,7.774,7.6636,7.6405,7.654,7.4662,7.3927,7.392,7.3095,7.2206,7.1289,7.1289,7.1289,7.1434,7.2435,7.2776,7.2843,7.3088,7.3179,7.3204,7.337,7.288,7.2394,7.3221,7.4108,7.4852,7.4852,7.4852,7.4903,7.4903,7.4903,7.4903,7.4903,7.4903,7.4903,7.4903,7.4903,7.4903,7.4903,7.4903,7.4903,7.4903,7.4903,7.4903,7.4903,7.4867,7.4867,7.4867,7.4867,7.4206,7.2606,7.1027,7.077,7.2386,7.0991,7.011,7.011,7.011,7.011,7.011,7.011,7.0477,7.1307,7.0477,7.0917,7.2459,7.1674,7.1711,7.2191,7.4107,7.5609,7.5922,7.4368,7.2239,7.0146,6.8004,6.6132,6.5118,6.4252,6.4153,6.5698,6.4816,6.4885,6.8164,6.8397,6.9334,7.2665,7.4045,7.5924,7.9137,8.228,8.4385,8.4776,8.5424,8.6316,8.7538,8.7631,8.7792,8.8178,8.7838,8.7445,8.708,8.6276,8.5501,8.4786,8.5142,8.4572,8.3081,8.292,8.2989,8.319,8.2708,8.2081,8.131,8.0411,7.9787,7.9263,7.8121,7.7026,7.5936,7.5022,7.3685,7.2236,7.1568,7.1754,7.2385,7.2673,7.3694,7.4868,7.494,7.5065,7.5301,7.5921,7.4708,7.3316,7.4202,7.5053,7.5579,7.505,7.5307,7.5726,7.5726,7.5726,7.5858,7.6408,7.6555,7.6555,7.6555,7.6555,7.6555,7.6555,7.6555,7.6555,7.6555,7.6555,7.6555,7.6555,7.6041,7.5726,7.5726,7.5234,7.4683,7.4169,7.3656,7.3597,7.4096,7.3656,7.3377,7.3377,7.3377,7.3377,7.3377,7.3377,7.3509,7.3766,7.3509,7.3619,7.4133,7.3876,7.3913,6.9265,7.1358,7.2863,7.3156,7.1651,6.9889,6.9082,6.7283,6.5742,6.5742,6.5338,6.539,6.6654,6.6015,6.6089,6.8626,6.8857,6.9704,7.2539,7.4363,7.6698,8.0207,8.3696,8.5776,8.5741,8.6532,8.7585,8.8776,8.8863,8.9093,8.9537,8.9135,8.9114,8.9537,8.7952,8.6685,8.59,8.6333,8.576,8.4248,8.4366,8.4535,8.4719,8.441,8.4028,8.3538,8.2341,8.1744,0.0,8.0008,7.8836,7.7808,7.6552,7.5141,7.3696,7.2769,7.2852,7.3432,7.3792,7.4757,7.5874,7.6247,7.6464,7.6628,7.7142,7.6178,7.5054,7.5648,7.6151,7.6445,7.5931,7.6188,7.6555,7.6555,7.6555,7.6702,7.7179,7.7289,7.7289,7.7289,7.7289,7.7289,7.7289,7.7289,7.7289,7.7289,7.7289,7.7289,7.7289,7.6848,7.6555,7.6555,7.6114,7.5821,7.5821,7.5234,7.5014,7.5322,7.505,7.4903,7.4903,7.4903,7.4903,7.4903,7.4903,7.4903,7.4903,7.4903,7.4903,7.4903,7.4903,7.4903,0.0,6.8862,7.0866,7.16,7.0734,6.9486,6.8752,6.7467,0.0,6.6402,6.6476,6.6769,6.7627,6.7697,6.7656,6.7746,6.8389,6.9672,7.189,7.452,7.7592,8.127,8.3805,8.516,8.4917,8.698,8.8819,9.0026,9.0107,9.0618,9.173,9.0735,9.0637,9.1785,8.9584,8.7665,8.6161,8.7203,8.6964,8.5412,8.5733,8.5894,8.5857,8.5123,8.4756,8.4668,8.2812,8.2555,8.3294,8.0616,7.9557,7.9412,7.7697,7.6428,7.5506,7.4612,7.4329,7.4535,7.5492,7.5857,7.6061,7.7003,7.7289,7.7289,7.7289,7.7289,7.7289,7.7289,7.7289,7.7289,7.7289,7.7289,7.7289,7.7289,7.7289,7.7289,7.7289,7.7289,7.7289,7.7289,7.7289,7.7289,7.7289,7.7289,7.7289,7.7289,7.7289,7.7289,7.7289,7.7289,7.7289,7.7289,7.7289,7.7289,7.7289,7.5931,7.538,7.613,7.5491,7.505,7.505,7.505,7.505,7.505,7.505,7.505,7.505,7.505,7.505,7.505,7.505,7.505,6.0921,0.0,6.4848,6.5031,6.5301,6.5461,0.0,6.5411,6.5582,6.5582,6.6072,6.6916,6.8348,6.7561,6.7506,6.9989,7.052,7.1447,7.3874,7.8996,8.3282,8.5422,8.7535,8.8557,8.7885,8.8875,9.0067,9.1267,9.1379,9.1491,9.1803,9.1509,9.1491,9.1803,9.0645,8.9579,8.8596,8.8837,8.818,8.6589,8.6671,8.6738,8.6701,8.65,8.6427,8.6354,8.4681,8.4093,8.4115,8.1663,8.0629,8.0396,7.7939,7.6873,7.6446,7.4875,7.4776,7.5492,7.5718,7.6297,7.6988,7.7227,7.7289,7.7289,7.7289,7.7289,7.7289,7.7289,7.7289,7.7289,7.7289,7.7289,7.7289,7.7289,7.7289,7.7289,7.7289,7.7289,7.7289,7.7289,7.7289,7.7289,7.7289,7.7289,7.7289,7.7289,7.7289,7.7289,7.7289,7.7289,7.7289,7.7289,7.7289,7.7289,7.7289,7.6959,7.6812,7.6995,7.6848,7.6738,7.6738,7.6738,7.6738,7.6738,7.6738,7.6738,7.6738,7.6738,7.6738,7.6738,7.6738,7.6738,5.8646,6.0664,6.2793,6.2793,6.3466,6.4213,6.4567,6.5007,6.5398,6.5765,6.6219,6.688,6.8128,6.7907,6.8254,7.0407,7.1647,7.3732,7.7683,8.1929,8.539,8.7574,8.9272,9.0017,8.9413,9.0265,9.1116,9.1767,9.1803,9.1803,9.1803,9.1803,9.1803,9.1803,9.1033,9.0207,8.94,8.9033,8.8243,8.6978,8.6978,8.6978,8.6978,8.6978,8.6978,8.6904,8.5306,8.4609,8.4425,8.2406,8.1562,8.1367,7.9553,7.8823,7.8627,7.692,7.6606,7.7023,7.6607,7.684,7.7289,7.7289,7.7289,7.7289,7.7289,7.7289,7.7289,7.7289,7.7289,7.7399,7.7803,7.7876,7.7876,7.7876,7.7876,7.7876,7.7876,7.7876,7.7986,7.8369,7.8442,7.8442,7.8442,7.8442,7.8442,7.8442,7.8148,7.7876,7.7876,7.7546,7.7289,7.7289,7.7289,7.7289,7.7289,7.7289,7.7289,7.7289,7.7289,7.7289,7.7289,7.7289,7.7289,7.7289,7.7289,7.7289,7.7289,7.7289,7.7289,7.7289,7.7289,7.7289,5.829,6.0701,6.305,6.2572,6.3282,6.4249,6.4774,6.5105,6.5472,6.6182,6.6512,6.699,6.8068,6.8715,6.9449,7.0477,7.2804,7.6475,8.2296,8.4278,8.6131,8.877,9.0114,9.0593,9.0147,9.1119,9.1803,9.1803,9.1803,9.1803,9.1803,9.1803,9.1803,9.1803,9.1033,9.0207,8.94,8.861,8.7802,8.6978,8.6978,8.6978,8.6978,8.6978,8.6904,8.6738,8.527,8.4535,8.4278,8.2663,8.2076,8.2113,8.1195,8.0901,8.0828,7.9323,7.8699,7.8479,7.7582,7.7289,7.7289,7.7289,7.7289,7.7289,7.7289,7.7289,7.7326,7.7472,7.7399,7.7509,7.8369,7.8589,7.8626,7.8736,7.8772,7.8772,7.8772,7.8772,7.8993,7.9669,7.9816,7.9816,7.9816,7.9816,7.9816,7.9816,7.9213,7.8772,7.8772,7.8148,7.7693,7.7693,7.7693,7.7693,7.7693,7.7582,7.7509,7.7509,7.7362,7.7289,7.7289,7.7289,7.7289,7.7289,7.7289,7.7289,7.7289,7.7289,7.7289,7.7289,7.7289,7.7289,5.9648,6.2426,6.4261,6.1471,6.2438,6.3956,6.3306,6.4261,6.5325,6.5472,6.6549,6.8178,7.0353,7.0293,7.0624,7.2804,7.5799,8.0057,8.6371,8.7472,8.83,9.0118,9.1088,9.1308,9.0594,9.1272,9.1803,9.1803,9.1803,9.1803,9.1803,9.1803,9.1803,9.1803,9.1033,9.0207,8.94,8.861,8.7802,8.6978,8.6978,8.6978,8.6978,8.6978,8.6628,8.593,8.5013,8.4205,8.3454,8.1856,8.1599,8.2039,8.055,8.0388,8.0901,7.9947,7.9192,7.8479,7.7582,7.7289,7.7289,7.7289,7.7289,7.7289,7.7289,7.7289,7.7436,7.8185,7.7876,7.7509,7.8369,7.8589,7.8772,7.9449,7.9633,7.9633,7.9633,7.9633,7.9669,7.9779,7.9816,7.9816,7.9816,7.9816,7.9816,7.9816,7.9706,7.9633,7.9633,7.9522,7.9412,7.9412,7.9412,7.9412,7.9412,7.8772,7.8405,7.8405,7.7693,7.7289,7.7289,7.7289,7.7289,7.7289,7.7289,7.7289,7.7289,7.7289,7.7289,7.7289,7.7289,7.7289,5.9563,6.2132,6.4383,6.3306,6.5558,6.7907,6.749,6.8004,6.8408,6.7981,6.8458,6.9596,7.1564,7.2716,7.4698,7.8919,8.0865,8.3177,8.7031,8.7545,8.8316,9.0372,9.0922,9.1179,9.1253,9.1583,9.1803,9.1803,9.1803,9.1803,9.1803,9.1803,9.1803,9.1803,9.0592,8.9987,9.006,8.883,8.7802,8.6978,8.6978,8.6978,8.6978,8.6978,8.6554,8.5747,8.4939,8.4132,8.3308,8.215,8.1856,8.2113,8.1395,8.1305,8.1562,8.0755,7.9947,7.9176,7.8772,7.8662,7.8662,7.8662,7.8662,7.8662,7.8662,7.8662,7.8846,7.9653,7.8993,7.828,7.958,7.991,7.9984,8.0351,8.0461,8.0461,8.0461,8.0807,8.1248,8.1672,8.1746,8.1746,8.1746,8.1379,8.1101,8.1101,8.0718,8.0461,8.0461,8.0073,7.9816,7.9816,7.9816,7.9816,7.9816,7.9449,7.8846,7.7949,7.7509,7.7289,7.7289,7.7289,7.7289,7.7289,7.7289,7.7289,7.7289,7.7289,7.7289,7.7289,7.7289,7.7289,5.993,6.2291,6.4897,6.5912,6.8041,7.0206,7.1307,7.1454,7.1344,7.1468,7.1651,7.2165,7.3399,7.5616,7.8846,8.3801,8.5086,8.6077,8.7876,8.8133,8.883,9.0665,9.0886,9.1106,9.173,9.1803,9.1803,9.1803,9.1803,9.1803,9.1803,9.1803,9.1803,9.1803,9.0427,8.9877,9.0317,8.8904,8.7876,8.7288,8.7288,8.7161,8.6978,8.6978,8.6554,8.5747,8.4939,8.4132,8.3344,8.2737,8.237,8.2223,8.2406,8.237,8.2113,8.1305,8.0608,8.0073,7.989,7.9816,7.9816,7.9816,7.9816,7.9853,8.0036,8.0073,8.0277,8.1269,8.0681,8.0021,8.1232,8.1562,8.1619,8.1819,8.1709,8.1562,8.1562,8.2039,8.2627,8.3014,8.3418,8.3564,8.3161,8.2774,8.2406,8.2223,8.1672,8.1269,8.1269,8.0718,8.0367,8.0367,8.055,8.0587,8.0367,8.0367,7.9653,7.7986,7.7693,7.7582,7.7582,7.7399,7.7289,7.7289,7.7289,7.7289,7.7289,7.7289,7.7289,7.7289,7.7289,7.7289,6.2132,6.4371,6.6696,6.8238,6.716,6.6903,7.1394,7.1821,7.2114,7.5065,7.6261,7.6812,7.6922,7.8977,8.1525,8.4168,8.6481,8.8757,9.1106,9.1436,9.151,9.1693,9.1693,9.173,9.1803,9.1803,9.1803,9.1803,9.1803,9.1803,9.1803,9.1803,9.1803,9.1803,9.0959,9.017,8.9473,8.8647,8.8169,8.8096,8.8096,8.7729,8.6978,8.6978,8.6554,8.5747,8.4939,8.4132,8.3381,8.3344,8.2884,8.226,8.303,8.2847,8.2113,8.1305,8.0975,8.0828,8.0073,7.9816,7.9816,7.9816,7.9816,7.9926,8.0681,8.0901,8.1232,8.2794,8.3124,8.3087,8.3197,8.3234,8.3418,8.4168,8.3748,8.3234,8.3234,8.3271,8.3087,8.2406,8.3508,8.4058,8.2553,8.2847,8.3051,8.2296,8.215,8.2113,8.2113,8.2039,8.2039,8.2039,8.27,8.2847,8.2076,8.2039,8.1358,7.9706,7.8919,7.8516,7.8516,7.7729,7.7289,7.7289,7.7289,7.7289,7.7289,7.7289,7.7289,7.7289,7.7289,7.7289,6.1741,6.4237,6.6769,6.7871,6.8605,7.0316,7.5175,7.6056,7.6607,7.9323,8.0534,8.1106,8.1106,8.27,8.4609,8.6518,8.8426,9.0188,9.1583,9.1803,9.1803,9.1803,9.1803,9.1803,9.1803,9.1803,9.1803,9.1803,9.1803,9.1803,9.1803,9.1803,9.1803,9.1803,9.0537,8.995,9.0134,8.8867,8.8206,8.8206,8.7692,8.7271,8.6978,8.6978,8.6554,8.58,8.549,8.4903,8.4168,8.4168,8.3985,8.3728,8.4022,8.3654,8.292,8.261,8.2186,8.1709,8.1395,8.1285,8.1285,8.1285,8.1285,8.1415,8.226,8.25,8.283,8.4425,8.4903,8.4792,8.4278,8.4168,8.4242,8.4535,8.3968,8.3528,8.4058,8.4168,8.4205,8.4389,8.4939,8.5159,8.4535,8.4278,8.3875,8.3067,8.3361,8.3508,8.303,8.3398,8.3691,8.3691,8.3948,8.4022,8.3728,8.3251,8.27,8.2076,8.0351,7.9339,7.9339,7.9029,7.8846,7.8846,7.8369,7.8369,7.8846,7.8369,7.8369,7.8846,7.8846,7.8846,6.2291,6.4567,6.7136,6.8178,6.9889,7.2775,7.8442,7.9543,8.0241,8.3434,8.3728,8.3491,8.3711,8.4682,8.593,8.7545,8.9601,9.1179,9.173,9.1803,9.1803,9.1803,9.1803,9.1803,9.1803,9.1803,9.1803,9.1803,9.1803,9.1803,9.1803,9.1803,9.1693,9.1436,9.0097,8.9546,8.9858,8.85,8.7839,8.7802,8.7234,8.6978,8.6978,8.6978,8.6701,8.6151,8.5894,8.549,8.4976,8.4976,8.4976,8.4903,8.4132,8.3654,8.3381,8.3087,8.2663,8.2186,8.2186,8.2186,8.2223,8.248,8.259,8.2774,8.3838,8.4168,8.4462,8.5783,8.6187,8.604,8.549,8.538,8.538,8.538,8.4756,8.4315,8.4866,8.4976,8.5086,8.5343,8.582,8.6004,8.549,8.5159,8.4719,8.3895,8.4242,8.4389,8.3858,8.4278,8.4682,8.4939,8.4976,8.4976,8.4976,8.4462,8.4042,8.3785,8.2003,8.0718,8.0204,7.9926,7.9816,7.9816,7.9265,7.9265,7.9816,7.9265,7.9265,7.9816,7.9816,7.9816,6.4323,6.5865,6.8068,6.9669,7.0734,7.3252,8.0534,8.1562,8.237,8.7215,8.5673,8.3675,8.4499,8.4646,8.5159,8.6757,8.9711,9.1803,9.1803,9.1803,9.1803,9.1803,9.1803,9.1803,9.1803,9.1803,9.1803,9.1803,9.1803,9.1803,9.1803,9.1803,9.1436,9.0629,8.9803,8.8996,8.8206,8.7399,8.6978,8.6978,8.6978,8.6978,8.6978,8.6978,8.6978,8.6941,8.6151,8.58,8.58,8.58,8.58,8.558,8.3177,8.27,8.3308,8.2517,8.2186,8.2186,8.2186,8.2186,8.2333,8.3124,8.3418,8.3711,8.5306,8.58,8.5967,8.6757,8.6978,8.6978,8.6978,8.6978,8.6978,8.6978,8.6371,8.5783,8.58,8.58,8.5563,8.4756,8.593,8.65,8.4903,8.527,8.5527,8.4719,8.4609,8.4609,8.4609,8.4609,8.4939,8.571,8.58,8.58,8.58,8.58,8.5453,8.4646,8.3858,8.2684,8.1085,8.0241,7.9816,7.9816,7.9816,7.9816,7.9853,7.9853,7.9816,7.9816,7.9816,7.9816,6.2879,6.4947,6.7958,6.9009,7.2863,7.7451,8.1305,8.2003,8.3361,8.8793,8.8243,8.6848,8.7105,8.7142,8.7288,8.7766,8.9601,9.1143,9.173,9.1803,9.1803,9.1803,9.1803,9.1803,9.1803,9.1803,9.1803,9.1803,9.1803,9.1803,9.1803,9.1803,9.1436,9.0629,8.9803,8.8996,8.8206,8.7399,8.6978,8.6978,8.6978,8.6978,8.6978,8.6978,8.6978,8.6978,8.6738,8.6334,8.58,8.58,8.58,8.5727,8.5013,8.4205,8.3381,8.3124,8.27,8.226,8.2847,8.2663,8.2443,8.3801,8.3858,8.3711,8.5306,8.58,8.5967,8.6757,8.6978,8.6978,8.6978,8.6978,8.6978,8.6978,8.5967,8.527,8.6407,8.5747,8.5233,8.6097,8.6647,8.6831,8.6371,8.6481,8.6371,8.5563,8.593,8.6297,8.6297,8.6297,8.6371,8.6628,8.6628,8.6628,8.6628,8.6114,8.571,8.5453,8.4682,8.3785,8.272,8.1929,8.1746,8.2333,8.1782,8.2039,8.3177,8.2627,8.2333,8.2333,8.2333,8.2039,6.5521,6.7724,7.0527,7.2312,7.6166,8.0424,8.3801,8.5086,8.6591,9.0298,8.9528,8.839,8.905,8.8647,8.8426,8.905,9.0225,9.1253,9.173,9.1803,9.1803,9.1803,9.1803,9.1803,9.1803,9.1803,9.1803,9.1803,9.1803,9.1803,9.1803,9.151,9.0959,9.0134,8.9326,8.8536,8.7729,8.7234,8.6978,8.6978,8.6978,8.6978,8.6978,8.6978,8.6978,8.6978,8.6978,8.6738,8.6224,8.56,8.571,8.6151,8.4866,8.4168,8.3821,8.3528,8.3087,8.281,8.3618,8.3581,8.3361,8.4646,8.4756,8.4609,8.5894,8.6261,8.6371,8.6885,8.6978,8.6978,8.6978,8.6978,8.6978,8.6978,8.6261,8.582,8.6794,8.6261,8.584,8.6794,8.6978,8.6978,8.6978,8.6978,8.6848,8.6334,8.6701,8.6978,8.6978,8.6978,8.6978,8.6978,8.6978,8.6978,8.6978,8.6554,8.6261,8.6261,8.5527,8.4866,8.4389,8.3581,8.3398,8.3875,8.3398,8.3618,8.4609,8.4115,8.3858,8.3858,8.3858,8.3471,7.0206,7.2349,7.4588,7.7892,8.0241,8.292,8.7399,8.9601,9.0922,9.1546,9.0005,8.8977,9.0445,8.9528,8.9014,9.0482,9.1326,9.1803,9.1803,9.1803,9.1803,9.1803,9.1803,9.1803,9.1803,9.1803,9.1803,9.1803,9.1803,9.1767,9.1693,9.0996,9.0207,8.9326,8.8573,8.7802,8.7014,8.6978,8.6978,8.6978,8.6978,8.6941,8.6867,8.6978,8.6941,8.6885,8.6794,8.6757,8.6647,8.5123,8.5343,8.639,8.3434,8.3214,8.4389,8.3675,8.3454,8.3601,8.4352,8.4609,8.4719,8.5527,8.58,8.593,8.6775,8.6978,8.6978,8.6978,8.6978,8.6978,8.6978,8.6978,8.6978,8.6978,8.6941,8.6904,8.6978,8.6941,8.6904,8.6978,8.6978,8.6978,8.6978,8.7051,8.7088,8.7088,8.7051,8.7014,8.7088,8.7051,8.7051,8.7198,8.7124,8.7124,8.7198,8.7124,8.7088,8.7088,8.6334,8.5894,8.5894,8.5086,8.4646,8.4719,8.4719,8.4756,8.4829,8.4829,8.4792,8.4719,8.4719,8.4278,6.8641,7.1505,7.5432,7.8699,8.3618,8.8042,8.9711,9.0849,9.14,9.0959,9.0959,9.1143,9.1473,9.1253,9.1143,9.1473,9.1693,9.1803,9.1803,9.1803,9.1803,9.1803,9.1803,9.1803,9.1803,9.1803,9.1803,9.1803,9.1803,9.151,9.0886,9.0702,8.9931,8.85,8.828,8.7802,8.7014,8.6978,8.6978,8.6978,8.6978,8.6664,8.6077,8.6701,8.6664,8.6004,8.538,8.5123,8.5049,8.4042,8.3858,8.4115,8.3418,8.3344,8.3638,8.3454,8.3785,8.4389,8.4535,8.4609,8.4719,8.5527,8.58,8.593,8.6775,8.6978,8.6978,8.6978,8.6978,8.6978,8.6978,8.6978,8.6978,8.6978,8.6518,8.6224,8.6885,8.6518,8.6224,8.6867,8.6978,8.6978,8.6978,8.7509,8.7949,8.7949,8.7399,8.7234,8.7876,8.7399,8.7491,8.8739,8.8316,8.8206,8.8812,8.8299,8.7949,8.7949,8.7178,8.6738,8.6738,8.538,8.4903,8.5527,8.5527,8.5857,8.6464,8.6464,8.6151,8.5527,8.5527,8.5123,7.016,7.3817,7.8405,8.3214,8.7198,9.017,9.0996,9.151,9.1693,9.1253,9.151,9.1803,9.1803,9.1803,9.1803,9.1803,9.1803,9.1803,9.1803,9.1803,9.1803,9.1803,9.1473,9.1216,9.1216,9.0886,9.0665,9.0665,9.0665,9.0464,9.006,8.9674,8.9087,8.8243,8.7839,8.7252,8.6444,8.6811,8.6628,8.5857,8.6261,8.6004,8.5233,8.5673,8.5637,8.5196,8.4792,8.4609,8.4535,8.3711,8.3638,8.3911,8.3141,8.3051,8.3381,8.3381,8.3675,8.4078,8.4462,8.4866,8.5233,8.5654,8.604,8.6444,8.6867,8.6978,8.6978,8.6978,8.6978,8.6978,8.6978,8.6978,8.6978,8.6978,8.6701,8.6481,8.6904,8.6664,8.6518,8.6904,8.6978,8.6978,8.6978,8.7344,8.7619,8.7619,8.7288,8.7124,8.7582,8.7619,8.7912,8.8739,8.8776,8.8923,8.9363,8.8683,8.8206,8.8206,8.7435,8.6978,8.6978,8.617,8.5967,8.6371,8.6371,8.6591,8.6978,8.6978,8.6775,8.6371,8.6371,8.593,7.1762,7.6475,8.1636,8.7675,8.9987,9.0996,9.1657,9.1803,9.1803,9.1803,9.1803,9.1803,9.1803,9.1803,9.1803,9.1803,9.1803,9.1803,9.1803,9.1693,9.1583,9.1583,9.0886,9.0391,9.0391,8.9803,8.94,8.94,8.94,8.9326,8.9216,8.8573,8.8059,8.7802,8.7142,8.6407,8.56,8.6261,8.593,8.4609,8.5123,8.5049,8.4389,8.4242,8.4278,8.4389,8.4389,8.4315,8.4132,8.3454,8.3581,8.4058,8.27,8.27,8.3418,8.3564,8.3711,8.3895,8.4572,8.5343,8.5967,8.5874,8.6334,8.6978,8.6978,8.6978,8.6978,8.6978,8.6978,8.6978,8.6978,8.6978,8.6978,8.6978,8.6978,8.6978,8.6978,8.6978,8.6978,8.6978,8.6978,8.7014,8.7161,8.7198,8.7198,8.7198,8.7308,8.7418,8.7418,8.8023,8.85,8.8793,8.929,8.9657,8.9803,8.9087,8.861,8.861,8.7876,8.7418,8.7418,8.7418,8.7418,8.7418,8.7271,8.7198,8.7198,8.7198,8.7124,8.6978,8.6978,8.6628,6.9192,7.5579,8.292,8.7288,9.0005,9.1657,9.1767,9.1803,9.1803,9.1803,9.1803,9.1803,9.1803,9.1803,9.1803,9.1803,9.1803,9.1803,9.1803,9.1216,9.0776,9.0776,9.006,8.9546,8.9546,8.9473,8.94,8.94,8.94,8.9106,8.839,8.8243,8.7545,8.6151,8.6004,8.5563,8.4756,8.4866,8.4829,8.4609,8.4005,8.3638,8.3528,8.2847,8.292,8.3564,8.3564,8.3177,8.2517,8.2406,8.2406,8.248,8.226,8.27,8.3491,8.4168,8.4866,8.549,8.56,8.6151,8.6738,8.604,8.6334,8.6978,8.6978,8.6978,8.6978,8.6978,8.6978,8.6978,8.6978,8.6978,8.6978,8.6978,8.6978,8.6978,8.6978,8.6978,8.6978,8.6978,8.6978,8.7215,8.7912,8.8059,8.8059,8.8059,8.8629,8.9069,8.9069,8.9179,8.9767,9.1179,9.0812,9.0739,9.1436,9.0739,9.0298,9.0298,8.951,8.9069,8.9069,8.9069,8.9069,8.9069,8.839,8.8059,8.8059,8.8059,8.7692,8.6978,8.6978,8.6941,7.2899,7.7524,8.2276,8.8096,9.0005,9.0702,9.1583,9.1803,9.1803,9.1803,9.1436,9.1253,9.173,9.1436,9.1289,9.173,9.1033,9.0629,9.1069,9.0445,8.9767,8.9307,8.894,8.8556,8.8078,8.8042,8.7858,8.7435,8.7399,8.7031,8.6224,8.6591,8.6334,8.5159,8.5563,8.5196,8.3931,8.4389,8.4389,8.3911,8.3104,8.2737,8.2737,8.237,8.237,8.2737,8.2737,8.2517,8.2186,8.2186,8.2186,8.2186,8.2186,8.2406,8.2847,8.3654,8.4168,8.4535,8.4976,8.5637,8.6261,8.5894,8.6334,8.6978,8.6978,8.7325,8.7655,8.7655,8.8005,8.8335,8.8335,8.8335,8.8225,8.7802,8.7655,8.7655,8.7655,8.7655,8.7802,8.8262,8.7968,8.7949,8.8739,8.8849,8.8849,8.8849,8.9179,8.94,8.94,8.9803,9.0317,9.1069,9.1216,9.1436,9.1767,9.1069,9.0592,9.0592,8.984,8.94,8.94,8.94,8.962,9.006,8.929,8.8849,8.8849,8.8849,8.8463,8.7655,8.7655,8.7435,7.4294,7.732,7.9853,8.6518,8.8482,8.9216,9.0812,9.1363,9.1546,9.1767,9.1179,9.0776,9.1363,9.0849,9.0482,9.1106,9.017,8.962,9.0207,8.9583,8.8776,8.7986,8.7912,8.7509,8.65,8.6591,8.6444,8.5874,8.56,8.5306,8.4939,8.527,8.5123,8.4315,8.4866,8.4425,8.2794,8.3398,8.3398,8.2794,8.2406,8.2186,8.2186,8.2186,8.2186,8.2186,8.2186,8.2186,8.2186,8.2186,8.2186,8.2186,8.2186,8.2333,8.259,8.3434,8.3821,8.4132,8.4939,8.56,8.6114,8.6114,8.6518,8.6978,8.6978,8.7435,8.7949,8.8133,8.8647,8.9143,8.9363,8.94,8.9253,8.8647,8.85,8.8463,8.8243,8.8353,8.8683,8.929,8.8923,8.872,8.929,8.9583,8.9657,8.9436,8.9767,8.995,8.973,9.0391,9.0922,9.0922,9.1436,9.1803,9.1803,9.1253,9.0922,9.0922,9.0317,8.9987,8.9987,8.9987,9.028,9.0886,9.0317,8.9913,8.9693,8.9693,8.9197,8.8206,8.8426,8.8059,6.9155,7.2253,7.5212,8.0241,8.4335,8.7528,8.9143,9.0097,9.0886,9.1657,9.1179,9.0629,9.0665,8.9987,8.9473,8.951,8.9436,8.94,8.9473,8.8776,8.7949,8.7178,8.7051,8.6444,8.4866,8.5416,8.5874,8.58,8.5086,8.4976,8.571,8.5049,8.4278,8.3491,8.3491,8.2757,8.1158,8.1158,8.1158,8.1122,8.1856,8.2186,8.2186,8.2186,8.2186,8.2186,8.2186,8.2186,8.2186,8.2186,8.2186,8.2186,8.2186,8.2663,8.3454,8.4242,8.5013,8.5783,8.6591,8.6904,8.6958,8.6958,8.6978,8.6978,8.6978,8.7014,8.7215,8.7986,8.8243,8.8426,8.9216,8.94,8.94,8.9363,8.9326,8.9143,8.8353,8.8776,8.9363,8.94,8.9363,8.9363,8.94,9.0024,9.028,8.951,9.0702,9.14,9.0629,9.1253,9.173,9.173,9.1767,9.1803,9.1803,9.1767,9.173,9.173,9.1693,9.1693,9.1693,9.1693,9.1693,9.173,9.1693,9.1289,9.0555,9.0555,8.9748,8.8206,8.8959,8.8923,6.7797,6.994,7.2532,7.7399,8.0922,8.3728,8.584,8.8152,8.9767,8.9528,8.9674,8.984,8.984,8.9583,8.9583,9.0097,8.9307,8.883,8.9326,8.8262,8.7142,8.6334,8.6701,8.6371,8.4756,8.5783,8.593,8.4389,8.4462,8.4278,8.3508,8.3728,8.3471,8.2663,8.2627,8.2113,8.1012,8.1012,8.1269,8.1782,8.2039,8.2186,8.2186,8.2186,8.2186,8.2186,8.2186,8.2186,8.2186,8.2186,8.2186,8.226,8.2774,8.2847,8.2847,8.4682,8.5233,8.5233,8.6554,8.6978,8.6978,8.6978,8.6978,8.6978,8.6978,8.7362,8.7949,8.8739,8.9344,8.9931,9.0739,9.0959,9.0812,9.028,9.017,9.0097,8.9821,8.9546,8.9693,9.0739,9.0519,9.0317,9.0849,9.1179,9.1253,9.0996,9.1436,9.1693,9.14,9.162,9.1803,9.1803,9.1803,9.1803,9.1803,9.1803,9.1803,9.1803,9.1803,9.1803,9.1803,9.1803,9.1803,9.1803,9.1803,9.1657,9.1363,9.1363,9.0812,8.9748,9.0024,8.973,6.5448,6.7444,7.033,7.461,7.7105,7.9617,8.3691,8.5857,8.7198,8.8023,8.8647,8.8996,8.8996,8.9216,8.9583,9.0097,8.8867,8.8096,8.8886,8.7822,8.6591,8.5527,8.6114,8.5857,8.3985,8.527,8.5399,8.3528,8.3654,8.3324,8.226,8.2186,8.1966,8.1432,8.1122,8.0718,8.0204,8.0461,8.0865,8.1395,8.1929,8.2039,8.1819,8.2076,8.2039,8.1782,8.1782,8.1929,8.2186,8.2186,8.2186,8.226,8.281,8.2847,8.2847,8.4719,8.5233,8.5196,8.6554,8.6978,8.6978,8.6978,8.6978,8.6978,8.6978,8.7582,8.839,8.9179,8.9987,9.0812,9.1583,9.1803,9.1657,9.1143,9.0996,9.0996,9.0996,9.0592,9.0519,9.1583,9.1363,9.1179,9.1693,9.1803,9.1803,9.1803,9.1803,9.1803,9.1803,9.1803,9.1803,9.1803,9.1803,9.1803,9.1803,9.1803,9.1803,9.1803,9.1803,9.1803,9.1803,9.1803,9.1803,9.1803,9.1803,9.1803,9.1803,9.1803,9.14,9.0629,9.0886,9.0739,0.0,0.0,0.0,7.1468,7.2899,7.5432,8.259,8.3067,8.3141,8.7142,8.8023,8.8059,8.8169,8.8849,8.9363,8.94,8.8078,8.7325,8.8096,8.7509,8.639,8.4829,8.5343,8.4883,8.248,8.3691,8.4278,8.3418,8.2627,8.2186,8.215,8.0661,7.9779,7.9779,7.8993,7.8589,7.8589,7.9376,7.9779,7.9816,8.1395,8.1746,8.1048,8.1819,8.1746,8.1012,8.1048,8.1452,8.215,8.215,8.2186,8.2186,8.2223,8.27,8.3491,8.4352,8.5123,8.593,8.6738,8.6978,8.6978,8.6978,8.7014,8.7014,8.7014,8.7619,8.839,8.9216,8.9987,9.0812,9.1583,9.1803,9.1803,9.1803,9.1803,9.1803,9.1803,9.1803,9.1803,9.1803,9.1803,9.1803,9.1803,9.1803,9.1803,9.1803,9.1803,9.1803,9.1803,9.1803,9.1803,9.1803,9.1803,9.1803,9.1803,9.1803,9.1803,9.1803,9.1803,9.1803,9.1803,9.1803,9.1803,9.1803,9.1803,9.1803,9.1803,9.1803,9.14,9.0665,9.1436,9.1803,6.1814,0.0,0.0,0.0,0.0,0.0,7.4243,7.5968,7.806,8.215,8.3434,8.4756,8.7655,8.839,8.8702,8.9326,8.8519,8.7949,8.8169,8.7509,8.6628,8.56,8.6187,8.571,8.3308,8.4535,8.4646,8.2663,8.2333,8.1929,8.1379,8.0367,7.9522,7.8956,7.8699,7.8589,7.8589,7.8809,7.9213,7.9816,8.0257,8.0645,8.1012,8.1232,8.1232,8.1048,8.1636,8.1672,8.1342,8.1342,8.1672,8.226,8.2847,8.3197,8.3564,8.4976,8.56,8.593,8.6738,8.6978,8.6978,8.6978,8.7399,8.7876,8.7876,8.8426,8.9253,9.0024,9.0445,9.0812,9.1583,9.1803,9.1803,9.1803,9.1803,9.1803,9.1803,9.1803,9.1803,9.1803,9.1803,9.1803,9.1803,9.1803,9.1803,9.1803,9.1803,9.1803,9.1803,9.1803,9.1803,9.1803,9.1803,9.1803,9.1803,9.1803,9.1803,9.1803,9.1803,9.1803,9.1803,9.1803,9.1803,9.1803,9.1803,9.1803,9.1803,9.1803,9.1693,9.1473,9.1693,9.1803,0.0,0.0,0.0,6.5534,0.0,0.0,7.2408,7.3362,7.483,7.9947,8.1379,8.2517,8.5196,8.6261,8.6848,8.7308,8.7288,8.7435,8.8096,8.7509,8.6701,8.5894,8.6224,8.5673,8.3601,8.4535,8.4278,8.1893,8.1709,8.1048,7.9528,7.9029,7.8552,7.806,7.8075,7.8075,7.8075,7.8405,7.8846,7.9302,7.9633,7.989,8.0021,8.0351,8.0314,8.0021,8.0498,8.0791,8.0975,8.0645,8.1158,8.226,8.2737,8.292,8.3104,8.4719,8.5306,8.5453,8.6591,8.6978,8.6978,8.6978,8.7308,8.7766,8.8096,8.8757,8.9583,9.0354,9.0849,9.1216,9.1693,9.1803,9.1803,9.1803,9.1803,9.1803,9.1803,9.1803,9.1803,9.1803,9.1803,9.1803,9.1803,9.1803,9.1803,9.1803,9.1803,9.1803,9.1803,9.1803,9.1803,9.1803,9.1803,9.1803,9.1803,9.1803,9.1803,9.1803,9.1803,9.1803,9.1803,9.1803,9.1803,9.1803,9.1803,9.1803,9.1803,9.1803,9.1803,9.1803,9.1803,9.1803,0.0,0.0,0.0,0.0,6.6769,0.0,7.3523,7.2826,7.2591,7.8552,7.9727,8.0057,8.1305,8.2774,8.3801,8.3801,8.4756,8.6114,8.7839,8.7472,8.6701,8.5894,8.5874,8.527,8.3564,8.4132,8.3654,8.1305,8.0975,7.9821,7.7436,7.7289,7.7289,7.7289,7.7289,7.7289,7.7289,7.806,7.8479,7.8479,7.9176,7.9192,7.8626,7.9339,7.9302,7.8589,7.8699,7.9507,8.0681,8.0131,8.0844,8.2186,8.2186,8.226,8.2517,8.4058,8.4646,8.4939,8.6464,8.6978,8.6978,8.6978,8.7051,8.7288,8.7986,8.883,8.9693,9.0519,9.1253,9.1803,9.1803,9.1803,9.1803,9.1803,9.1803,9.1803,9.1803,9.1803,9.1803,9.1803,9.1803,9.1803,9.1803,9.1803,9.1803,9.1803,9.1803,9.1803,9.1803,9.1803,9.1803,9.1803,9.1803,9.1803,9.1803,9.1803,9.1803,9.1803,9.1803,9.1803,9.1803,9.1803,9.1803,9.1803,9.1803,9.1803,9.1803,9.1803,9.1803,9.1803,9.1803,9.1803,0.0,0.0,0.0,0.0,0.0,0.0,6.782,6.7907,6.9119,7.1688,7.1725,7.2496,7.6533,7.806,7.872,7.872,8.1619,8.4665,8.6921,8.7088,8.6701,8.5894,8.6371,8.5877,8.3601,8.4132,8.3875,8.2113,8.0771,7.9213,7.7399,7.7289,7.7289,7.7289,7.7289,7.7289,7.7289,7.7472,7.7546,7.7546,7.7693,7.806,7.8589,7.8772,7.8736,7.8626,7.9302,7.936,7.9176,8.0314,8.1342,8.2186,8.2186,8.259,8.3271,8.4242,8.5013,8.571,8.6664,8.6978,8.6978,8.6978,8.7435,8.7986,8.8133,8.9197,9.0537,9.1326,9.1693,9.1803,9.1803,9.1803,9.1803,9.1803,9.1803,9.1803,9.1803,9.1803,9.1803,9.1803,9.1803,9.1803,9.1803,9.1803,9.1803,9.1803,9.1803,9.1803,9.1803,9.1803,9.1803,9.1803,9.1803,9.1803,9.1803,9.1803,9.1803,9.1803,9.1803,9.1803,9.1803,9.1803,9.1803,9.1803,9.1803,9.1803,9.1803,9.1803,9.1803,9.1803,9.1803,9.1803,0.0,0.0,0.0,6.8385,0.0,0.0,0.0,6.7343,6.754,7.1138,6.9669,6.8935,7.2958,7.4023,7.472,7.5894,7.8867,8.1709,8.3711,8.573,8.6831,8.6444,8.6407,8.5783,8.4168,8.4005,8.3324,8.1709,8.0094,7.8809,7.8002,7.7546,7.7289,7.7289,7.7289,7.7289,7.7289,7.7289,7.7289,7.7289,7.7289,7.7546,7.7949,7.7949,7.7949,7.7949,7.8369,7.8589,7.8662,7.947,8.0498,8.1636,8.2039,8.2443,8.292,8.3691,8.4278,8.4792,8.5967,8.6407,8.6481,8.6867,8.7288,8.7692,8.8096,8.905,9.017,9.0996,9.1216,9.1289,9.1693,9.1803,9.1803,9.1803,9.1803,9.1803,9.1803,9.1803,9.1803,9.1803,9.1803,9.1803,9.1803,9.1803,9.1803,9.1803,9.1803,9.1803,9.1803,9.1803,9.1803,9.1803,9.1803,9.1803,9.1803,9.1803,9.1803,9.1803,9.1803,9.1803,9.1803,9.1803,9.1803,9.1803,9.1803,9.1803,9.1803,9.1803,9.1803,9.1803,9.1803,9.1803,0.0,0.0,0.0,0.0,0.0,6.9596,0.0,0.0,0.0,7.077,6.8495,6.6623,6.9398,6.9912,7.061,7.2701,7.5395,7.7708,7.9176,8.2684,8.5289,8.5766,8.5416,8.4829,8.4205,8.3141,8.2003,8.0865,7.9103,7.8185,7.8332,7.7693,7.7289,7.7289,7.7289,7.7289,7.7289,7.7289,7.7289,7.7289,7.7289,7.7289,7.7289,7.7289,7.7289,7.7289,7.7289,7.7693,7.8369,7.8699,7.958,8.0865,8.1636,8.2039,8.2333,8.3287,8.3528,8.3638,8.5416,8.593,8.593,8.6738,8.6978,8.7124,8.7949,8.8647,8.9326,9.0134,9.0354,9.0519,9.1179,9.1436,9.1583,9.1583,9.1693,9.1803,9.1803,9.1803,9.1803,9.1803,9.1803,9.1803,9.1803,9.1803,9.1803,9.1803,9.1803,9.1803,9.1803,9.1803,9.1803,9.1803,9.1803,9.1803,9.1803,9.1803,9.1803,9.1803,9.1803,9.1803,9.1803,9.1803,9.1803,9.1803,9.1803,9.1803,9.1803,9.1803,9.1803,9.1803,9.1803,9.1803,0.0,0.0,0.0,0.0,7.3193,0.0,0.0,0.0,6.6769,6.4517,0.0,6.3563,6.4714,0.0,0.0,6.6242,6.9619,7.2445,7.334,7.6298,7.9234,8.1399,8.2223,8.2553,8.248,8.0461,7.936,7.989,7.7708,7.6717,7.7399,7.7362,7.7289,7.7289,7.7289,7.7289,7.7289,7.7289,7.7289,7.7289,7.7289,7.7289,7.7289,7.7289,7.7289,7.7289,7.7289,7.7362,7.7546,7.9029,7.9779,8.0036,8.0828,8.1562,8.237,8.3911,8.4022,8.3711,8.606,8.6407,8.593,8.6738,8.6978,8.7124,8.7949,8.828,8.85,8.929,8.9546,8.9546,8.9657,9.0207,9.0739,9.0739,9.1289,9.1803,9.1803,9.1803,9.1803,9.1803,9.1803,9.1803,9.1803,9.1803,9.1803,9.1803,9.1803,9.1803,9.1803,9.1803,9.1803,9.1803,9.1803,9.1803,9.1803,9.1803,9.1803,9.1803,9.1803,9.1803,9.1803,9.1803,9.1803,9.1803,9.1803,9.1803,9.1803,9.1803,9.1803,9.1803,9.1803,9.1803,0.0,0.0,0.0,0.0,0.0,0.0,6.737,0.0,6.4861,0.0,0.0,0.0,0.0,0.0,0.0,0.0,6.7504,6.9486,7.0293,7.1564,7.4206,7.9029,7.8626,7.8148,7.8626,7.8185,7.8222,7.9029,7.7231,7.6445,7.7252,7.7289,7.7289,7.7289,7.7289,7.7289,7.7289,7.7289,7.7289,7.7289,7.7289,7.7289,7.7289,7.7289,7.7289,7.7326,7.7839,7.7766,7.7436,7.9103,7.9816,7.989,8.0681,8.1489,8.226,8.2957,8.3287,8.3601,8.5069,8.5673,8.593,8.6738,8.6978,8.7051,8.7399,8.7509,8.7692,8.85,8.872,8.894,8.984,9.0354,9.0739,9.1179,9.1546,9.1803,9.1803,9.1803,9.1803,9.1803,9.1803,9.1803,9.1803,9.1803,9.1803,9.1803,9.1803,9.1803,9.1803,9.1803,9.1803,9.1803,9.1803,9.1803,9.1803,9.1803,9.1803,9.1803,9.1803,9.1803,9.1803,9.1803,9.1803,9.1803,9.1803,9.1803,9.1803,9.1803,9.1803,9.1803,9.1803,9.1803,7.5564,0.0,0.0,0.0,0.0,0.0,0.0,0.0,0.0,0.0,0.0,0.0,0.0,0.0,0.0,0.0,0.0,6.732,6.8128,6.7871,6.9669,7.5285,7.5139,7.4992,7.6019,7.6041,7.6518,7.7818,7.5983,7.5417,7.6885,7.6959,7.7069,7.7289,7.7289,7.7289,7.7289,7.7289,7.7289,7.7289,7.7289,7.7289,7.7289,7.7289,7.7289,7.7362,7.8222,7.8112,7.7436,7.936,8.0,7.989,8.0938,8.1819,8.2517,8.2517,8.2774,8.3251,8.4499,8.5453,8.6224,8.6811,8.6978,8.6978,8.6978,8.6978,8.7124,8.7729,8.7876,8.8206,8.9601,9.0115,9.0464,9.1289,9.1657,9.1803,9.1803,9.1803,9.1803,9.1803,9.1803,9.1803,9.1803,9.1803,9.1803,9.1803,9.1803,9.1803,9.1803,9.1803,9.1803,9.1803,9.1803,9.1803,9.1803,9.1803,9.1803,9.1803,9.1803,9.1803,9.1803,9.1803,9.1803,9.1803,9.1803,9.1803,9.1803,9.1803,9.1803,9.1803,9.1803,9.1803,0.0,0.0,0.0,7.1762,0.0,0.0,0.0,0.0,6.8311,0.0,0.0,0.0,0.0,0.0,0.0,0.0,0.0,0.0,0.0,6.5228,6.5485,6.8825,7.1872,7.4368,7.5946,7.4001,7.3634,7.5983,7.3252,7.2812,7.5983,7.613,7.6497,7.7289,7.7289,7.7289,7.7289,7.7289,7.7289,7.7289,7.7289,7.7289,7.7289,7.7289,7.7289,7.7362,7.8222,7.8112,7.7509,7.9931,8.0498,7.9963,8.1542,8.2663,8.3344,8.3344,8.2884,8.259,8.4939,8.6297,8.6978,8.6978,8.6978,8.6978,8.6978,8.6978,8.7014,8.7014,8.7014,8.7234,8.8059,8.8849,8.9657,9.0427,9.1216,9.1803,9.1803,9.1803,9.1803,9.1803,9.1803,9.1803,9.1803,9.1803,9.1803,9.1803,9.1803,9.1803,9.1803,9.1803,9.1803,9.1803,9.1803,9.1803,9.1803,9.1803,9.1803,9.1803,9.1803,9.1803,9.1803,9.1803,9.1803,9.1803,9.1803,9.1803,9.1803,9.1803,9.1803,9.1803,9.1803,9.1803,0.0,0.0,7.8641,7.3722,0.0,0.0,0.0,0.0,0.0,0.0,0.0,0.0,0.0,0.0,0.0,0.0,0.0,0.0,0.0,6.2658,6.2438,6.4591,6.8678,7.1101,7.0601,7.1248,7.2041,7.2848,7.1931,7.2224,7.4404,7.5506,7.624,7.6481,7.7032,7.7289,7.7289,7.7289,7.7289,7.7289,7.7289,7.7289,7.7289,7.7289,7.7289,7.7362,7.8222,7.8442,7.8332,8.0204,8.0828,8.0681,8.1782,8.27,8.3344,8.281,8.3104,8.3985,8.5306,8.6334,8.6978,8.6978,8.6978,8.6978,8.6978,8.6978,8.6978,8.6978,8.7399,8.7986,8.8776,8.9583,9.0408,9.1216,9.1583,9.1803,9.1803,9.1803,9.1803,9.1803,9.1803,9.1803,9.1803,9.1803,9.1803,9.1803,9.1803,9.1803,9.1803,9.1803,9.1803,9.1803,9.1803,9.1803,9.1803,9.1803,9.1803,9.1803,9.1803,9.1803,9.1803,9.1803,9.1803,9.1803,9.1803,9.1803,9.1803,9.1803,9.1803,9.1803,9.1803,9.1803,7.7766,7.8552,0.0,7.4992,7.3744,0.0,6.8274,0.0,0.0,0.0,0.0,0.0,0.0,0.0,0.0,0.0,0.0,0.0,0.0,6.1545,6.1508,6.2279,6.5925,6.8421,6.8545,6.9192,6.9949,7.0793,7.0059,7.044,7.2312,7.4221,7.5395,7.5652,7.6738,7.7289,7.7289,7.7289,7.7289,7.7289,7.7289,7.7289,7.7289,7.7289,7.7289,7.7362,7.8222,7.8405,7.8295,8.0204,8.0828,8.0681,8.1782,8.27,8.3308,8.248,8.3214,8.4719,8.5527,8.6334,8.6978,8.6978,8.6978,8.6978,8.6978,8.6978,8.7051,8.7344,8.7802,8.8463,8.9546,9.0207,9.0812,9.162,9.1803,9.1803,9.1803,9.1803,9.1803,9.1803,9.1803,9.1803,9.1803,9.1803,9.1803,9.1803,9.1803,9.1803,9.1803,9.1803,9.1803,9.1803,9.1803,9.1803,9.1803,9.1803,9.1803,9.1803,9.1803,9.1803,9.1803,9.1803,9.2354,9.3529,9.2391,9.2391,9.3529,9.2354,9.1803,9.1803,9.1803,9.1803]}]]